<?xml version="1.0" encoding="UTF-8" standalone="no" ?>
<gpx xmlns="http://www.topografix.com/GPX/1/1" xmlns:xsi="http://www.w3.org/2001/XMLSchema-instance" xsi:schemaLocation="http://www.topografix.com/GPX/1/1 http://www.topografix.com/GPX/1/1/gpx.xsd" version="1.1" creator="VisuGPX - https://www.visugpx.com">
  <metadata>
    <name>Les Coches =&gt; Cormet Roselend =&gt; Les coches</name>
    <desc><![CDATA[Les Coches => Cormet Roselend => Les coches
une bonne sortie]]></desc>
  </metadata>
  <trk>
    <name><![CDATA[route_Bourg-Sai]]></name>
    <trkseg>
      <trkpt lat="45.55498" lon="6.73046">
        <ele>1385</ele>
        <time>2010-01-27T06:00:00Z</time>
      </trkpt>
      <trkpt lat="45.55481" lon="6.7302">
        <ele>1384</ele>
        <time>2010-01-27T06:00:10Z</time>
      </trkpt>
      <trkpt lat="45.55477" lon="6.72994">
        <ele>1379</ele>
        <time>2010-01-27T06:00:17Z</time>
      </trkpt>
      <trkpt lat="45.55468" lon="6.72973">
        <ele>1380</ele>
        <time>2010-01-27T06:00:24Z</time>
      </trkpt>
      <trkpt lat="45.55455" lon="6.72951">
        <ele>1381</ele>
        <time>2010-01-27T06:00:32Z</time>
      </trkpt>
      <trkpt lat="45.55451" lon="6.72917">
        <ele>1381</ele>
        <time>2010-01-27T06:00:42Z</time>
      </trkpt>
      <trkpt lat="45.55464" lon="6.7281">
        <ele>1374</ele>
        <time>2010-01-27T06:01:12Z</time>
      </trkpt>
      <trkpt lat="45.55468" lon="6.72792">
        <ele>1374</ele>
        <time>2010-01-27T06:01:17Z</time>
      </trkpt>
      <trkpt lat="45.5546" lon="6.72728">
        <ele>1377</ele>
        <time>2010-01-27T06:01:36Z</time>
      </trkpt>
      <trkpt lat="45.55472" lon="6.72698">
        <ele>1375</ele>
        <time>2010-01-27T06:01:46Z</time>
      </trkpt>
      <trkpt lat="45.55477" lon="6.72664">
        <ele>1373</ele>
        <time>2010-01-27T06:01:56Z</time>
      </trkpt>
      <trkpt lat="45.5549" lon="6.72578">
        <ele>1369</ele>
        <time>2010-01-27T06:02:20Z</time>
      </trkpt>
      <trkpt lat="45.55498" lon="6.72565">
        <ele>1371</ele>
        <time>2010-01-27T06:02:25Z</time>
      </trkpt>
      <trkpt lat="45.55507" lon="6.72565">
        <ele>1354</ele>
        <time>2010-01-27T06:02:29Z</time>
      </trkpt>
      <trkpt lat="45.55511" lon="6.72574">
        <ele>1355</ele>
        <time>2010-01-27T06:02:32Z</time>
      </trkpt>
      <trkpt lat="45.55515" lon="6.72638">
        <ele>1352</ele>
        <time>2010-01-27T06:02:50Z</time>
      </trkpt>
      <trkpt lat="45.55528" lon="6.72724">
        <ele>1354</ele>
        <time>2010-01-27T06:03:14Z</time>
      </trkpt>
      <trkpt lat="45.55541" lon="6.72775">
        <ele>1355</ele>
        <time>2010-01-27T06:03:30Z</time>
      </trkpt>
      <trkpt lat="45.55571" lon="6.72853">
        <ele>1354</ele>
        <time>2010-01-27T06:03:55Z</time>
      </trkpt>
      <trkpt lat="45.55623" lon="6.7293">
        <ele>1343</ele>
        <time>2010-01-27T06:04:25Z</time>
      </trkpt>
      <trkpt lat="45.55644" lon="6.72994">
        <ele>1338</ele>
        <time>2010-01-27T06:04:44Z</time>
      </trkpt>
      <trkpt lat="45.55661" lon="6.73114">
        <ele>1347</ele>
        <time>2010-01-27T06:05:19Z</time>
      </trkpt>
      <trkpt lat="45.5567" lon="6.73123">
        <ele>1327</ele>
        <time>2010-01-27T06:05:23Z</time>
      </trkpt>
      <trkpt lat="45.55678" lon="6.73123">
        <ele>1326</ele>
        <time>2010-01-27T06:05:27Z</time>
      </trkpt>
      <trkpt lat="45.55687" lon="6.73106">
        <ele>1326</ele>
        <time>2010-01-27T06:05:32Z</time>
      </trkpt>
      <trkpt lat="45.55687" lon="6.73076">
        <ele>1325</ele>
        <time>2010-01-27T06:05:41Z</time>
      </trkpt>
      <trkpt lat="45.55665" lon="6.72943">
        <ele>1335</ele>
        <time>2010-01-27T06:06:19Z</time>
      </trkpt>
      <trkpt lat="45.55674" lon="6.7293">
        <ele>1319</ele>
        <time>2010-01-27T06:06:24Z</time>
      </trkpt>
      <trkpt lat="45.55687" lon="6.72934">
        <ele>1316</ele>
        <time>2010-01-27T06:06:30Z</time>
      </trkpt>
      <trkpt lat="45.55696" lon="6.72943">
        <ele>1314</ele>
        <time>2010-01-27T06:06:34Z</time>
      </trkpt>
      <trkpt lat="45.55726" lon="6.73037">
        <ele>1315</ele>
        <time>2010-01-27T06:07:03Z</time>
      </trkpt>
      <trkpt lat="45.55734" lon="6.7308">
        <ele>1312</ele>
        <time>2010-01-27T06:07:15Z</time>
      </trkpt>
      <trkpt lat="45.55734" lon="6.73213">
        <ele>1316</ele>
        <time>2010-01-27T06:07:53Z</time>
      </trkpt>
      <trkpt lat="45.55751" lon="6.73359">
        <ele>1292</ele>
        <time>2010-01-27T06:08:34Z</time>
      </trkpt>
      <trkpt lat="45.55756" lon="6.73376">
        <ele>1290</ele>
        <time>2010-01-27T06:08:39Z</time>
      </trkpt>
      <trkpt lat="45.55768" lon="6.7338">
        <ele>1288</ele>
        <time>2010-01-27T06:08:45Z</time>
      </trkpt>
      <trkpt lat="45.55777" lon="6.73368">
        <ele>1286</ele>
        <time>2010-01-27T06:08:50Z</time>
      </trkpt>
      <trkpt lat="45.55768" lon="6.73269">
        <ele>1290</ele>
        <time>2010-01-27T06:09:17Z</time>
      </trkpt>
      <trkpt lat="45.5579" lon="6.73179">
        <ele>1284</ele>
        <time>2010-01-27T06:09:44Z</time>
      </trkpt>
      <trkpt lat="45.55794" lon="6.73089">
        <ele>1282</ele>
        <time>2010-01-27T06:10:09Z</time>
      </trkpt>
      <trkpt lat="45.5579" lon="6.72943">
        <ele>1279</ele>
        <time>2010-01-27T06:10:51Z</time>
      </trkpt>
      <trkpt lat="45.55734" lon="6.72689">
        <ele>1269</ele>
        <time>2010-01-27T06:12:05Z</time>
      </trkpt>
      <trkpt lat="45.557" lon="6.72565">
        <ele>1261</ele>
        <time>2010-01-27T06:12:42Z</time>
      </trkpt>
      <trkpt lat="45.55696" lon="6.72552">
        <ele>1261</ele>
        <time>2010-01-27T06:12:46Z</time>
      </trkpt>
      <trkpt lat="45.55704" lon="6.72539">
        <ele>1257</ele>
        <time>2010-01-27T06:12:51Z</time>
      </trkpt>
      <trkpt lat="45.55708" lon="6.72539">
        <ele>1256</ele>
        <time>2010-01-27T06:12:53Z</time>
      </trkpt>
      <trkpt lat="45.55717" lon="6.72544">
        <ele>1253</ele>
        <time>2010-01-27T06:12:57Z</time>
      </trkpt>
      <trkpt lat="45.55743" lon="6.72625">
        <ele>1258</ele>
        <time>2010-01-27T06:13:22Z</time>
      </trkpt>
      <trkpt lat="45.55863" lon="6.72883">
        <ele>1228</ele>
        <time>2010-01-27T06:14:49Z</time>
      </trkpt>
      <trkpt lat="45.5591" lon="6.73059">
        <ele>1225</ele>
        <time>2010-01-27T06:15:42Z</time>
      </trkpt>
      <trkpt lat="45.5594" lon="6.73127">
        <ele>1200</ele>
        <time>2010-01-27T06:16:04Z</time>
      </trkpt>
      <trkpt lat="45.55962" lon="6.73162">
        <ele>1197</ele>
        <time>2010-01-27T06:16:17Z</time>
      </trkpt>
      <trkpt lat="45.55974" lon="6.73196">
        <ele>1200</ele>
        <time>2010-01-27T06:16:28Z</time>
      </trkpt>
      <trkpt lat="45.55983" lon="6.73234">
        <ele>1200</ele>
        <time>2010-01-27T06:16:40Z</time>
      </trkpt>
      <trkpt lat="45.56022" lon="6.73376">
        <ele>1194</ele>
        <time>2010-01-27T06:17:22Z</time>
      </trkpt>
      <trkpt lat="45.56035" lon="6.7338">
        <ele>1192</ele>
        <time>2010-01-27T06:17:28Z</time>
      </trkpt>
      <trkpt lat="45.56043" lon="6.73368">
        <ele>1190</ele>
        <time>2010-01-27T06:17:33Z</time>
      </trkpt>
      <trkpt lat="45.56043" lon="6.73355">
        <ele>1190</ele>
        <time>2010-01-27T06:17:36Z</time>
      </trkpt>
      <trkpt lat="45.56022" lon="6.73277">
        <ele>1185</ele>
        <time>2010-01-27T06:18:00Z</time>
      </trkpt>
      <trkpt lat="45.55992" lon="6.73076">
        <ele>1179</ele>
        <time>2010-01-27T06:18:57Z</time>
      </trkpt>
      <trkpt lat="45.55957" lon="6.72655">
        <ele>1150</ele>
        <time>2010-01-27T06:20:56Z</time>
      </trkpt>
      <trkpt lat="45.55923" lon="6.72505">
        <ele>1143</ele>
        <time>2010-01-27T06:21:41Z</time>
      </trkpt>
      <trkpt lat="45.55863" lon="6.72247">
        <ele>1126</ele>
        <time>2010-01-27T06:22:57Z</time>
      </trkpt>
      <trkpt lat="45.55816" lon="6.72076">
        <ele>1123</ele>
        <time>2010-01-27T06:23:48Z</time>
      </trkpt>
      <trkpt lat="45.55816" lon="6.72063">
        <ele>1124</ele>
        <time>2010-01-27T06:23:52Z</time>
      </trkpt>
      <trkpt lat="45.5582" lon="6.72059">
        <ele>1124</ele>
        <time>2010-01-27T06:23:54Z</time>
      </trkpt>
      <trkpt lat="45.55829" lon="6.72059">
        <ele>1123</ele>
        <time>2010-01-27T06:23:57Z</time>
      </trkpt>
      <trkpt lat="45.55867" lon="6.72153">
        <ele>1111</ele>
        <time>2010-01-27T06:24:28Z</time>
      </trkpt>
      <trkpt lat="45.5594" lon="6.7226">
        <ele>1105</ele>
        <time>2010-01-27T06:25:10Z</time>
      </trkpt>
      <trkpt lat="45.55992" lon="6.72376">
        <ele>1110</ele>
        <time>2010-01-27T06:25:49Z</time>
      </trkpt>
      <trkpt lat="45.56133" lon="6.72638">
        <ele>1077</ele>
        <time>2010-01-27T06:27:22Z</time>
      </trkpt>
      <trkpt lat="45.56172" lon="6.72689">
        <ele>1066</ele>
        <time>2010-01-27T06:27:43Z</time>
      </trkpt>
      <trkpt lat="45.56279" lon="6.72887">
        <ele>1049</ele>
        <time>2010-01-27T06:28:53Z</time>
      </trkpt>
      <trkpt lat="45.56288" lon="6.72925">
        <ele>1048</ele>
        <time>2010-01-27T06:29:04Z</time>
      </trkpt>
      <trkpt lat="45.56283" lon="6.73089">
        <ele>1047</ele>
        <time>2010-01-27T06:29:50Z</time>
      </trkpt>
      <trkpt lat="45.56288" lon="6.73183">
        <ele>1050</ele>
        <time>2010-01-27T06:30:17Z</time>
      </trkpt>
      <trkpt lat="45.56296" lon="6.73187">
        <ele>1048</ele>
        <time>2010-01-27T06:30:20Z</time>
      </trkpt>
      <trkpt lat="45.56305" lon="6.7317">
        <ele>1044</ele>
        <time>2010-01-27T06:30:26Z</time>
      </trkpt>
      <trkpt lat="45.56305" lon="6.73123">
        <ele>1042</ele>
        <time>2010-01-27T06:30:39Z</time>
      </trkpt>
      <trkpt lat="45.56318" lon="6.73063">
        <ele>1040</ele>
        <time>2010-01-27T06:30:57Z</time>
      </trkpt>
      <trkpt lat="45.56339" lon="6.72994">
        <ele>1027</ele>
        <time>2010-01-27T06:31:18Z</time>
      </trkpt>
      <trkpt lat="45.56348" lon="6.72891">
        <ele>1017</ele>
        <time>2010-01-27T06:31:47Z</time>
      </trkpt>
      <trkpt lat="45.56344" lon="6.72818">
        <ele>1018</ele>
        <time>2010-01-27T06:32:08Z</time>
      </trkpt>
      <trkpt lat="45.56335" lon="6.72724">
        <ele>1006</ele>
        <time>2010-01-27T06:32:34Z</time>
      </trkpt>
      <trkpt lat="45.56292" lon="6.72582">
        <ele>1004</ele>
        <time>2010-01-27T06:33:18Z</time>
      </trkpt>
      <trkpt lat="45.56305" lon="6.72574">
        <ele>1000</ele>
        <time>2010-01-27T06:33:23Z</time>
      </trkpt>
      <trkpt lat="45.56309" lon="6.72578">
        <ele>999</ele>
        <time>2010-01-27T06:33:26Z</time>
      </trkpt>
      <trkpt lat="45.56331" lon="6.72604">
        <ele>1006</ele>
        <time>2010-01-27T06:33:37Z</time>
      </trkpt>
      <trkpt lat="45.56399" lon="6.72818">
        <ele>1000</ele>
        <time>2010-01-27T06:34:43Z</time>
      </trkpt>
      <trkpt lat="45.56451" lon="6.73041">
        <ele>976</ele>
        <time>2010-01-27T06:35:49Z</time>
      </trkpt>
      <trkpt lat="45.56455" lon="6.732">
        <ele>974</ele>
        <time>2010-01-27T06:36:33Z</time>
      </trkpt>
      <trkpt lat="45.56468" lon="6.73243">
        <ele>972</ele>
        <time>2010-01-27T06:36:47Z</time>
      </trkpt>
      <trkpt lat="45.56472" lon="6.73243">
        <ele>971</ele>
        <time>2010-01-27T06:36:48Z</time>
      </trkpt>
      <trkpt lat="45.56481" lon="6.73209">
        <ele>970</ele>
        <time>2010-01-27T06:36:59Z</time>
      </trkpt>
      <trkpt lat="45.56477" lon="6.73059">
        <ele>971</ele>
        <time>2010-01-27T06:37:41Z</time>
      </trkpt>
      <trkpt lat="45.56494" lon="6.72956">
        <ele>969</ele>
        <time>2010-01-27T06:38:10Z</time>
      </trkpt>
      <trkpt lat="45.56494" lon="6.72925">
        <ele>963</ele>
        <time>2010-01-27T06:38:19Z</time>
      </trkpt>
      <trkpt lat="45.56489" lon="6.72818">
        <ele>957</ele>
        <time>2010-01-27T06:38:49Z</time>
      </trkpt>
      <trkpt lat="45.56494" lon="6.7275">
        <ele>945</ele>
        <time>2010-01-27T06:39:08Z</time>
      </trkpt>
      <trkpt lat="45.56477" lon="6.72604">
        <ele>937</ele>
        <time>2010-01-27T06:39:50Z</time>
      </trkpt>
      <trkpt lat="45.56464" lon="6.72565">
        <ele>927</ele>
        <time>2010-01-27T06:40:02Z</time>
      </trkpt>
      <trkpt lat="45.56438" lon="6.72518">
        <ele>928</ele>
        <time>2010-01-27T06:40:19Z</time>
      </trkpt>
      <trkpt lat="45.56395" lon="6.72462">
        <ele>937</ele>
        <time>2010-01-27T06:40:42Z</time>
      </trkpt>
      <trkpt lat="45.56361" lon="6.72346">
        <ele>924</ele>
        <time>2010-01-27T06:41:17Z</time>
      </trkpt>
      <trkpt lat="45.56352" lon="6.72256">
        <ele>914</ele>
        <time>2010-01-27T06:41:43Z</time>
      </trkpt>
      <trkpt lat="45.56301" lon="6.7202">
        <ele>909</ele>
        <time>2010-01-27T06:42:52Z</time>
      </trkpt>
      <trkpt lat="45.56301" lon="6.71977">
        <ele>902</ele>
        <time>2010-01-27T06:43:04Z</time>
      </trkpt>
      <trkpt lat="45.56309" lon="6.7193">
        <ele>897</ele>
        <time>2010-01-27T06:43:18Z</time>
      </trkpt>
      <trkpt lat="45.56322" lon="6.71844">
        <ele>886</ele>
        <time>2010-01-27T06:43:43Z</time>
      </trkpt>
      <trkpt lat="45.56322" lon="6.7181">
        <ele>880</ele>
        <time>2010-01-27T06:43:52Z</time>
      </trkpt>
      <trkpt lat="45.56309" lon="6.71784">
        <ele>879</ele>
        <time>2010-01-27T06:44:01Z</time>
      </trkpt>
      <trkpt lat="45.56301" lon="6.71758">
        <ele>878</ele>
        <time>2010-01-27T06:44:09Z</time>
      </trkpt>
      <trkpt lat="45.56219" lon="6.7169">
        <ele>884</ele>
        <time>2010-01-27T06:44:47Z</time>
      </trkpt>
      <trkpt lat="45.56206" lon="6.71672">
        <ele>885</ele>
        <time>2010-01-27T06:44:54Z</time>
      </trkpt>
      <trkpt lat="45.56206" lon="6.71655">
        <ele>879</ele>
        <time>2010-01-27T06:44:59Z</time>
      </trkpt>
      <trkpt lat="45.56219" lon="6.71655">
        <ele>876</ele>
        <time>2010-01-27T06:45:04Z</time>
      </trkpt>
      <trkpt lat="45.56258" lon="6.71694">
        <ele>867</ele>
        <time>2010-01-27T06:45:23Z</time>
      </trkpt>
      <trkpt lat="45.56386" lon="6.71732">
        <ele>848</ele>
        <time>2010-01-27T06:46:16Z</time>
      </trkpt>
      <trkpt lat="45.56417" lon="6.71767">
        <ele>854</ele>
        <time>2010-01-27T06:46:31Z</time>
      </trkpt>
      <trkpt lat="45.56425" lon="6.71797">
        <ele>842</ele>
        <time>2010-01-27T06:46:40Z</time>
      </trkpt>
      <trkpt lat="45.56434" lon="6.71848">
        <ele>847</ele>
        <time>2010-01-27T06:46:55Z</time>
      </trkpt>
      <trkpt lat="45.56477" lon="6.7211">
        <ele>845</ele>
        <time>2010-01-27T06:48:10Z</time>
      </trkpt>
      <trkpt lat="45.56541" lon="6.7223">
        <ele>825</ele>
        <time>2010-01-27T06:48:53Z</time>
      </trkpt>
      <trkpt lat="45.56601" lon="6.72363">
        <ele>813</ele>
        <time>2010-01-27T06:49:37Z</time>
      </trkpt>
      <trkpt lat="45.56614" lon="6.72428">
        <ele>818</ele>
        <time>2010-01-27T06:49:56Z</time>
      </trkpt>
      <trkpt lat="45.56717" lon="6.72771">
        <ele>802</ele>
        <time>2010-01-27T06:51:41Z</time>
      </trkpt>
      <trkpt lat="45.56777" lon="6.72964">
        <ele>780</ele>
        <time>2010-01-27T06:52:40Z</time>
      </trkpt>
      <trkpt lat="45.56854" lon="6.73179">
        <ele>771</ele>
        <time>2010-01-27T06:53:48Z</time>
      </trkpt>
      <trkpt lat="45.56876" lon="6.73213">
        <ele>768</ele>
        <time>2010-01-27T06:54:01Z</time>
      </trkpt>
      <trkpt lat="45.5691" lon="6.73252">
        <ele>762</ele>
        <time>2010-01-27T06:54:18Z</time>
      </trkpt>
      <trkpt lat="45.56944" lon="6.73398">
        <ele>763</ele>
        <time>2010-01-27T06:55:02Z</time>
      </trkpt>
      <trkpt lat="45.57009" lon="6.73582">
        <ele>770</ele>
        <time>2010-01-27T06:56:00Z</time>
      </trkpt>
      <trkpt lat="45.5703" lon="6.73638">
        <ele>773</ele>
        <time>2010-01-27T06:56:17Z</time>
      </trkpt>
      <trkpt lat="45.5703" lon="6.73651">
        <ele>773</ele>
        <time>2010-01-27T06:56:21Z</time>
      </trkpt>
      <trkpt lat="45.57107" lon="6.73861">
        <ele>778</ele>
        <time>2010-01-27T06:57:27Z</time>
      </trkpt>
      <trkpt lat="45.57137" lon="6.73822">
        <ele>775</ele>
        <time>2010-01-27T06:57:44Z</time>
      </trkpt>
      <trkpt lat="45.57198" lon="6.73775">
        <ele>769</ele>
        <time>2010-01-27T06:58:11Z</time>
      </trkpt>
      <trkpt lat="45.57232" lon="6.73754">
        <ele>767</ele>
        <time>2010-01-27T06:58:26Z</time>
      </trkpt>
      <trkpt lat="45.57352" lon="6.73672">
        <ele>755</ele>
        <time>2010-01-27T06:59:20Z</time>
      </trkpt>
      <trkpt lat="45.57511" lon="6.73586">
        <ele>744</ele>
        <time>2010-01-27T07:00:28Z</time>
      </trkpt>
      <trkpt lat="45.57524" lon="6.73582">
        <ele>743</ele>
        <time>2010-01-27T07:00:33Z</time>
      </trkpt>
      <trkpt lat="45.57554" lon="6.73561">
        <ele>741</ele>
        <time>2010-01-27T07:00:46Z</time>
      </trkpt>
      <trkpt lat="45.57571" lon="6.73535">
        <ele>741</ele>
        <time>2010-01-27T07:00:56Z</time>
      </trkpt>
      <trkpt lat="45.57652" lon="6.73385">
        <ele>738</ele>
        <time>2010-01-27T07:01:50Z</time>
      </trkpt>
      <trkpt lat="45.57661" lon="6.73376">
        <ele>738</ele>
        <time>2010-01-27T07:01:54Z</time>
      </trkpt>
      <trkpt lat="45.57678" lon="6.73337">
        <ele>748</ele>
        <time>2010-01-27T07:02:07Z</time>
      </trkpt>
      <trkpt lat="45.57674" lon="6.73316">
        <ele>757</ele>
        <time>2010-01-27T07:02:13Z</time>
      </trkpt>
      <trkpt lat="45.5761" lon="6.73166">
        <ele>756</ele>
        <time>2010-01-27T07:03:02Z</time>
      </trkpt>
      <trkpt lat="45.57562" lon="6.72964">
        <ele>762</ele>
        <time>2010-01-27T07:04:02Z</time>
      </trkpt>
      <trkpt lat="45.57549" lon="6.7293">
        <ele>764</ele>
        <time>2010-01-27T07:04:13Z</time>
      </trkpt>
      <trkpt lat="45.57528" lon="6.72878">
        <ele>775</ele>
        <time>2010-01-27T07:04:30Z</time>
      </trkpt>
      <trkpt lat="45.57472" lon="6.72788">
        <ele>765</ele>
        <time>2010-01-27T07:05:03Z</time>
      </trkpt>
      <trkpt lat="45.57468" lon="6.72775">
        <ele>766</ele>
        <time>2010-01-27T07:05:07Z</time>
      </trkpt>
      <trkpt lat="45.57481" lon="6.7275">
        <ele>779</ele>
        <time>2010-01-27T07:05:16Z</time>
      </trkpt>
      <trkpt lat="45.57527" lon="6.72835">
        <ele>779</ele>
        <time>2010-01-27T07:05:47Z</time>
      </trkpt>
      <trkpt lat="45.57045" lon="6.71739">
        <ele>775</ele>
        <time>2010-01-27T07:11:50Z</time>
      </trkpt>
      <trkpt lat="45.5707" lon="6.7181">
        <ele>767</ele>
        <time>2010-01-27T07:12:12Z</time>
      </trkpt>
      <trkpt lat="45.5713" lon="6.71944">
        <ele>772</ele>
        <time>2010-01-27T07:12:57Z</time>
      </trkpt>
      <trkpt lat="45.57192" lon="6.72066">
        <ele>783</ele>
        <time>2010-01-27T07:13:39Z</time>
      </trkpt>
      <trkpt lat="45.57322" lon="6.72366">
        <ele>763</ele>
        <time>2010-01-27T07:15:18Z</time>
      </trkpt>
      <trkpt lat="45.57363" lon="6.72584">
        <ele>761</ele>
        <time>2010-01-27T07:16:21Z</time>
      </trkpt>
      <trkpt lat="45.57429" lon="6.7268">
        <ele>771</ele>
        <time>2010-01-27T07:16:59Z</time>
      </trkpt>
      <trkpt lat="45.57481" lon="6.72766">
        <ele>770</ele>
        <time>2010-01-27T07:17:31Z</time>
      </trkpt>
      <trkpt lat="45.57531" lon="6.7285">
        <ele>779</ele>
        <time>2010-01-27T07:18:02Z</time>
      </trkpt>
      <trkpt lat="45.57668" lon="6.73108">
        <ele>799</ele>
        <time>2010-01-27T07:19:33Z</time>
      </trkpt>
      <trkpt lat="45.57719" lon="6.73234">
        <ele>790</ele>
        <time>2010-01-27T07:20:14Z</time>
      </trkpt>
      <trkpt lat="45.57737" lon="6.73267">
        <ele>784</ele>
        <time>2010-01-27T07:20:25Z</time>
      </trkpt>
      <trkpt lat="45.57813" lon="6.73367">
        <ele>794</ele>
        <time>2010-01-27T07:21:07Z</time>
      </trkpt>
      <trkpt lat="45.57909" lon="6.7354">
        <ele>799</ele>
        <time>2010-01-27T07:22:09Z</time>
      </trkpt>
      <trkpt lat="45.57957" lon="6.73612">
        <ele>804</ele>
        <time>2010-01-27T07:22:36Z</time>
      </trkpt>
      <trkpt lat="45.58022" lon="6.73676">
        <ele>808</ele>
        <time>2010-01-27T07:23:08Z</time>
      </trkpt>
      <trkpt lat="45.58082" lon="6.73722">
        <ele>811</ele>
        <time>2010-01-27T07:23:36Z</time>
      </trkpt>
      <trkpt lat="45.58093" lon="6.7373">
        <ele>822</ele>
        <time>2010-01-27T07:23:41Z</time>
      </trkpt>
      <trkpt lat="45.58098" lon="6.73735">
        <ele>822</ele>
        <time>2010-01-27T07:23:43Z</time>
      </trkpt>
      <trkpt lat="45.58155" lon="6.73783">
        <ele>818</ele>
        <time>2010-01-27T07:24:09Z</time>
      </trkpt>
      <trkpt lat="45.58177" lon="6.73809">
        <ele>828</ele>
        <time>2010-01-27T07:24:21Z</time>
      </trkpt>
      <trkpt lat="45.58193" lon="6.73828">
        <ele>828</ele>
        <time>2010-01-27T07:24:29Z</time>
      </trkpt>
      <trkpt lat="45.58216" lon="6.73856">
        <ele>823</ele>
        <time>2010-01-27T07:24:41Z</time>
      </trkpt>
      <trkpt lat="45.58284" lon="6.73941">
        <ele>830</ele>
        <time>2010-01-27T07:25:17Z</time>
      </trkpt>
      <trkpt lat="45.58295" lon="6.7396">
        <ele>830</ele>
        <time>2010-01-27T07:25:24Z</time>
      </trkpt>
      <trkpt lat="45.58324" lon="6.74007">
        <ele>825</ele>
        <time>2010-01-27T07:25:42Z</time>
      </trkpt>
      <trkpt lat="45.58346" lon="6.74053">
        <ele>830</ele>
        <time>2010-01-27T07:25:58Z</time>
      </trkpt>
      <trkpt lat="45.58374" lon="6.74132">
        <ele>821</ele>
        <time>2010-01-27T07:26:23Z</time>
      </trkpt>
      <trkpt lat="45.58447" lon="6.74249">
        <ele>821</ele>
        <time>2010-01-27T07:27:06Z</time>
      </trkpt>
      <trkpt lat="45.58575" lon="6.74426">
        <ele>817</ele>
        <time>2010-01-27T07:28:18Z</time>
      </trkpt>
      <trkpt lat="45.58642" lon="6.74518">
        <ele>817</ele>
        <time>2010-01-27T07:28:55Z</time>
      </trkpt>
      <trkpt lat="45.58682" lon="6.74568">
        <ele>820</ele>
        <time>2010-01-27T07:29:16Z</time>
      </trkpt>
      <trkpt lat="45.58739" lon="6.74616">
        <ele>812</ele>
        <time>2010-01-27T07:29:43Z</time>
      </trkpt>
      <trkpt lat="45.588" lon="6.74642">
        <ele>821</ele>
        <time>2010-01-27T07:30:08Z</time>
      </trkpt>
      <trkpt lat="45.58972" lon="6.74663">
        <ele>837</ele>
        <time>2010-01-27T07:31:17Z</time>
      </trkpt>
      <trkpt lat="45.58988" lon="6.74668">
        <ele>825</ele>
        <time>2010-01-27T07:31:24Z</time>
      </trkpt>
      <trkpt lat="45.59015" lon="6.74681">
        <ele>827</ele>
        <time>2010-01-27T07:31:35Z</time>
      </trkpt>
      <trkpt lat="45.59114" lon="6.74747">
        <ele>830</ele>
        <time>2010-01-27T07:32:19Z</time>
      </trkpt>
      <trkpt lat="45.59162" lon="6.74781">
        <ele>813</ele>
        <time>2010-01-27T07:32:41Z</time>
      </trkpt>
      <trkpt lat="45.59357" lon="6.74882">
        <ele>829</ele>
        <time>2010-01-27T07:34:04Z</time>
      </trkpt>
      <trkpt lat="45.59651" lon="6.75059">
        <ele>824</ele>
        <time>2010-01-27T07:36:12Z</time>
      </trkpt>
      <trkpt lat="45.5974" lon="6.75119">
        <ele>817</ele>
        <time>2010-01-27T07:36:51Z</time>
      </trkpt>
      <trkpt lat="45.5978" lon="6.75138">
        <ele>828</ele>
        <time>2010-01-27T07:37:08Z</time>
      </trkpt>
      <trkpt lat="45.59868" lon="6.75162">
        <ele>838</ele>
        <time>2010-01-27T07:37:44Z</time>
      </trkpt>
      <trkpt lat="45.59924" lon="6.75182">
        <ele>827</ele>
        <time>2010-01-27T07:38:07Z</time>
      </trkpt>
      <trkpt lat="45.59972" lon="6.75205">
        <ele>825</ele>
        <time>2010-01-27T07:38:27Z</time>
      </trkpt>
      <trkpt lat="45.6001" lon="6.75223">
        <ele>836</ele>
        <time>2010-01-27T07:38:43Z</time>
      </trkpt>
      <trkpt lat="45.60099" lon="6.75314">
        <ele>831</ele>
        <time>2010-01-27T07:39:27Z</time>
      </trkpt>
      <trkpt lat="45.60208" lon="6.75379">
        <ele>827</ele>
        <time>2010-01-27T07:40:15Z</time>
      </trkpt>
      <trkpt lat="45.60249" lon="6.75417">
        <ele>826</ele>
        <time>2010-01-27T07:40:34Z</time>
      </trkpt>
      <trkpt lat="45.60278" lon="6.75458">
        <ele>833</ele>
        <time>2010-01-27T07:40:51Z</time>
      </trkpt>
      <trkpt lat="45.60329" lon="6.75549">
        <ele>821</ele>
        <time>2010-01-27T07:41:23Z</time>
      </trkpt>
      <trkpt lat="45.60349" lon="6.75571">
        <ele>835</ele>
        <time>2010-01-27T07:41:33Z</time>
      </trkpt>
      <trkpt lat="45.60493" lon="6.75674">
        <ele>831</ele>
        <time>2010-01-27T07:42:38Z</time>
      </trkpt>
      <trkpt lat="45.60557" lon="6.75702">
        <ele>841</ele>
        <time>2010-01-27T07:43:05Z</time>
      </trkpt>
      <trkpt lat="45.60631" lon="6.75784">
        <ele>840</ele>
        <time>2010-01-27T07:43:42Z</time>
      </trkpt>
      <trkpt lat="45.60716" lon="6.75862">
        <ele>846</ele>
        <time>2010-01-27T07:44:23Z</time>
      </trkpt>
      <trkpt lat="45.60846" lon="6.75935">
        <ele>854</ele>
        <time>2010-01-27T07:45:19Z</time>
      </trkpt>
      <trkpt lat="45.60866" lon="6.75953">
        <ele>853</ele>
        <time>2010-01-27T07:45:28Z</time>
      </trkpt>
      <trkpt lat="45.60876" lon="6.75968">
        <ele>852</ele>
        <time>2010-01-27T07:45:34Z</time>
      </trkpt>
      <trkpt lat="45.60928" lon="6.76108">
        <ele>846</ele>
        <time>2010-01-27T07:46:18Z</time>
      </trkpt>
      <trkpt lat="45.60957" lon="6.76192">
        <ele>846</ele>
        <time>2010-01-27T07:46:45Z</time>
      </trkpt>
      <trkpt lat="45.61043" lon="6.76368">
        <ele>850</ele>
        <time>2010-01-27T07:47:45Z</time>
      </trkpt>
      <trkpt lat="45.61115" lon="6.76487">
        <ele>852</ele>
        <time>2010-01-27T07:48:29Z</time>
      </trkpt>
      <trkpt lat="45.61129" lon="6.76501">
        <ele>850</ele>
        <time>2010-01-27T07:48:36Z</time>
      </trkpt>
      <trkpt lat="45.61181" lon="6.76526">
        <ele>852</ele>
        <time>2010-01-27T07:48:58Z</time>
      </trkpt>
      <trkpt lat="45.61309" lon="6.76575">
        <ele>852</ele>
        <time>2010-01-27T07:49:51Z</time>
      </trkpt>
      <trkpt lat="45.61369" lon="6.76609">
        <ele>849</ele>
        <time>2010-01-27T07:50:17Z</time>
      </trkpt>
      <trkpt lat="45.61366" lon="6.7662">
        <ele>848</ele>
        <time>2010-01-27T07:50:20Z</time>
      </trkpt>
      <trkpt lat="45.6137" lon="6.76632">
        <ele>848</ele>
        <time>2010-01-27T07:50:24Z</time>
      </trkpt>
      <trkpt lat="45.61378" lon="6.76636">
        <ele>848</ele>
        <time>2010-01-27T07:50:27Z</time>
      </trkpt>
      <trkpt lat="45.61384" lon="6.76631">
        <ele>848</ele>
        <time>2010-01-27T07:50:30Z</time>
      </trkpt>
      <trkpt lat="45.61403" lon="6.7666">
        <ele>846</ele>
        <time>2010-01-27T07:50:41Z</time>
      </trkpt>
      <trkpt lat="45.61458" lon="6.76749">
        <ele>841</ele>
        <time>2010-01-27T07:51:14Z</time>
      </trkpt>
      <trkpt lat="45.61511" lon="6.76857">
        <ele>833</ele>
        <time>2010-01-27T07:51:51Z</time>
      </trkpt>
      <trkpt lat="45.61532" lon="6.76926">
        <ele>830</ele>
        <time>2010-01-27T07:52:13Z</time>
      </trkpt>
      <trkpt lat="45.6154" lon="6.76916">
        <ele>832</ele>
        <time>2010-01-27T07:52:17Z</time>
      </trkpt>
      <trkpt lat="45.61587" lon="6.76973">
        <ele>827</ele>
        <time>2010-01-27T07:52:42Z</time>
      </trkpt>
      <trkpt lat="45.61612" lon="6.76994">
        <ele>827</ele>
        <time>2010-01-27T07:52:53Z</time>
      </trkpt>
      <trkpt lat="45.61671" lon="6.77028">
        <ele>822</ele>
        <time>2010-01-27T07:53:19Z</time>
      </trkpt>
      <trkpt lat="45.61784" lon="6.77074">
        <ele>818</ele>
        <time>2010-01-27T07:54:06Z</time>
      </trkpt>
      <trkpt lat="45.61844" lon="6.77085">
        <ele>817</ele>
        <time>2010-01-27T07:54:30Z</time>
      </trkpt>
      <trkpt lat="45.61973" lon="6.77092">
        <ele>815</ele>
        <time>2010-01-27T07:55:22Z</time>
      </trkpt>
      <trkpt lat="45.62027" lon="6.77095">
        <ele>815</ele>
        <time>2010-01-27T07:55:43Z</time>
      </trkpt>
      <trkpt lat="45.62037" lon="6.77087">
        <ele>815</ele>
        <time>2010-01-27T07:55:48Z</time>
      </trkpt>
      <trkpt lat="45.62045" lon="6.77095">
        <ele>815</ele>
        <time>2010-01-27T07:55:52Z</time>
      </trkpt>
      <trkpt lat="45.62066" lon="6.77084">
        <ele>815</ele>
        <time>2010-01-27T07:56:01Z</time>
      </trkpt>
      <trkpt lat="45.62175" lon="6.77076">
        <ele>818</ele>
        <time>2010-01-27T07:56:45Z</time>
      </trkpt>
      <trkpt lat="45.62248" lon="6.77092">
        <ele>820</ele>
        <time>2010-01-27T07:57:14Z</time>
      </trkpt>
      <trkpt lat="45.6228" lon="6.77109">
        <ele>824</ele>
        <time>2010-01-27T07:57:28Z</time>
      </trkpt>
      <trkpt lat="45.6232" lon="6.77144">
        <ele>827</ele>
        <time>2010-01-27T07:57:47Z</time>
      </trkpt>
      <trkpt lat="45.62342" lon="6.77176">
        <ele>835</ele>
        <time>2010-01-27T07:57:59Z</time>
      </trkpt>
      <trkpt lat="45.6236" lon="6.77207">
        <ele>839</ele>
        <time>2010-01-27T07:58:11Z</time>
      </trkpt>
      <trkpt lat="45.62376" lon="6.7723">
        <ele>841</ele>
        <time>2010-01-27T07:58:20Z</time>
      </trkpt>
      <trkpt lat="45.62399" lon="6.7729">
        <ele>834</ele>
        <time>2010-01-27T07:58:39Z</time>
      </trkpt>
      <trkpt lat="45.62421" lon="6.77357">
        <ele>847</ele>
        <time>2010-01-27T07:59:00Z</time>
      </trkpt>
      <trkpt lat="45.62454" lon="6.77428">
        <ele>844</ele>
        <time>2010-01-27T07:59:23Z</time>
      </trkpt>
      <trkpt lat="45.62492" lon="6.77542">
        <ele>844</ele>
        <time>2010-01-27T07:59:59Z</time>
      </trkpt>
      <trkpt lat="45.62496" lon="6.77582">
        <ele>853</ele>
        <time>2010-01-27T08:00:10Z</time>
      </trkpt>
      <trkpt lat="45.62485" lon="6.77655">
        <ele>844</ele>
        <time>2010-01-27T08:00:31Z</time>
      </trkpt>
      <trkpt lat="45.62507" lon="6.77739">
        <ele>858</ele>
        <time>2010-01-27T08:00:56Z</time>
      </trkpt>
      <trkpt lat="45.62515" lon="6.77756">
        <ele>855</ele>
        <time>2010-01-27T08:01:02Z</time>
      </trkpt>
      <trkpt lat="45.6253" lon="6.77772">
        <ele>858</ele>
        <time>2010-01-27T08:01:09Z</time>
      </trkpt>
      <trkpt lat="45.62563" lon="6.77775">
        <ele>865</ele>
        <time>2010-01-27T08:01:23Z</time>
      </trkpt>
      <trkpt lat="45.62588" lon="6.7777">
        <ele>886</ele>
        <time>2010-01-27T08:01:33Z</time>
      </trkpt>
      <trkpt lat="45.62605" lon="6.7777">
        <ele>888</ele>
        <time>2010-01-27T08:01:40Z</time>
      </trkpt>
      <trkpt lat="45.62614" lon="6.77782">
        <ele>890</ele>
        <time>2010-01-27T08:01:45Z</time>
      </trkpt>
      <trkpt lat="45.62614" lon="6.77803">
        <ele>888</ele>
        <time>2010-01-27T08:01:51Z</time>
      </trkpt>
      <trkpt lat="45.62602" lon="6.77854">
        <ele>877</ele>
        <time>2010-01-27T08:02:06Z</time>
      </trkpt>
      <trkpt lat="45.62604" lon="6.77902">
        <ele>875</ele>
        <time>2010-01-27T08:02:19Z</time>
      </trkpt>
      <trkpt lat="45.62613" lon="6.77922">
        <ele>871</ele>
        <time>2010-01-27T08:02:26Z</time>
      </trkpt>
      <trkpt lat="45.62631" lon="6.77948">
        <ele>874</ele>
        <time>2010-01-27T08:02:36Z</time>
      </trkpt>
      <trkpt lat="45.62653" lon="6.7798">
        <ele>876</ele>
        <time>2010-01-27T08:02:48Z</time>
      </trkpt>
      <trkpt lat="45.62688" lon="6.7808">
        <ele>889</ele>
        <time>2010-01-27T08:03:20Z</time>
      </trkpt>
      <trkpt lat="45.62745" lon="6.78192">
        <ele>893</ele>
        <time>2010-01-27T08:03:59Z</time>
      </trkpt>
      <trkpt lat="45.62771" lon="6.78355">
        <ele>905</ele>
        <time>2010-01-27T08:04:45Z</time>
      </trkpt>
      <trkpt lat="45.62787" lon="6.78389">
        <ele>906</ele>
        <time>2010-01-27T08:04:57Z</time>
      </trkpt>
      <trkpt lat="45.6281" lon="6.78412">
        <ele>910</ele>
        <time>2010-01-27T08:05:08Z</time>
      </trkpt>
      <trkpt lat="45.6284" lon="6.78475">
        <ele>912</ele>
        <time>2010-01-27T08:05:30Z</time>
      </trkpt>
      <trkpt lat="45.62869" lon="6.78512">
        <ele>903</ele>
        <time>2010-01-27T08:05:45Z</time>
      </trkpt>
      <trkpt lat="45.62891" lon="6.78527">
        <ele>905</ele>
        <time>2010-01-27T08:05:55Z</time>
      </trkpt>
      <trkpt lat="45.62923" lon="6.78531">
        <ele>919</ele>
        <time>2010-01-27T08:06:08Z</time>
      </trkpt>
      <trkpt lat="45.62964" lon="6.78549">
        <ele>919</ele>
        <time>2010-01-27T08:06:25Z</time>
      </trkpt>
      <trkpt lat="45.62985" lon="6.78551">
        <ele>921</ele>
        <time>2010-01-27T08:06:33Z</time>
      </trkpt>
      <trkpt lat="45.62981" lon="6.7853">
        <ele>923</ele>
        <time>2010-01-27T08:06:40Z</time>
      </trkpt>
      <trkpt lat="45.62912" lon="6.78478">
        <ele>921</ele>
        <time>2010-01-27T08:07:11Z</time>
      </trkpt>
      <trkpt lat="45.62883" lon="6.78446">
        <ele>921</ele>
        <time>2010-01-27T08:07:26Z</time>
      </trkpt>
      <trkpt lat="45.62872" lon="6.78417">
        <ele>921</ele>
        <time>2010-01-27T08:07:35Z</time>
      </trkpt>
      <trkpt lat="45.62867" lon="6.78371">
        <ele>930</ele>
        <time>2010-01-27T08:07:48Z</time>
      </trkpt>
      <trkpt lat="45.6287" lon="6.78329">
        <ele>937</ele>
        <time>2010-01-27T08:08:00Z</time>
      </trkpt>
      <trkpt lat="45.62885" lon="6.78305">
        <ele>939</ele>
        <time>2010-01-27T08:08:09Z</time>
      </trkpt>
      <trkpt lat="45.62899" lon="6.78297">
        <ele>941</ele>
        <time>2010-01-27T08:08:15Z</time>
      </trkpt>
      <trkpt lat="45.62916" lon="6.78303">
        <ele>941</ele>
        <time>2010-01-27T08:08:22Z</time>
      </trkpt>
      <trkpt lat="45.63019" lon="6.78384">
        <ele>953</ele>
        <time>2010-01-27T08:09:09Z</time>
      </trkpt>
      <trkpt lat="45.63051" lon="6.78397">
        <ele>954</ele>
        <time>2010-01-27T08:09:22Z</time>
      </trkpt>
      <trkpt lat="45.63096" lon="6.78409">
        <ele>959</ele>
        <time>2010-01-27T08:09:41Z</time>
      </trkpt>
      <trkpt lat="45.63132" lon="6.78408">
        <ele>962</ele>
        <time>2010-01-27T08:09:55Z</time>
      </trkpt>
      <trkpt lat="45.63231" lon="6.78418">
        <ele>961</ele>
        <time>2010-01-27T08:10:35Z</time>
      </trkpt>
      <trkpt lat="45.63298" lon="6.78476">
        <ele>965</ele>
        <time>2010-01-27T08:11:06Z</time>
      </trkpt>
      <trkpt lat="45.63349" lon="6.785">
        <ele>962</ele>
        <time>2010-01-27T08:11:28Z</time>
      </trkpt>
      <trkpt lat="45.63383" lon="6.78525">
        <ele>962</ele>
        <time>2010-01-27T08:11:43Z</time>
      </trkpt>
      <trkpt lat="45.63416" lon="6.78534">
        <ele>964</ele>
        <time>2010-01-27T08:11:56Z</time>
      </trkpt>
      <trkpt lat="45.63532" lon="6.78538">
        <ele>970</ele>
        <time>2010-01-27T08:12:43Z</time>
      </trkpt>
      <trkpt lat="45.6355" lon="6.78537">
        <ele>970</ele>
        <time>2010-01-27T08:12:50Z</time>
      </trkpt>
      <trkpt lat="45.63555" lon="6.78536">
        <ele>970</ele>
        <time>2010-01-27T08:12:52Z</time>
      </trkpt>
      <trkpt lat="45.6364" lon="6.78518">
        <ele>970</ele>
        <time>2010-01-27T08:13:27Z</time>
      </trkpt>
      <trkpt lat="45.63707" lon="6.78461">
        <ele>994</ele>
        <time>2010-01-27T08:13:58Z</time>
      </trkpt>
      <trkpt lat="45.63734" lon="6.78448">
        <ele>996</ele>
        <time>2010-01-27T08:14:09Z</time>
      </trkpt>
      <trkpt lat="45.63771" lon="6.78442">
        <ele>990</ele>
        <time>2010-01-27T08:14:24Z</time>
      </trkpt>
      <trkpt lat="45.63826" lon="6.78451">
        <ele>984</ele>
        <time>2010-01-27T08:14:46Z</time>
      </trkpt>
      <trkpt lat="45.63868" lon="6.78435">
        <ele>987</ele>
        <time>2010-01-27T08:15:04Z</time>
      </trkpt>
      <trkpt lat="45.63895" lon="6.78436">
        <ele>989</ele>
        <time>2010-01-27T08:15:15Z</time>
      </trkpt>
      <trkpt lat="45.63959" lon="6.78483">
        <ele>988</ele>
        <time>2010-01-27T08:15:44Z</time>
      </trkpt>
      <trkpt lat="45.64018" lon="6.78492">
        <ele>1000</ele>
        <time>2010-01-27T08:16:07Z</time>
      </trkpt>
      <trkpt lat="45.64064" lon="6.7851">
        <ele>990</ele>
        <time>2010-01-27T08:16:26Z</time>
      </trkpt>
      <trkpt lat="45.64175" lon="6.7861">
        <ele>992</ele>
        <time>2010-01-27T08:17:19Z</time>
      </trkpt>
      <trkpt lat="45.64187" lon="6.78615">
        <ele>993</ele>
        <time>2010-01-27T08:17:24Z</time>
      </trkpt>
      <trkpt lat="45.64213" lon="6.78619">
        <ele>997</ele>
        <time>2010-01-27T08:17:34Z</time>
      </trkpt>
      <trkpt lat="45.64406" lon="6.7859">
        <ele>1022</ele>
        <time>2010-01-27T08:18:52Z</time>
      </trkpt>
      <trkpt lat="45.64504" lon="6.78584">
        <ele>1026</ele>
        <time>2010-01-27T08:19:31Z</time>
      </trkpt>
      <trkpt lat="45.64557" lon="6.78587">
        <ele>1010</ele>
        <time>2010-01-27T08:19:53Z</time>
      </trkpt>
      <trkpt lat="45.64627" lon="6.78611">
        <ele>1005</ele>
        <time>2010-01-27T08:20:21Z</time>
      </trkpt>
      <trkpt lat="45.64735" lon="6.78617">
        <ele>1012</ele>
        <time>2010-01-27T08:21:05Z</time>
      </trkpt>
      <trkpt lat="45.64776" lon="6.78632">
        <ele>1015</ele>
        <time>2010-01-27T08:21:22Z</time>
      </trkpt>
      <trkpt lat="45.64797" lon="6.78646">
        <ele>1015</ele>
        <time>2010-01-27T08:21:31Z</time>
      </trkpt>
      <trkpt lat="45.64928" lon="6.78754">
        <ele>1018</ele>
        <time>2010-01-27T08:22:32Z</time>
      </trkpt>
      <trkpt lat="45.64962" lon="6.78775">
        <ele>1028</ele>
        <time>2010-01-27T08:22:47Z</time>
      </trkpt>
      <trkpt lat="45.65031" lon="6.78792">
        <ele>1036</ele>
        <time>2010-01-27T08:23:15Z</time>
      </trkpt>
      <trkpt lat="45.65064" lon="6.7879">
        <ele>1038</ele>
        <time>2010-01-27T08:23:28Z</time>
      </trkpt>
      <trkpt lat="45.65119" lon="6.78776">
        <ele>1049</ele>
        <time>2010-01-27T08:23:50Z</time>
      </trkpt>
      <trkpt lat="45.65136" lon="6.78769">
        <ele>1051</ele>
        <time>2010-01-27T08:23:57Z</time>
      </trkpt>
      <trkpt lat="45.6521" lon="6.78706">
        <ele>1061</ele>
        <time>2010-01-27T08:24:32Z</time>
      </trkpt>
      <trkpt lat="45.65235" lon="6.78699">
        <ele>1060</ele>
        <time>2010-01-27T08:24:42Z</time>
      </trkpt>
      <trkpt lat="45.65304" lon="6.78705">
        <ele>1064</ele>
        <time>2010-01-27T08:25:10Z</time>
      </trkpt>
      <trkpt lat="45.65335" lon="6.78698">
        <ele>1071</ele>
        <time>2010-01-27T08:25:22Z</time>
      </trkpt>
      <trkpt lat="45.6538" lon="6.78669">
        <ele>1072</ele>
        <time>2010-01-27T08:25:42Z</time>
      </trkpt>
      <trkpt lat="45.65447" lon="6.78602">
        <ele>1080</ele>
        <time>2010-01-27T08:26:15Z</time>
      </trkpt>
      <trkpt lat="45.65461" lon="6.78587">
        <ele>1080</ele>
        <time>2010-01-27T08:26:22Z</time>
      </trkpt>
      <trkpt lat="45.65678" lon="6.78369">
        <ele>1104</ele>
        <time>2010-01-27T08:28:08Z</time>
      </trkpt>
      <trkpt lat="45.65736" lon="6.78329">
        <ele>1103</ele>
        <time>2010-01-27T08:28:34Z</time>
      </trkpt>
      <trkpt lat="45.65773" lon="6.78312">
        <ele>1109</ele>
        <time>2010-01-27T08:28:50Z</time>
      </trkpt>
      <trkpt lat="45.65791" lon="6.78306">
        <ele>1111</ele>
        <time>2010-01-27T08:28:57Z</time>
      </trkpt>
      <trkpt lat="45.65857" lon="6.7828">
        <ele>1127</ele>
        <time>2010-01-27T08:29:24Z</time>
      </trkpt>
      <trkpt lat="45.65903" lon="6.78215">
        <ele>1122</ele>
        <time>2010-01-27T08:29:50Z</time>
      </trkpt>
      <trkpt lat="45.65927" lon="6.7819">
        <ele>1129</ele>
        <time>2010-01-27T08:30:02Z</time>
      </trkpt>
      <trkpt lat="45.65955" lon="6.78181">
        <ele>1132</ele>
        <time>2010-01-27T08:30:14Z</time>
      </trkpt>
      <trkpt lat="45.6602" lon="6.78176">
        <ele>1147</ele>
        <time>2010-01-27T08:30:40Z</time>
      </trkpt>
      <trkpt lat="45.6605" lon="6.7814">
        <ele>1142</ele>
        <time>2010-01-27T08:30:55Z</time>
      </trkpt>
      <trkpt lat="45.66072" lon="6.78096">
        <ele>1141</ele>
        <time>2010-01-27T08:31:11Z</time>
      </trkpt>
      <trkpt lat="45.66084" lon="6.78076">
        <ele>1141</ele>
        <time>2010-01-27T08:31:18Z</time>
      </trkpt>
      <trkpt lat="45.66109" lon="6.78051">
        <ele>1146</ele>
        <time>2010-01-27T08:31:30Z</time>
      </trkpt>
      <trkpt lat="45.66191" lon="6.77993">
        <ele>1151</ele>
        <time>2010-01-27T08:32:07Z</time>
      </trkpt>
      <trkpt lat="45.66226" lon="6.77938">
        <ele>1154</ele>
        <time>2010-01-27T08:32:28Z</time>
      </trkpt>
      <trkpt lat="45.66243" lon="6.77932">
        <ele>1153</ele>
        <time>2010-01-27T08:32:35Z</time>
      </trkpt>
      <trkpt lat="45.66291" lon="6.77938">
        <ele>1169</ele>
        <time>2010-01-27T08:32:54Z</time>
      </trkpt>
      <trkpt lat="45.66302" lon="6.77932">
        <ele>1170</ele>
        <time>2010-01-27T08:32:59Z</time>
      </trkpt>
      <trkpt lat="45.66372" lon="6.77824">
        <ele>1166</ele>
        <time>2010-01-27T08:33:40Z</time>
      </trkpt>
      <trkpt lat="45.66446" lon="6.77766">
        <ele>1174</ele>
        <time>2010-01-27T08:34:14Z</time>
      </trkpt>
      <trkpt lat="45.66484" lon="6.77716">
        <ele>1173</ele>
        <time>2010-01-27T08:34:35Z</time>
      </trkpt>
      <trkpt lat="45.66524" lon="6.77587">
        <ele>1176</ele>
        <time>2010-01-27T08:35:14Z</time>
      </trkpt>
      <trkpt lat="45.6653" lon="6.77576">
        <ele>1175</ele>
        <time>2010-01-27T08:35:18Z</time>
      </trkpt>
      <trkpt lat="45.66556" lon="6.77523">
        <ele>1178</ele>
        <time>2010-01-27T08:35:36Z</time>
      </trkpt>
      <trkpt lat="45.66567" lon="6.77503">
        <ele>1179</ele>
        <time>2010-01-27T08:35:43Z</time>
      </trkpt>
      <trkpt lat="45.66588" lon="6.7746">
        <ele>1191</ele>
        <time>2010-01-27T08:35:58Z</time>
      </trkpt>
      <trkpt lat="45.66598" lon="6.77452">
        <ele>1192</ele>
        <time>2010-01-27T08:36:03Z</time>
      </trkpt>
      <trkpt lat="45.66608" lon="6.77454">
        <ele>1194</ele>
        <time>2010-01-27T08:36:06Z</time>
      </trkpt>
      <trkpt lat="45.66615" lon="6.77484">
        <ele>1194</ele>
        <time>2010-01-27T08:36:15Z</time>
      </trkpt>
      <trkpt lat="45.666" lon="6.77529">
        <ele>1193</ele>
        <time>2010-01-27T08:36:30Z</time>
      </trkpt>
      <trkpt lat="45.66601" lon="6.77545">
        <ele>1195</ele>
        <time>2010-01-27T08:36:34Z</time>
      </trkpt>
      <trkpt lat="45.66629" lon="6.77575">
        <ele>1200</ele>
        <time>2010-01-27T08:36:48Z</time>
      </trkpt>
      <trkpt lat="45.66636" lon="6.77623">
        <ele>1208</ele>
        <time>2010-01-27T08:37:02Z</time>
      </trkpt>
      <trkpt lat="45.66651" lon="6.77622">
        <ele>1210</ele>
        <time>2010-01-27T08:37:08Z</time>
      </trkpt>
      <trkpt lat="45.66659" lon="6.77603">
        <ele>1210</ele>
        <time>2010-01-27T08:37:14Z</time>
      </trkpt>
      <trkpt lat="45.66668" lon="6.77543">
        <ele>1222</ele>
        <time>2010-01-27T08:37:31Z</time>
      </trkpt>
      <trkpt lat="45.66697" lon="6.77476">
        <ele>1222</ele>
        <time>2010-01-27T08:37:53Z</time>
      </trkpt>
      <trkpt lat="45.66698" lon="6.77432">
        <ele>1222</ele>
        <time>2010-01-27T08:38:06Z</time>
      </trkpt>
      <trkpt lat="45.6667" lon="6.77365">
        <ele>1219</ele>
        <time>2010-01-27T08:38:28Z</time>
      </trkpt>
      <trkpt lat="45.66673" lon="6.77333">
        <ele>1213</ele>
        <time>2010-01-27T08:38:37Z</time>
      </trkpt>
      <trkpt lat="45.66686" lon="6.773">
        <ele>1224</ele>
        <time>2010-01-27T08:38:47Z</time>
      </trkpt>
      <trkpt lat="45.66697" lon="6.7725">
        <ele>1227</ele>
        <time>2010-01-27T08:39:02Z</time>
      </trkpt>
      <trkpt lat="45.66702" lon="6.77247">
        <ele>1229</ele>
        <time>2010-01-27T08:39:04Z</time>
      </trkpt>
      <trkpt lat="45.6671" lon="6.77254">
        <ele>1230</ele>
        <time>2010-01-27T08:39:08Z</time>
      </trkpt>
      <trkpt lat="45.6671" lon="6.77304">
        <ele>1229</ele>
        <time>2010-01-27T08:39:22Z</time>
      </trkpt>
      <trkpt lat="45.66728" lon="6.77347">
        <ele>1232</ele>
        <time>2010-01-27T08:39:36Z</time>
      </trkpt>
      <trkpt lat="45.66721" lon="6.77393">
        <ele>1228</ele>
        <time>2010-01-27T08:39:49Z</time>
      </trkpt>
      <trkpt lat="45.66746" lon="6.7744">
        <ele>1231</ele>
        <time>2010-01-27T08:40:06Z</time>
      </trkpt>
      <trkpt lat="45.66767" lon="6.77502">
        <ele>1253</ele>
        <time>2010-01-27T08:40:25Z</time>
      </trkpt>
      <trkpt lat="45.6678" lon="6.775">
        <ele>1260</ele>
        <time>2010-01-27T08:40:30Z</time>
      </trkpt>
      <trkpt lat="45.66781" lon="6.77482">
        <ele>1257</ele>
        <time>2010-01-27T08:40:35Z</time>
      </trkpt>
      <trkpt lat="45.66767" lon="6.77421">
        <ele>1250</ele>
        <time>2010-01-27T08:40:53Z</time>
      </trkpt>
      <trkpt lat="45.66761" lon="6.77338">
        <ele>1252</ele>
        <time>2010-01-27T08:41:16Z</time>
      </trkpt>
      <trkpt lat="45.66747" lon="6.77279">
        <ele>1237</ele>
        <time>2010-01-27T08:41:34Z</time>
      </trkpt>
      <trkpt lat="45.66751" lon="6.77259">
        <ele>1255</ele>
        <time>2010-01-27T08:41:40Z</time>
      </trkpt>
      <trkpt lat="45.66792" lon="6.77252">
        <ele>1269</ele>
        <time>2010-01-27T08:41:56Z</time>
      </trkpt>
      <trkpt lat="45.66801" lon="6.77198">
        <ele>1268</ele>
        <time>2010-01-27T08:42:12Z</time>
      </trkpt>
      <trkpt lat="45.66805" lon="6.77192">
        <ele>1269</ele>
        <time>2010-01-27T08:42:14Z</time>
      </trkpt>
      <trkpt lat="45.66812" lon="6.77192">
        <ele>1270</ele>
        <time>2010-01-27T08:42:17Z</time>
      </trkpt>
      <trkpt lat="45.66819" lon="6.7721">
        <ele>1272</ele>
        <time>2010-01-27T08:42:23Z</time>
      </trkpt>
      <trkpt lat="45.66817" lon="6.77246">
        <ele>1279</ele>
        <time>2010-01-27T08:42:33Z</time>
      </trkpt>
      <trkpt lat="45.66809" lon="6.77266">
        <ele>1275</ele>
        <time>2010-01-27T08:42:39Z</time>
      </trkpt>
      <trkpt lat="45.6679" lon="6.77288">
        <ele>1268</ele>
        <time>2010-01-27T08:42:49Z</time>
      </trkpt>
      <trkpt lat="45.66788" lon="6.77307">
        <ele>1267</ele>
        <time>2010-01-27T08:42:54Z</time>
      </trkpt>
      <trkpt lat="45.66816" lon="6.77363">
        <ele>1269</ele>
        <time>2010-01-27T08:43:14Z</time>
      </trkpt>
      <trkpt lat="45.66816" lon="6.77427">
        <ele>1270</ele>
        <time>2010-01-27T08:43:32Z</time>
      </trkpt>
      <trkpt lat="45.66821" lon="6.77444">
        <ele>1268</ele>
        <time>2010-01-27T08:43:37Z</time>
      </trkpt>
      <trkpt lat="45.6685" lon="6.77495">
        <ele>1295</ele>
        <time>2010-01-27T08:43:55Z</time>
      </trkpt>
      <trkpt lat="45.6684" lon="6.77552">
        <ele>1306</ele>
        <time>2010-01-27T08:44:12Z</time>
      </trkpt>
      <trkpt lat="45.66842" lon="6.77557">
        <ele>1306</ele>
        <time>2010-01-27T08:44:13Z</time>
      </trkpt>
      <trkpt lat="45.66852" lon="6.77558">
        <ele>1308</ele>
        <time>2010-01-27T08:44:17Z</time>
      </trkpt>
      <trkpt lat="45.66881" lon="6.77488">
        <ele>1309</ele>
        <time>2010-01-27T08:44:40Z</time>
      </trkpt>
      <trkpt lat="45.66879" lon="6.77471">
        <ele>1308</ele>
        <time>2010-01-27T08:44:45Z</time>
      </trkpt>
      <trkpt lat="45.66861" lon="6.77453">
        <ele>1302</ele>
        <time>2010-01-27T08:44:54Z</time>
      </trkpt>
      <trkpt lat="45.66866" lon="6.77391">
        <ele>1304</ele>
        <time>2010-01-27T08:45:11Z</time>
      </trkpt>
      <trkpt lat="45.66861" lon="6.7733">
        <ele>1304</ele>
        <time>2010-01-27T08:45:28Z</time>
      </trkpt>
      <trkpt lat="45.6687" lon="6.77278">
        <ele>1310</ele>
        <time>2010-01-27T08:45:44Z</time>
      </trkpt>
      <trkpt lat="45.66873" lon="6.7722">
        <ele>1309</ele>
        <time>2010-01-27T08:46:00Z</time>
      </trkpt>
      <trkpt lat="45.66881" lon="6.77212">
        <ele>1311</ele>
        <time>2010-01-27T08:46:04Z</time>
      </trkpt>
      <trkpt lat="45.66889" lon="6.77219">
        <ele>1313</ele>
        <time>2010-01-27T08:46:07Z</time>
      </trkpt>
      <trkpt lat="45.66891" lon="6.7723">
        <ele>1315</ele>
        <time>2010-01-27T08:46:11Z</time>
      </trkpt>
      <trkpt lat="45.6689" lon="6.77334">
        <ele>1314</ele>
        <time>2010-01-27T08:46:40Z</time>
      </trkpt>
      <trkpt lat="45.66911" lon="6.77432">
        <ele>1319</ele>
        <time>2010-01-27T08:47:09Z</time>
      </trkpt>
      <trkpt lat="45.66925" lon="6.77432">
        <ele>1341</ele>
        <time>2010-01-27T08:47:14Z</time>
      </trkpt>
      <trkpt lat="45.66929" lon="6.77409">
        <ele>1340</ele>
        <time>2010-01-27T08:47:21Z</time>
      </trkpt>
      <trkpt lat="45.66921" lon="6.77338">
        <ele>1336</ele>
        <time>2010-01-27T08:47:41Z</time>
      </trkpt>
      <trkpt lat="45.66922" lon="6.77291">
        <ele>1345</ele>
        <time>2010-01-27T08:47:54Z</time>
      </trkpt>
      <trkpt lat="45.66942" lon="6.77234">
        <ele>1347</ele>
        <time>2010-01-27T08:48:12Z</time>
      </trkpt>
      <trkpt lat="45.66946" lon="6.77209">
        <ele>1348</ele>
        <time>2010-01-27T08:48:19Z</time>
      </trkpt>
      <trkpt lat="45.66957" lon="6.7719">
        <ele>1350</ele>
        <time>2010-01-27T08:48:26Z</time>
      </trkpt>
      <trkpt lat="45.66966" lon="6.77193">
        <ele>1353</ele>
        <time>2010-01-27T08:48:30Z</time>
      </trkpt>
      <trkpt lat="45.66967" lon="6.77204">
        <ele>1353</ele>
        <time>2010-01-27T08:48:33Z</time>
      </trkpt>
      <trkpt lat="45.66957" lon="6.77272">
        <ele>1352</ele>
        <time>2010-01-27T08:48:52Z</time>
      </trkpt>
      <trkpt lat="45.66971" lon="6.77376">
        <ele>1355</ele>
        <time>2010-01-27T08:49:22Z</time>
      </trkpt>
      <trkpt lat="45.6697" lon="6.77418">
        <ele>1358</ele>
        <time>2010-01-27T08:49:34Z</time>
      </trkpt>
      <trkpt lat="45.66965" lon="6.77444">
        <ele>1355</ele>
        <time>2010-01-27T08:49:41Z</time>
      </trkpt>
      <trkpt lat="45.66968" lon="6.77457">
        <ele>1356</ele>
        <time>2010-01-27T08:49:45Z</time>
      </trkpt>
      <trkpt lat="45.66974" lon="6.77455">
        <ele>1357</ele>
        <time>2010-01-27T08:49:48Z</time>
      </trkpt>
      <trkpt lat="45.66997" lon="6.77379">
        <ele>1360</ele>
        <time>2010-01-27T08:50:11Z</time>
      </trkpt>
      <trkpt lat="45.67001" lon="6.77355">
        <ele>1384</ele>
        <time>2010-01-27T08:50:18Z</time>
      </trkpt>
      <trkpt lat="45.67002" lon="6.77201">
        <ele>1385</ele>
        <time>2010-01-27T08:51:01Z</time>
      </trkpt>
      <trkpt lat="45.67028" lon="6.77118">
        <ele>1396</ele>
        <time>2010-01-27T08:51:26Z</time>
      </trkpt>
      <trkpt lat="45.67008" lon="6.77083">
        <ele>1383</ele>
        <time>2010-01-27T08:51:39Z</time>
      </trkpt>
      <trkpt lat="45.67008" lon="6.7706">
        <ele>1392</ele>
        <time>2010-01-27T08:51:45Z</time>
      </trkpt>
      <trkpt lat="45.67072" lon="6.76934">
        <ele>1407</ele>
        <time>2010-01-27T08:52:29Z</time>
      </trkpt>
      <trkpt lat="45.67095" lon="6.76829">
        <ele>1422</ele>
        <time>2010-01-27T08:53:00Z</time>
      </trkpt>
      <trkpt lat="45.67098" lon="6.76803">
        <ele>1429</ele>
        <time>2010-01-27T08:53:07Z</time>
      </trkpt>
      <trkpt lat="45.67095" lon="6.76711">
        <ele>1430</ele>
        <time>2010-01-27T08:53:33Z</time>
      </trkpt>
      <trkpt lat="45.67103" lon="6.76581">
        <ele>1429</ele>
        <time>2010-01-27T08:54:09Z</time>
      </trkpt>
      <trkpt lat="45.67117" lon="6.76512">
        <ele>1435</ele>
        <time>2010-01-27T08:54:30Z</time>
      </trkpt>
      <trkpt lat="45.67099" lon="6.76388">
        <ele>1433</ele>
        <time>2010-01-27T08:55:05Z</time>
      </trkpt>
      <trkpt lat="45.67121" lon="6.76295">
        <ele>1441</ele>
        <time>2010-01-27T08:55:33Z</time>
      </trkpt>
      <trkpt lat="45.67122" lon="6.76158">
        <ele>1452</ele>
        <time>2010-01-27T08:56:11Z</time>
      </trkpt>
      <trkpt lat="45.67113" lon="6.76089">
        <ele>1452</ele>
        <time>2010-01-27T08:56:30Z</time>
      </trkpt>
      <trkpt lat="45.67097" lon="6.76024">
        <ele>1462</ele>
        <time>2010-01-27T08:56:50Z</time>
      </trkpt>
      <trkpt lat="45.67089" lon="6.76007">
        <ele>1458</ele>
        <time>2010-01-27T08:56:56Z</time>
      </trkpt>
      <trkpt lat="45.67039" lon="6.75952">
        <ele>1442</ele>
        <time>2010-01-27T08:57:21Z</time>
      </trkpt>
      <trkpt lat="45.67038" lon="6.75936">
        <ele>1443</ele>
        <time>2010-01-27T08:57:26Z</time>
      </trkpt>
      <trkpt lat="45.67044" lon="6.75915">
        <ele>1454</ele>
        <time>2010-01-27T08:57:32Z</time>
      </trkpt>
      <trkpt lat="45.67083" lon="6.75839">
        <ele>1466</ele>
        <time>2010-01-27T08:57:58Z</time>
      </trkpt>
      <trkpt lat="45.6711" lon="6.75801">
        <ele>1472</ele>
        <time>2010-01-27T08:58:13Z</time>
      </trkpt>
      <trkpt lat="45.67128" lon="6.75788">
        <ele>1473</ele>
        <time>2010-01-27T08:58:21Z</time>
      </trkpt>
      <trkpt lat="45.6716" lon="6.75788">
        <ele>1476</ele>
        <time>2010-01-27T08:58:34Z</time>
      </trkpt>
      <trkpt lat="45.6719" lon="6.75787">
        <ele>1487</ele>
        <time>2010-01-27T08:58:46Z</time>
      </trkpt>
      <trkpt lat="45.67215" lon="6.75779">
        <ele>1489</ele>
        <time>2010-01-27T08:58:57Z</time>
      </trkpt>
      <trkpt lat="45.67229" lon="6.75767">
        <ele>1490</ele>
        <time>2010-01-27T08:59:03Z</time>
      </trkpt>
      <trkpt lat="45.67252" lon="6.75729">
        <ele>1495</ele>
        <time>2010-01-27T08:59:17Z</time>
      </trkpt>
      <trkpt lat="45.67278" lon="6.75702">
        <ele>1497</ele>
        <time>2010-01-27T08:59:30Z</time>
      </trkpt>
      <trkpt lat="45.67296" lon="6.75683">
        <ele>1498</ele>
        <time>2010-01-27T08:59:39Z</time>
      </trkpt>
      <trkpt lat="45.67311" lon="6.75638">
        <ele>1488</ele>
        <time>2010-01-27T08:59:53Z</time>
      </trkpt>
      <trkpt lat="45.6733" lon="6.75542">
        <ele>1475</ele>
        <time>2010-01-27T09:00:21Z</time>
      </trkpt>
      <trkpt lat="45.67377" lon="6.75478">
        <ele>1485</ele>
        <time>2010-01-27T09:00:47Z</time>
      </trkpt>
      <trkpt lat="45.67406" lon="6.75405">
        <ele>1485</ele>
        <time>2010-01-27T09:01:11Z</time>
      </trkpt>
      <trkpt lat="45.67405" lon="6.75257">
        <ele>1476</ele>
        <time>2010-01-27T09:01:52Z</time>
      </trkpt>
      <trkpt lat="45.67417" lon="6.75186">
        <ele>1487</ele>
        <time>2010-01-27T09:02:12Z</time>
      </trkpt>
      <trkpt lat="45.67452" lon="6.75137">
        <ele>1487</ele>
        <time>2010-01-27T09:02:32Z</time>
      </trkpt>
      <trkpt lat="45.67464" lon="6.75112">
        <ele>1487</ele>
        <time>2010-01-27T09:02:41Z</time>
      </trkpt>
      <trkpt lat="45.67518" lon="6.75055">
        <ele>1497</ele>
        <time>2010-01-27T09:03:07Z</time>
      </trkpt>
      <trkpt lat="45.6755" lon="6.75001">
        <ele>1500</ele>
        <time>2010-01-27T09:03:27Z</time>
      </trkpt>
      <trkpt lat="45.67558" lon="6.74968">
        <ele>1495</ele>
        <time>2010-01-27T09:03:37Z</time>
      </trkpt>
      <trkpt lat="45.67559" lon="6.74902">
        <ele>1493</ele>
        <time>2010-01-27T09:03:55Z</time>
      </trkpt>
      <trkpt lat="45.67566" lon="6.74867">
        <ele>1493</ele>
        <time>2010-01-27T09:04:06Z</time>
      </trkpt>
      <trkpt lat="45.67604" lon="6.74806">
        <ele>1502</ele>
        <time>2010-01-27T09:04:29Z</time>
      </trkpt>
      <trkpt lat="45.67619" lon="6.74747">
        <ele>1497</ele>
        <time>2010-01-27T09:04:46Z</time>
      </trkpt>
      <trkpt lat="45.67683" lon="6.74685">
        <ele>1511</ele>
        <time>2010-01-27T09:05:17Z</time>
      </trkpt>
      <trkpt lat="45.67723" lon="6.74625">
        <ele>1504</ele>
        <time>2010-01-27T09:05:40Z</time>
      </trkpt>
      <trkpt lat="45.67821" lon="6.74338">
        <ele>1508</ele>
        <time>2010-01-27T09:07:10Z</time>
      </trkpt>
      <trkpt lat="45.67838" lon="6.74311">
        <ele>1512</ele>
        <time>2010-01-27T09:07:20Z</time>
      </trkpt>
      <trkpt lat="45.67911" lon="6.74232">
        <ele>1524</ele>
        <time>2010-01-27T09:07:57Z</time>
      </trkpt>
      <trkpt lat="45.68003" lon="6.74114">
        <ele>1525</ele>
        <time>2010-01-27T09:08:46Z</time>
      </trkpt>
      <trkpt lat="45.68058" lon="6.74066">
        <ele>1531</ele>
        <time>2010-01-27T09:09:12Z</time>
      </trkpt>
      <trkpt lat="45.68112" lon="6.74008">
        <ele>1533</ele>
        <time>2010-01-27T09:09:39Z</time>
      </trkpt>
      <trkpt lat="45.68152" lon="6.73982">
        <ele>1537</ele>
        <time>2010-01-27T09:09:57Z</time>
      </trkpt>
      <trkpt lat="45.68195" lon="6.73963">
        <ele>1533</ele>
        <time>2010-01-27T09:10:15Z</time>
      </trkpt>
      <trkpt lat="45.6822" lon="6.7394">
        <ele>1533</ele>
        <time>2010-01-27T09:10:26Z</time>
      </trkpt>
      <trkpt lat="45.68248" lon="6.73902">
        <ele>1538</ele>
        <time>2010-01-27T09:10:42Z</time>
      </trkpt>
      <trkpt lat="45.68294" lon="6.73813">
        <ele>1542</ele>
        <time>2010-01-27T09:11:13Z</time>
      </trkpt>
      <trkpt lat="45.68322" lon="6.73778">
        <ele>1541</ele>
        <time>2010-01-27T09:11:28Z</time>
      </trkpt>
      <trkpt lat="45.68346" lon="6.73763">
        <ele>1538</ele>
        <time>2010-01-27T09:11:38Z</time>
      </trkpt>
      <trkpt lat="45.68454" lon="6.73742">
        <ele>1540</ele>
        <time>2010-01-27T09:12:22Z</time>
      </trkpt>
      <trkpt lat="45.68494" lon="6.73719">
        <ele>1541</ele>
        <time>2010-01-27T09:12:39Z</time>
      </trkpt>
      <trkpt lat="45.68526" lon="6.73686">
        <ele>1538</ele>
        <time>2010-01-27T09:12:55Z</time>
      </trkpt>
      <trkpt lat="45.68567" lon="6.73666">
        <ele>1541</ele>
        <time>2010-01-27T09:13:12Z</time>
      </trkpt>
      <trkpt lat="45.68526" lon="6.73685">
        <ele>1538</ele>
        <time>2010-01-27T09:13:30Z</time>
      </trkpt>
      <trkpt lat="45.68561" lon="6.73629">
        <ele>1544</ele>
        <time>2010-01-27T09:13:51Z</time>
      </trkpt>
      <trkpt lat="45.68581" lon="6.73573">
        <ele>1548</ele>
        <time>2010-01-27T09:14:09Z</time>
      </trkpt>
      <trkpt lat="45.68585" lon="6.73435">
        <ele>1548</ele>
        <time>2010-01-27T09:14:47Z</time>
      </trkpt>
      <trkpt lat="45.68593" lon="6.73395">
        <ele>1555</ele>
        <time>2010-01-27T09:14:59Z</time>
      </trkpt>
      <trkpt lat="45.68612" lon="6.73354">
        <ele>1559</ele>
        <time>2010-01-27T09:15:13Z</time>
      </trkpt>
      <trkpt lat="45.68638" lon="6.73335">
        <ele>1558</ele>
        <time>2010-01-27T09:15:24Z</time>
      </trkpt>
      <trkpt lat="45.68699" lon="6.73311">
        <ele>1570</ele>
        <time>2010-01-27T09:15:50Z</time>
      </trkpt>
      <trkpt lat="45.68773" lon="6.73295">
        <ele>1573</ele>
        <time>2010-01-27T09:16:20Z</time>
      </trkpt>
      <trkpt lat="45.68809" lon="6.73296">
        <ele>1574</ele>
        <time>2010-01-27T09:16:34Z</time>
      </trkpt>
      <trkpt lat="45.68868" lon="6.73324">
        <ele>1579</ele>
        <time>2010-01-27T09:16:59Z</time>
      </trkpt>
      <trkpt lat="45.68896" lon="6.73327">
        <ele>1579</ele>
        <time>2010-01-27T09:17:10Z</time>
      </trkpt>
      <trkpt lat="45.69068" lon="6.73284">
        <ele>1591</ele>
        <time>2010-01-27T09:18:20Z</time>
      </trkpt>
      <trkpt lat="45.69229" lon="6.73269">
        <ele>1595</ele>
        <time>2010-01-27T09:19:25Z</time>
      </trkpt>
      <trkpt lat="45.69271" lon="6.73255">
        <ele>1594</ele>
        <time>2010-01-27T09:19:42Z</time>
      </trkpt>
      <trkpt lat="45.69337" lon="6.73214">
        <ele>1596</ele>
        <time>2010-01-27T09:20:11Z</time>
      </trkpt>
      <trkpt lat="45.69342" lon="6.73198">
        <ele>1598</ele>
        <time>2010-01-27T09:20:16Z</time>
      </trkpt>
      <trkpt lat="45.69334" lon="6.73158">
        <ele>1614</ele>
        <time>2010-01-27T09:20:28Z</time>
      </trkpt>
      <trkpt lat="45.69337" lon="6.73104">
        <ele>1617</ele>
        <time>2010-01-27T09:20:43Z</time>
      </trkpt>
      <trkpt lat="45.69373" lon="6.72877">
        <ele>1632</ele>
        <time>2010-01-27T09:21:48Z</time>
      </trkpt>
      <trkpt lat="45.69402" lon="6.72764">
        <ele>1641</ele>
        <time>2010-01-27T09:22:21Z</time>
      </trkpt>
      <trkpt lat="45.69407" lon="6.72723">
        <ele>1650</ele>
        <time>2010-01-27T09:22:33Z</time>
      </trkpt>
      <trkpt lat="45.69411" lon="6.72594">
        <ele>1660</ele>
        <time>2010-01-27T09:23:09Z</time>
      </trkpt>
      <trkpt lat="45.69395" lon="6.72431">
        <ele>1676</ele>
        <time>2010-01-27T09:23:55Z</time>
      </trkpt>
      <trkpt lat="45.69399" lon="6.72367">
        <ele>1682</ele>
        <time>2010-01-27T09:24:13Z</time>
      </trkpt>
      <trkpt lat="45.69412" lon="6.72336">
        <ele>1678</ele>
        <time>2010-01-27T09:24:23Z</time>
      </trkpt>
      <trkpt lat="45.69436" lon="6.72282">
        <ele>1687</ele>
        <time>2010-01-27T09:24:41Z</time>
      </trkpt>
      <trkpt lat="45.69461" lon="6.72242">
        <ele>1699</ele>
        <time>2010-01-27T09:24:57Z</time>
      </trkpt>
      <trkpt lat="45.69482" lon="6.7222">
        <ele>1701</ele>
        <time>2010-01-27T09:25:07Z</time>
      </trkpt>
      <trkpt lat="45.69497" lon="6.72219">
        <ele>1702</ele>
        <time>2010-01-27T09:25:13Z</time>
      </trkpt>
      <trkpt lat="45.69504" lon="6.72224">
        <ele>1710</ele>
        <time>2010-01-27T09:25:16Z</time>
      </trkpt>
      <trkpt lat="45.69527" lon="6.72259">
        <ele>1705</ele>
        <time>2010-01-27T09:25:30Z</time>
      </trkpt>
      <trkpt lat="45.69542" lon="6.723">
        <ele>1708</ele>
        <time>2010-01-27T09:25:43Z</time>
      </trkpt>
      <trkpt lat="45.69544" lon="6.72325">
        <ele>1708</ele>
        <time>2010-01-27T09:25:49Z</time>
      </trkpt>
      <trkpt lat="45.69544" lon="6.72363">
        <ele>1703</ele>
        <time>2010-01-27T09:26:00Z</time>
      </trkpt>
      <trkpt lat="45.69533" lon="6.72421">
        <ele>1694</ele>
        <time>2010-01-27T09:26:17Z</time>
      </trkpt>
      <trkpt lat="45.69536" lon="6.72465">
        <ele>1693</ele>
        <time>2010-01-27T09:26:29Z</time>
      </trkpt>
      <trkpt lat="45.69554" lon="6.72512">
        <ele>1689</ele>
        <time>2010-01-27T09:26:45Z</time>
      </trkpt>
      <trkpt lat="45.69595" lon="6.7259">
        <ele>1697</ele>
        <time>2010-01-27T09:27:12Z</time>
      </trkpt>
      <trkpt lat="45.69616" lon="6.72686">
        <ele>1688</ele>
        <time>2010-01-27T09:27:40Z</time>
      </trkpt>
      <trkpt lat="45.6962" lon="6.72694">
        <ele>1688</ele>
        <time>2010-01-27T09:27:42Z</time>
      </trkpt>
      <trkpt lat="45.69627" lon="6.72696">
        <ele>1688</ele>
        <time>2010-01-27T09:27:45Z</time>
      </trkpt>
      <trkpt lat="45.69637" lon="6.72689">
        <ele>1691</ele>
        <time>2010-01-27T09:27:50Z</time>
      </trkpt>
      <trkpt lat="45.69641" lon="6.72676">
        <ele>1693</ele>
        <time>2010-01-27T09:27:54Z</time>
      </trkpt>
      <trkpt lat="45.69624" lon="6.72588">
        <ele>1702</ele>
        <time>2010-01-27T09:28:20Z</time>
      </trkpt>
      <trkpt lat="45.69616" lon="6.72527">
        <ele>1712</ele>
        <time>2010-01-27T09:28:37Z</time>
      </trkpt>
      <trkpt lat="45.69614" lon="6.72368">
        <ele>1730</ele>
        <time>2010-01-27T09:29:21Z</time>
      </trkpt>
      <trkpt lat="45.696" lon="6.72313">
        <ele>1731</ele>
        <time>2010-01-27T09:29:38Z</time>
      </trkpt>
      <trkpt lat="45.69598" lon="6.72284">
        <ele>1733</ele>
        <time>2010-01-27T09:29:46Z</time>
      </trkpt>
      <trkpt lat="45.69602" lon="6.72278">
        <ele>1733</ele>
        <time>2010-01-27T09:29:48Z</time>
      </trkpt>
      <trkpt lat="45.69615" lon="6.7228">
        <ele>1735</ele>
        <time>2010-01-27T09:29:54Z</time>
      </trkpt>
      <trkpt lat="45.69642" lon="6.72321">
        <ele>1740</ele>
        <time>2010-01-27T09:30:09Z</time>
      </trkpt>
      <trkpt lat="45.69705" lon="6.72494">
        <ele>1748</ele>
        <time>2010-01-27T09:31:04Z</time>
      </trkpt>
      <trkpt lat="45.69723" lon="6.72525">
        <ele>1741</ele>
        <time>2010-01-27T09:31:15Z</time>
      </trkpt>
      <trkpt lat="45.69746" lon="6.72542">
        <ele>1741</ele>
        <time>2010-01-27T09:31:25Z</time>
      </trkpt>
      <trkpt lat="45.69789" lon="6.72548">
        <ele>1754</ele>
        <time>2010-01-27T09:31:43Z</time>
      </trkpt>
      <trkpt lat="45.69809" lon="6.72539">
        <ele>1756</ele>
        <time>2010-01-27T09:31:51Z</time>
      </trkpt>
      <trkpt lat="45.69815" lon="6.72514">
        <ele>1761</ele>
        <time>2010-01-27T09:31:58Z</time>
      </trkpt>
      <trkpt lat="45.69803" lon="6.72481">
        <ele>1768</ele>
        <time>2010-01-27T09:32:09Z</time>
      </trkpt>
      <trkpt lat="45.69765" lon="6.72445">
        <ele>1767</ele>
        <time>2010-01-27T09:32:27Z</time>
      </trkpt>
      <trkpt lat="45.6974" lon="6.72406">
        <ele>1763</ele>
        <time>2010-01-27T09:32:42Z</time>
      </trkpt>
      <trkpt lat="45.69742" lon="6.72359">
        <ele>1763</ele>
        <time>2010-01-27T09:32:55Z</time>
      </trkpt>
      <trkpt lat="45.69771" lon="6.72296">
        <ele>1781</ele>
        <time>2010-01-27T09:33:17Z</time>
      </trkpt>
      <trkpt lat="45.69776" lon="6.72271">
        <ele>1782</ele>
        <time>2010-01-27T09:33:24Z</time>
      </trkpt>
      <trkpt lat="45.69773" lon="6.72235">
        <ele>1783</ele>
        <time>2010-01-27T09:33:34Z</time>
      </trkpt>
      <trkpt lat="45.69732" lon="6.72164">
        <ele>1773</ele>
        <time>2010-01-27T09:34:00Z</time>
      </trkpt>
      <trkpt lat="45.6973" lon="6.72136">
        <ele>1772</ele>
        <time>2010-01-27T09:34:08Z</time>
      </trkpt>
      <trkpt lat="45.69738" lon="6.7211">
        <ele>1774</ele>
        <time>2010-01-27T09:34:16Z</time>
      </trkpt>
      <trkpt lat="45.69747" lon="6.72065">
        <ele>1778</ele>
        <time>2010-01-27T09:34:29Z</time>
      </trkpt>
      <trkpt lat="45.69746" lon="6.72045">
        <ele>1778</ele>
        <time>2010-01-27T09:34:34Z</time>
      </trkpt>
      <trkpt lat="45.69738" lon="6.71992">
        <ele>1785</ele>
        <time>2010-01-27T09:34:49Z</time>
      </trkpt>
      <trkpt lat="45.69728" lon="6.71958">
        <ele>1788</ele>
        <time>2010-01-27T09:35:00Z</time>
      </trkpt>
      <trkpt lat="45.69706" lon="6.71934">
        <ele>1789</ele>
        <time>2010-01-27T09:35:11Z</time>
      </trkpt>
      <trkpt lat="45.69667" lon="6.71915">
        <ele>1788</ele>
        <time>2010-01-27T09:35:27Z</time>
      </trkpt>
      <trkpt lat="45.69635" lon="6.719">
        <ele>1791</ele>
        <time>2010-01-27T09:35:41Z</time>
      </trkpt>
      <trkpt lat="45.69608" lon="6.7188">
        <ele>1791</ele>
        <time>2010-01-27T09:35:53Z</time>
      </trkpt>
      <trkpt lat="45.69583" lon="6.71844">
        <ele>1787</ele>
        <time>2010-01-27T09:36:07Z</time>
      </trkpt>
      <trkpt lat="45.69575" lon="6.71821">
        <ele>1790</ele>
        <time>2010-01-27T09:36:14Z</time>
      </trkpt>
      <trkpt lat="45.69571" lon="6.7177">
        <ele>1793</ele>
        <time>2010-01-27T09:36:29Z</time>
      </trkpt>
      <trkpt lat="45.69591" lon="6.71676">
        <ele>1808</ele>
        <time>2010-01-27T09:36:56Z</time>
      </trkpt>
      <trkpt lat="45.69582" lon="6.71655">
        <ele>1805</ele>
        <time>2010-01-27T09:37:03Z</time>
      </trkpt>
      <trkpt lat="45.69561" lon="6.71651">
        <ele>1807</ele>
        <time>2010-01-27T09:37:12Z</time>
      </trkpt>
      <trkpt lat="45.69491" lon="6.71678">
        <ele>1798</ele>
        <time>2010-01-27T09:37:41Z</time>
      </trkpt>
      <trkpt lat="45.69463" lon="6.71673">
        <ele>1795</ele>
        <time>2010-01-27T09:37:52Z</time>
      </trkpt>
      <trkpt lat="45.6944" lon="6.71635">
        <ele>1805</ele>
        <time>2010-01-27T09:38:06Z</time>
      </trkpt>
      <trkpt lat="45.69434" lon="6.71613">
        <ele>1806</ele>
        <time>2010-01-27T09:38:13Z</time>
      </trkpt>
      <trkpt lat="45.69436" lon="6.71588">
        <ele>1807</ele>
        <time>2010-01-27T09:38:20Z</time>
      </trkpt>
      <trkpt lat="45.69446" lon="6.71551">
        <ele>1816</ele>
        <time>2010-01-27T09:38:31Z</time>
      </trkpt>
      <trkpt lat="45.69455" lon="6.71504">
        <ele>1818</ele>
        <time>2010-01-27T09:38:45Z</time>
      </trkpt>
      <trkpt lat="45.69451" lon="6.71453">
        <ele>1825</ele>
        <time>2010-01-27T09:38:59Z</time>
      </trkpt>
      <trkpt lat="45.69388" lon="6.71241">
        <ele>1829</ele>
        <time>2010-01-27T09:40:03Z</time>
      </trkpt>
      <trkpt lat="45.69361" lon="6.71053">
        <ele>1836</ele>
        <time>2010-01-27T09:40:57Z</time>
      </trkpt>
      <trkpt lat="45.69321" lon="6.70679">
        <ele>1863</ele>
        <time>2010-01-27T09:42:43Z</time>
      </trkpt>
      <trkpt lat="45.69307" lon="6.70544">
        <ele>1870</ele>
        <time>2010-01-27T09:43:21Z</time>
      </trkpt>
      <trkpt lat="45.69276" lon="6.70402">
        <ele>1875</ele>
        <time>2010-01-27T09:44:03Z</time>
      </trkpt>
      <trkpt lat="45.69268" lon="6.7037">
        <ele>1876</ele>
        <time>2010-01-27T09:44:12Z</time>
      </trkpt>
      <trkpt lat="45.69218" lon="6.70145">
        <ele>1897</ele>
        <time>2010-01-27T09:45:18Z</time>
      </trkpt>
      <trkpt lat="45.69218" lon="6.70075">
        <ele>1899</ele>
        <time>2010-01-27T09:45:38Z</time>
      </trkpt>
      <trkpt lat="45.69222" lon="6.70041">
        <ele>1899</ele>
        <time>2010-01-27T09:45:48Z</time>
      </trkpt>
      <trkpt lat="45.69235" lon="6.70003">
        <ele>1901</ele>
        <time>2010-01-27T09:45:59Z</time>
      </trkpt>
      <trkpt lat="45.69331" lon="6.69802">
        <ele>1911</ele>
        <time>2010-01-27T09:47:08Z</time>
      </trkpt>
      <trkpt lat="45.69352" lon="6.69741">
        <ele>1917</ele>
        <time>2010-01-27T09:47:27Z</time>
      </trkpt>
      <trkpt lat="45.69373" lon="6.69656">
        <ele>1920</ele>
        <time>2010-01-27T09:47:52Z</time>
      </trkpt>
      <trkpt lat="45.69387" lon="6.69552">
        <ele>1927</ele>
        <time>2010-01-27T09:48:22Z</time>
      </trkpt>
      <trkpt lat="45.69392" lon="6.69454">
        <ele>1938</ele>
        <time>2010-01-27T09:48:49Z</time>
      </trkpt>
      <trkpt lat="45.69389" lon="6.69408">
        <ele>1948</ele>
        <time>2010-01-27T09:49:02Z</time>
      </trkpt>
      <trkpt lat="45.69388" lon="6.69404">
        <ele>1948</ele>
        <time>2010-01-27T09:49:03Z</time>
      </trkpt>
      <trkpt lat="45.69376" lon="6.69353">
        <ele>1950</ele>
        <time>2010-01-27T09:49:18Z</time>
      </trkpt>
      <trkpt lat="45.69355" lon="6.69302">
        <ele>1958</ele>
        <time>2010-01-27T09:49:35Z</time>
      </trkpt>
      <trkpt lat="45.69332" lon="6.69266">
        <ele>1954</ele>
        <time>2010-01-27T09:49:49Z</time>
      </trkpt>
      <trkpt lat="45.6931" lon="6.69257">
        <ele>1954</ele>
        <time>2010-01-27T09:49:58Z</time>
      </trkpt>
      <trkpt lat="45.69233" lon="6.69251">
        <ele>1957</ele>
        <time>2010-01-27T09:50:29Z</time>
      </trkpt>
      <trkpt lat="45.69215" lon="6.69245">
        <ele>1962</ele>
        <time>2010-01-27T09:50:36Z</time>
      </trkpt>
      <trkpt lat="45.6919" lon="6.69226">
        <ele>1964</ele>
        <time>2010-01-27T09:50:47Z</time>
      </trkpt>
      <trkpt lat="45.69168" lon="6.69198">
        <ele>1965</ele>
        <time>2010-01-27T09:50:59Z</time>
      </trkpt>
      <trkpt lat="45.69158" lon="6.69178">
        <ele>1971</ele>
        <time>2010-01-27T09:51:06Z</time>
      </trkpt>
      <trkpt lat="45.6914" lon="6.69112">
        <ele>1974</ele>
        <time>2010-01-27T09:51:26Z</time>
      </trkpt>
      <trkpt lat="45.69126" lon="6.69035">
        <ele>1974</ele>
        <time>2010-01-27T09:51:48Z</time>
      </trkpt>
      <trkpt lat="45.6912" lon="6.68965">
        <ele>1970</ele>
        <time>2010-01-27T09:52:08Z</time>
      </trkpt>
      <trkpt lat="45.69122" lon="6.68938">
        <ele>1969</ele>
        <time>2010-01-27T09:52:16Z</time>
      </trkpt>
      <trkpt lat="45.69137" lon="6.68869">
        <ele>1967</ele>
        <time>2010-01-27T09:52:36Z</time>
      </trkpt>
      <trkpt lat="45.69138" lon="6.68812">
        <ele>1965</ele>
        <time>2010-01-27T09:52:52Z</time>
      </trkpt>
      <trkpt lat="45.6915" lon="6.68768">
        <ele>1965</ele>
        <time>2010-01-27T09:53:05Z</time>
      </trkpt>
      <trkpt lat="45.69141" lon="6.68732">
        <ele>1963</ele>
        <time>2010-01-27T09:53:16Z</time>
      </trkpt>
      <trkpt lat="45.69113" lon="6.68679">
        <ele>1960</ele>
        <time>2010-01-27T09:53:34Z</time>
      </trkpt>
      <trkpt lat="45.69108" lon="6.68648">
        <ele>1958</ele>
        <time>2010-01-27T09:53:43Z</time>
      </trkpt>
      <trkpt lat="45.69119" lon="6.68591">
        <ele>1958</ele>
        <time>2010-01-27T09:54:00Z</time>
      </trkpt>
      <trkpt lat="45.69124" lon="6.68491">
        <ele>1952</ele>
        <time>2010-01-27T09:54:28Z</time>
      </trkpt>
      <trkpt lat="45.6913" lon="6.68464">
        <ele>1952</ele>
        <time>2010-01-27T09:54:36Z</time>
      </trkpt>
      <trkpt lat="45.69153" lon="6.68419">
        <ele>1952</ele>
        <time>2010-01-27T09:54:51Z</time>
      </trkpt>
      <trkpt lat="45.69155" lon="6.68416">
        <ele>1951</ele>
        <time>2010-01-27T09:54:53Z</time>
      </trkpt>
      <trkpt lat="45.69157" lon="6.68383">
        <ele>1949</ele>
        <time>2010-01-27T09:55:02Z</time>
      </trkpt>
      <trkpt lat="45.69149" lon="6.68361">
        <ele>1948</ele>
        <time>2010-01-27T09:55:09Z</time>
      </trkpt>
      <trkpt lat="45.69117" lon="6.68309">
        <ele>1945</ele>
        <time>2010-01-27T09:55:28Z</time>
      </trkpt>
      <trkpt lat="45.69093" lon="6.68239">
        <ele>1942</ele>
        <time>2010-01-27T09:55:50Z</time>
      </trkpt>
      <trkpt lat="45.69074" lon="6.68218">
        <ele>1942</ele>
        <time>2010-01-27T09:56:00Z</time>
      </trkpt>
      <trkpt lat="45.69036" lon="6.68191">
        <ele>1941</ele>
        <time>2010-01-27T09:56:16Z</time>
      </trkpt>
      <trkpt lat="45.69018" lon="6.68168">
        <ele>1941</ele>
        <time>2010-01-27T09:56:26Z</time>
      </trkpt>
      <trkpt lat="45.69003" lon="6.68133">
        <ele>1940</ele>
        <time>2010-01-27T09:56:38Z</time>
      </trkpt>
      <trkpt lat="45.69" lon="6.6811">
        <ele>1940</ele>
        <time>2010-01-27T09:56:44Z</time>
      </trkpt>
      <trkpt lat="45.69008" lon="6.68049">
        <ele>1934</ele>
        <time>2010-01-27T09:57:02Z</time>
      </trkpt>
      <trkpt lat="45.69021" lon="6.68023">
        <ele>1932</ele>
        <time>2010-01-27T09:57:10Z</time>
      </trkpt>
      <trkpt lat="45.69037" lon="6.68003">
        <ele>1931</ele>
        <time>2010-01-27T09:57:19Z</time>
      </trkpt>
      <trkpt lat="45.69079" lon="6.67984">
        <ele>1923</ele>
        <time>2010-01-27T09:57:37Z</time>
      </trkpt>
      <trkpt lat="45.69095" lon="6.67984">
        <ele>1916</ele>
        <time>2010-01-27T09:57:43Z</time>
      </trkpt>
      <trkpt lat="45.69124" lon="6.67994">
        <ele>1912</ele>
        <time>2010-01-27T09:57:55Z</time>
      </trkpt>
      <trkpt lat="45.69153" lon="6.68022">
        <ele>1918</ele>
        <time>2010-01-27T09:58:09Z</time>
      </trkpt>
      <trkpt lat="45.69241" lon="6.68138">
        <ele>1918</ele>
        <time>2010-01-27T09:58:57Z</time>
      </trkpt>
      <trkpt lat="45.69283" lon="6.68186">
        <ele>1915</ele>
        <time>2010-01-27T09:59:19Z</time>
      </trkpt>
      <trkpt lat="45.69415" lon="6.6826">
        <ele>1907</ele>
        <time>2010-01-27T10:00:15Z</time>
      </trkpt>
      <trkpt lat="45.69427" lon="6.68256">
        <ele>1901</ele>
        <time>2010-01-27T10:00:21Z</time>
      </trkpt>
      <trkpt lat="45.6943" lon="6.68232">
        <ele>1892</ele>
        <time>2010-01-27T10:00:27Z</time>
      </trkpt>
      <trkpt lat="45.69427" lon="6.68225">
        <ele>1891</ele>
        <time>2010-01-27T10:00:30Z</time>
      </trkpt>
      <trkpt lat="45.69374" lon="6.6818">
        <ele>1898</ele>
        <time>2010-01-27T10:00:54Z</time>
      </trkpt>
      <trkpt lat="45.6935" lon="6.68155">
        <ele>1893</ele>
        <time>2010-01-27T10:01:06Z</time>
      </trkpt>
      <trkpt lat="45.69337" lon="6.68132">
        <ele>1890</ele>
        <time>2010-01-27T10:01:15Z</time>
      </trkpt>
      <trkpt lat="45.69322" lon="6.68092">
        <ele>1895</ele>
        <time>2010-01-27T10:01:27Z</time>
      </trkpt>
      <trkpt lat="45.69309" lon="6.68">
        <ele>1877</ele>
        <time>2010-01-27T10:01:53Z</time>
      </trkpt>
      <trkpt lat="45.693" lon="6.67968">
        <ele>1876</ele>
        <time>2010-01-27T10:02:03Z</time>
      </trkpt>
      <trkpt lat="45.69278" lon="6.67935">
        <ele>1875</ele>
        <time>2010-01-27T10:02:16Z</time>
      </trkpt>
      <trkpt lat="45.69227" lon="6.67911">
        <ele>1877</ele>
        <time>2010-01-27T10:02:37Z</time>
      </trkpt>
      <trkpt lat="45.6922" lon="6.67901">
        <ele>1877</ele>
        <time>2010-01-27T10:02:41Z</time>
      </trkpt>
      <trkpt lat="45.69191" lon="6.67838">
        <ele>1876</ele>
        <time>2010-01-27T10:03:03Z</time>
      </trkpt>
      <trkpt lat="45.69118" lon="6.67703">
        <ele>1865</ele>
        <time>2010-01-27T10:03:50Z</time>
      </trkpt>
      <trkpt lat="45.69092" lon="6.67583">
        <ele>1860</ele>
        <time>2010-01-27T10:04:25Z</time>
      </trkpt>
      <trkpt lat="45.69084" lon="6.67487">
        <ele>1851</ele>
        <time>2010-01-27T10:04:52Z</time>
      </trkpt>
      <trkpt lat="45.69123" lon="6.67314">
        <ele>1846</ele>
        <time>2010-01-27T10:05:43Z</time>
      </trkpt>
      <trkpt lat="45.69129" lon="6.67299">
        <ele>1845</ele>
        <time>2010-01-27T10:05:48Z</time>
      </trkpt>
      <trkpt lat="45.6918" lon="6.67252">
        <ele>1835</ele>
        <time>2010-01-27T10:06:13Z</time>
      </trkpt>
      <trkpt lat="45.69229" lon="6.67176">
        <ele>1831</ele>
        <time>2010-01-27T10:06:41Z</time>
      </trkpt>
      <trkpt lat="45.6924" lon="6.67156">
        <ele>1831</ele>
        <time>2010-01-27T10:06:49Z</time>
      </trkpt>
      <trkpt lat="45.69272" lon="6.67058">
        <ele>1823</ele>
        <time>2010-01-27T10:07:19Z</time>
      </trkpt>
      <trkpt lat="45.69299" lon="6.67006">
        <ele>1821</ele>
        <time>2010-01-27T10:07:37Z</time>
      </trkpt>
      <trkpt lat="45.69307" lon="6.66973">
        <ele>1819</ele>
        <time>2010-01-27T10:07:47Z</time>
      </trkpt>
      <trkpt lat="45.6933" lon="6.66875">
        <ele>1818</ele>
        <time>2010-01-27T10:08:16Z</time>
      </trkpt>
      <trkpt lat="45.69333" lon="6.66863">
        <ele>1818</ele>
        <time>2010-01-27T10:08:19Z</time>
      </trkpt>
      <trkpt lat="45.69352" lon="6.66773">
        <ele>1811</ele>
        <time>2010-01-27T10:08:46Z</time>
      </trkpt>
      <trkpt lat="45.6936" lon="6.66627">
        <ele>1809</ele>
        <time>2010-01-27T10:09:27Z</time>
      </trkpt>
      <trkpt lat="45.69386" lon="6.66536">
        <ele>1816</ele>
        <time>2010-01-27T10:09:54Z</time>
      </trkpt>
      <trkpt lat="45.6944" lon="6.66487">
        <ele>1815</ele>
        <time>2010-01-27T10:10:20Z</time>
      </trkpt>
      <trkpt lat="45.69464" lon="6.66478">
        <ele>1815</ele>
        <time>2010-01-27T10:10:30Z</time>
      </trkpt>
      <trkpt lat="45.69485" lon="6.66478">
        <ele>1812</ele>
        <time>2010-01-27T10:10:38Z</time>
      </trkpt>
      <trkpt lat="45.69532" lon="6.66494">
        <ele>1800</ele>
        <time>2010-01-27T10:10:57Z</time>
      </trkpt>
      <trkpt lat="45.69561" lon="6.6649">
        <ele>1797</ele>
        <time>2010-01-27T10:11:09Z</time>
      </trkpt>
      <trkpt lat="45.6957" lon="6.66481">
        <ele>1797</ele>
        <time>2010-01-27T10:11:14Z</time>
      </trkpt>
      <trkpt lat="45.69593" lon="6.66416">
        <ele>1795</ele>
        <time>2010-01-27T10:11:34Z</time>
      </trkpt>
      <trkpt lat="45.69629" lon="6.66364">
        <ele>1776</ele>
        <time>2010-01-27T10:11:55Z</time>
      </trkpt>
      <trkpt lat="45.69633" lon="6.66306">
        <ele>1770</ele>
        <time>2010-01-27T10:12:11Z</time>
      </trkpt>
      <trkpt lat="45.69606" lon="6.66176">
        <ele>1765</ele>
        <time>2010-01-27T10:12:49Z</time>
      </trkpt>
      <trkpt lat="45.69567" lon="6.66094">
        <ele>1765</ele>
        <time>2010-01-27T10:13:16Z</time>
      </trkpt>
      <trkpt lat="45.69538" lon="6.66046">
        <ele>1752</ele>
        <time>2010-01-27T10:13:34Z</time>
      </trkpt>
      <trkpt lat="45.69504" lon="6.66001">
        <ele>1749</ele>
        <time>2010-01-27T10:13:53Z</time>
      </trkpt>
      <trkpt lat="45.69415" lon="6.65917">
        <ele>1746</ele>
        <time>2010-01-27T10:14:36Z</time>
      </trkpt>
      <trkpt lat="45.69354" lon="6.65811">
        <ele>1723</ele>
        <time>2010-01-27T10:15:14Z</time>
      </trkpt>
      <trkpt lat="45.69313" lon="6.65771">
        <ele>1744</ele>
        <time>2010-01-27T10:15:34Z</time>
      </trkpt>
      <trkpt lat="45.69295" lon="6.65723">
        <ele>1722</ele>
        <time>2010-01-27T10:15:49Z</time>
      </trkpt>
      <trkpt lat="45.69227" lon="6.65626">
        <ele>1726</ele>
        <time>2010-01-27T10:16:27Z</time>
      </trkpt>
      <trkpt lat="45.6917" lon="6.6548">
        <ele>1695</ele>
        <time>2010-01-27T10:17:14Z</time>
      </trkpt>
      <trkpt lat="45.69099" lon="6.65377">
        <ele>1690</ele>
        <time>2010-01-27T10:17:55Z</time>
      </trkpt>
      <trkpt lat="45.69099" lon="6.65361">
        <ele>1687</ele>
        <time>2010-01-27T10:17:59Z</time>
      </trkpt>
      <trkpt lat="45.69109" lon="6.65358">
        <ele>1685</ele>
        <time>2010-01-27T10:18:04Z</time>
      </trkpt>
      <trkpt lat="45.69123" lon="6.6537">
        <ele>1685</ele>
        <time>2010-01-27T10:18:10Z</time>
      </trkpt>
      <trkpt lat="45.69186" lon="6.65447">
        <ele>1684</ele>
        <time>2010-01-27T10:18:43Z</time>
      </trkpt>
      <trkpt lat="45.69273" lon="6.65572">
        <ele>1678</ele>
        <time>2010-01-27T10:19:33Z</time>
      </trkpt>
      <trkpt lat="45.69386" lon="6.65692">
        <ele>1676</ele>
        <time>2010-01-27T10:20:29Z</time>
      </trkpt>
      <trkpt lat="45.69413" lon="6.6576">
        <ele>1693</ele>
        <time>2010-01-27T10:20:51Z</time>
      </trkpt>
      <trkpt lat="45.6942" lon="6.65767">
        <ele>1682</ele>
        <time>2010-01-27T10:20:54Z</time>
      </trkpt>
      <trkpt lat="45.69516" lon="6.65794">
        <ele>1662</ele>
        <time>2010-01-27T10:21:33Z</time>
      </trkpt>
      <trkpt lat="45.69555" lon="6.65797">
        <ele>1659</ele>
        <time>2010-01-27T10:21:49Z</time>
      </trkpt>
      <trkpt lat="45.69577" lon="6.65792">
        <ele>1656</ele>
        <time>2010-01-27T10:21:58Z</time>
      </trkpt>
      <trkpt lat="45.69594" lon="6.65777">
        <ele>1648</ele>
        <time>2010-01-27T10:22:06Z</time>
      </trkpt>
      <trkpt lat="45.69599" lon="6.65766">
        <ele>1647</ele>
        <time>2010-01-27T10:22:10Z</time>
      </trkpt>
      <trkpt lat="45.69602" lon="6.65729">
        <ele>1639</ele>
        <time>2010-01-27T10:22:20Z</time>
      </trkpt>
      <trkpt lat="45.69587" lon="6.65693">
        <ele>1637</ele>
        <time>2010-01-27T10:22:32Z</time>
      </trkpt>
      <trkpt lat="45.69565" lon="6.65681">
        <ele>1639</ele>
        <time>2010-01-27T10:22:42Z</time>
      </trkpt>
      <trkpt lat="45.69527" lon="6.65678">
        <ele>1639</ele>
        <time>2010-01-27T10:22:57Z</time>
      </trkpt>
      <trkpt lat="45.69473" lon="6.65675">
        <ele>1646</ele>
        <time>2010-01-27T10:23:18Z</time>
      </trkpt>
      <trkpt lat="45.69461" lon="6.65671">
        <ele>1648</ele>
        <time>2010-01-27T10:23:23Z</time>
      </trkpt>
      <trkpt lat="45.6945" lon="6.65659">
        <ele>1637</ele>
        <time>2010-01-27T10:23:29Z</time>
      </trkpt>
      <trkpt lat="45.69436" lon="6.65623">
        <ele>1636</ele>
        <time>2010-01-27T10:23:40Z</time>
      </trkpt>
      <trkpt lat="45.69434" lon="6.65601">
        <ele>1635</ele>
        <time>2010-01-27T10:23:47Z</time>
      </trkpt>
      <trkpt lat="45.69435" lon="6.65573">
        <ele>1629</ele>
        <time>2010-01-27T10:23:54Z</time>
      </trkpt>
      <trkpt lat="45.69451" lon="6.65543">
        <ele>1624</ele>
        <time>2010-01-27T10:24:05Z</time>
      </trkpt>
      <trkpt lat="45.69497" lon="6.65546">
        <ele>1621</ele>
        <time>2010-01-27T10:24:23Z</time>
      </trkpt>
      <trkpt lat="45.69563" lon="6.65561">
        <ele>1614</ele>
        <time>2010-01-27T10:24:50Z</time>
      </trkpt>
      <trkpt lat="45.69663" lon="6.65608">
        <ele>1613</ele>
        <time>2010-01-27T10:25:33Z</time>
      </trkpt>
      <trkpt lat="45.69729" lon="6.65624">
        <ele>1603</ele>
        <time>2010-01-27T10:25:59Z</time>
      </trkpt>
      <trkpt lat="45.69768" lon="6.65616">
        <ele>1594</ele>
        <time>2010-01-27T10:26:15Z</time>
      </trkpt>
      <trkpt lat="45.69797" lon="6.656">
        <ele>1593</ele>
        <time>2010-01-27T10:26:28Z</time>
      </trkpt>
      <trkpt lat="45.6987" lon="6.65536">
        <ele>1586</ele>
        <time>2010-01-27T10:27:02Z</time>
      </trkpt>
      <trkpt lat="45.6994" lon="6.65497">
        <ele>1588</ele>
        <time>2010-01-27T10:27:32Z</time>
      </trkpt>
      <trkpt lat="45.69948" lon="6.65483">
        <ele>1589</ele>
        <time>2010-01-27T10:27:37Z</time>
      </trkpt>
      <trkpt lat="45.69968" lon="6.65416">
        <ele>1583</ele>
        <time>2010-01-27T10:27:57Z</time>
      </trkpt>
      <trkpt lat="45.70004" lon="6.6536">
        <ele>1601</ele>
        <time>2010-01-27T10:28:18Z</time>
      </trkpt>
      <trkpt lat="45.70023" lon="6.65311">
        <ele>1600</ele>
        <time>2010-01-27T10:28:34Z</time>
      </trkpt>
      <trkpt lat="45.70026" lon="6.65284">
        <ele>1601</ele>
        <time>2010-01-27T10:28:42Z</time>
      </trkpt>
      <trkpt lat="45.70016" lon="6.65206">
        <ele>1600</ele>
        <time>2010-01-27T10:29:04Z</time>
      </trkpt>
      <trkpt lat="45.70018" lon="6.65126">
        <ele>1604</ele>
        <time>2010-01-27T10:29:27Z</time>
      </trkpt>
      <trkpt lat="45.70009" lon="6.65059">
        <ele>1603</ele>
        <time>2010-01-27T10:29:46Z</time>
      </trkpt>
      <trkpt lat="45.70015" lon="6.65032">
        <ele>1604</ele>
        <time>2010-01-27T10:29:54Z</time>
      </trkpt>
      <trkpt lat="45.70028" lon="6.65013">
        <ele>1605</ele>
        <time>2010-01-27T10:30:01Z</time>
      </trkpt>
      <trkpt lat="45.70057" lon="6.64981">
        <ele>1604</ele>
        <time>2010-01-27T10:30:16Z</time>
      </trkpt>
      <trkpt lat="45.70095" lon="6.64915">
        <ele>1612</ele>
        <time>2010-01-27T10:30:40Z</time>
      </trkpt>
      <trkpt lat="45.70095" lon="6.64878">
        <ele>1620</ele>
        <time>2010-01-27T10:30:50Z</time>
      </trkpt>
      <trkpt lat="45.70087" lon="6.64842">
        <ele>1617</ele>
        <time>2010-01-27T10:31:00Z</time>
      </trkpt>
      <trkpt lat="45.70075" lon="6.64817">
        <ele>1609</ele>
        <time>2010-01-27T10:31:09Z</time>
      </trkpt>
      <trkpt lat="45.70028" lon="6.64757">
        <ele>1603</ele>
        <time>2010-01-27T10:31:34Z</time>
      </trkpt>
      <trkpt lat="45.69997" lon="6.64697">
        <ele>1591</ele>
        <time>2010-01-27T10:31:55Z</time>
      </trkpt>
      <trkpt lat="45.6997" lon="6.64614">
        <ele>1592</ele>
        <time>2010-01-27T10:32:21Z</time>
      </trkpt>
      <trkpt lat="45.69968" lon="6.64602">
        <ele>1592</ele>
        <time>2010-01-27T10:32:24Z</time>
      </trkpt>
      <trkpt lat="45.69965" lon="6.64585">
        <ele>1592</ele>
        <time>2010-01-27T10:32:29Z</time>
      </trkpt>
      <trkpt lat="45.69971" lon="6.64556">
        <ele>1590</ele>
        <time>2010-01-27T10:32:38Z</time>
      </trkpt>
      <trkpt lat="45.69985" lon="6.64539">
        <ele>1591</ele>
        <time>2010-01-27T10:32:45Z</time>
      </trkpt>
      <trkpt lat="45.70026" lon="6.64511">
        <ele>1608</ele>
        <time>2010-01-27T10:33:03Z</time>
      </trkpt>
      <trkpt lat="45.70054" lon="6.64465">
        <ele>1605</ele>
        <time>2010-01-27T10:33:20Z</time>
      </trkpt>
      <trkpt lat="45.70061" lon="6.64419">
        <ele>1606</ele>
        <time>2010-01-27T10:33:33Z</time>
      </trkpt>
      <trkpt lat="45.70053" lon="6.64379">
        <ele>1604</ele>
        <time>2010-01-27T10:33:45Z</time>
      </trkpt>
      <trkpt lat="45.7003" lon="6.64333">
        <ele>1604</ele>
        <time>2010-01-27T10:34:01Z</time>
      </trkpt>
      <trkpt lat="45.70022" lon="6.64311">
        <ele>1603</ele>
        <time>2010-01-27T10:34:08Z</time>
      </trkpt>
      <trkpt lat="45.70015" lon="6.64248">
        <ele>1608</ele>
        <time>2010-01-27T10:34:26Z</time>
      </trkpt>
      <trkpt lat="45.70005" lon="6.64216">
        <ele>1616</ele>
        <time>2010-01-27T10:34:36Z</time>
      </trkpt>
      <trkpt lat="45.69939" lon="6.64074">
        <ele>1616</ele>
        <time>2010-01-27T10:35:23Z</time>
      </trkpt>
      <trkpt lat="45.69873" lon="6.63966">
        <ele>1615</ele>
        <time>2010-01-27T10:36:04Z</time>
      </trkpt>
      <trkpt lat="45.69788" lon="6.63854">
        <ele>1613</ele>
        <time>2010-01-27T10:36:50Z</time>
      </trkpt>
      <trkpt lat="45.6969" lon="6.63788">
        <ele>1604</ele>
        <time>2010-01-27T10:37:33Z</time>
      </trkpt>
      <trkpt lat="45.69665" lon="6.63761">
        <ele>1591</ele>
        <time>2010-01-27T10:37:46Z</time>
      </trkpt>
      <trkpt lat="45.69625" lon="6.63685">
        <ele>1602</ele>
        <time>2010-01-27T10:38:12Z</time>
      </trkpt>
      <trkpt lat="45.69585" lon="6.63648">
        <ele>1611</ele>
        <time>2010-01-27T10:38:32Z</time>
      </trkpt>
      <trkpt lat="45.69532" lon="6.63585">
        <ele>1593</ele>
        <time>2010-01-27T10:38:59Z</time>
      </trkpt>
      <trkpt lat="45.69493" lon="6.63502">
        <ele>1606</ele>
        <time>2010-01-27T10:39:27Z</time>
      </trkpt>
      <trkpt lat="45.69474" lon="6.63411">
        <ele>1610</ele>
        <time>2010-01-27T10:39:54Z</time>
      </trkpt>
      <trkpt lat="45.69473" lon="6.634">
        <ele>1609</ele>
        <time>2010-01-27T10:39:57Z</time>
      </trkpt>
      <trkpt lat="45.69467" lon="6.63348">
        <ele>1609</ele>
        <time>2010-01-27T10:40:12Z</time>
      </trkpt>
      <trkpt lat="45.69448" lon="6.63332">
        <ele>1609</ele>
        <time>2010-01-27T10:40:20Z</time>
      </trkpt>
      <trkpt lat="45.69411" lon="6.63297">
        <ele>1597</ele>
        <time>2010-01-27T10:40:38Z</time>
      </trkpt>
      <trkpt lat="45.69401" lon="6.6328">
        <ele>1596</ele>
        <time>2010-01-27T10:40:44Z</time>
      </trkpt>
      <trkpt lat="45.69394" lon="6.63248">
        <ele>1601</ele>
        <time>2010-01-27T10:40:54Z</time>
      </trkpt>
      <trkpt lat="45.69389" lon="6.63163">
        <ele>1607</ele>
        <time>2010-01-27T10:41:18Z</time>
      </trkpt>
      <trkpt lat="45.69379" lon="6.6314">
        <ele>1607</ele>
        <time>2010-01-27T10:41:25Z</time>
      </trkpt>
      <trkpt lat="45.69373" lon="6.63131">
        <ele>1607</ele>
        <time>2010-01-27T10:41:29Z</time>
      </trkpt>
      <trkpt lat="45.6934" lon="6.6312">
        <ele>1605</ele>
        <time>2010-01-27T10:41:42Z</time>
      </trkpt>
      <trkpt lat="45.69305" lon="6.63083">
        <ele>1602</ele>
        <time>2010-01-27T10:42:00Z</time>
      </trkpt>
      <trkpt lat="45.6926" lon="6.63067">
        <ele>1592</ele>
        <time>2010-01-27T10:42:18Z</time>
      </trkpt>
      <trkpt lat="45.69199" lon="6.63041">
        <ele>1582</ele>
        <time>2010-01-27T10:42:44Z</time>
      </trkpt>
      <trkpt lat="45.69172" lon="6.63023">
        <ele>1584</ele>
        <time>2010-01-27T10:42:56Z</time>
      </trkpt>
      <trkpt lat="45.6908" lon="6.62935">
        <ele>1565</ele>
        <time>2010-01-27T10:43:40Z</time>
      </trkpt>
      <trkpt lat="45.69035" lon="6.62888">
        <ele>1574</ele>
        <time>2010-01-27T10:44:02Z</time>
      </trkpt>
      <trkpt lat="45.68897" lon="6.6272">
        <ele>1556</ele>
        <time>2010-01-27T10:45:15Z</time>
      </trkpt>
      <trkpt lat="45.68861" lon="6.62644">
        <ele>1572</ele>
        <time>2010-01-27T10:45:41Z</time>
      </trkpt>
      <trkpt lat="45.6879" lon="6.62508">
        <ele>1555</ele>
        <time>2010-01-27T10:46:28Z</time>
      </trkpt>
      <trkpt lat="45.68747" lon="6.62467">
        <ele>1532</ele>
        <time>2010-01-27T10:46:49Z</time>
      </trkpt>
      <trkpt lat="45.68671" lon="6.62406">
        <ele>1519</ele>
        <time>2010-01-27T10:47:24Z</time>
      </trkpt>
      <trkpt lat="45.68641" lon="6.62381">
        <ele>1513</ele>
        <time>2010-01-27T10:47:38Z</time>
      </trkpt>
      <trkpt lat="45.6859" lon="6.62319">
        <ele>1505</ele>
        <time>2010-01-27T10:48:05Z</time>
      </trkpt>
      <trkpt lat="45.68505" lon="6.62171">
        <ele>1499</ele>
        <time>2010-01-27T10:48:58Z</time>
      </trkpt>
      <trkpt lat="45.68312" lon="6.6178">
        <ele>1539</ele>
        <time>2010-01-27T10:51:12Z</time>
      </trkpt>
      <trkpt lat="45.68277" lon="6.61721">
        <ele>1557</ele>
        <time>2010-01-27T10:51:34Z</time>
      </trkpt>
      <trkpt lat="45.68159" lon="6.6159">
        <ele>1564</ele>
        <time>2010-01-27T10:52:34Z</time>
      </trkpt>
      <trkpt lat="45.6812" lon="6.61558">
        <ele>1571</ele>
        <time>2010-01-27T10:52:52Z</time>
      </trkpt>
      <trkpt lat="45.68107" lon="6.6155">
        <ele>1571</ele>
        <time>2010-01-27T10:52:58Z</time>
      </trkpt>
      <trkpt lat="45.68076" lon="6.61534">
        <ele>1567</ele>
        <time>2010-01-27T10:53:11Z</time>
      </trkpt>
      <trkpt lat="45.6805" lon="6.61528">
        <ele>1567</ele>
        <time>2010-01-27T10:53:21Z</time>
      </trkpt>
      <trkpt lat="45.68047" lon="6.61523">
        <ele>1567</ele>
        <time>2010-01-27T10:53:23Z</time>
      </trkpt>
      <trkpt lat="45.68047" lon="6.61511">
        <ele>1569</ele>
        <time>2010-01-27T10:53:27Z</time>
      </trkpt>
      <trkpt lat="45.68053" lon="6.61509">
        <ele>1570</ele>
        <time>2010-01-27T10:53:29Z</time>
      </trkpt>
      <trkpt lat="45.68129" lon="6.61525">
        <ele>1577</ele>
        <time>2010-01-27T10:54:00Z</time>
      </trkpt>
      <trkpt lat="45.68219" lon="6.61535">
        <ele>1588</ele>
        <time>2010-01-27T10:54:36Z</time>
      </trkpt>
      <trkpt lat="45.68252" lon="6.61563">
        <ele>1596</ele>
        <time>2010-01-27T10:54:51Z</time>
      </trkpt>
      <trkpt lat="45.68303" lon="6.61646">
        <ele>1590</ele>
        <time>2010-01-27T10:55:22Z</time>
      </trkpt>
      <trkpt lat="45.68314" lon="6.61659">
        <ele>1590</ele>
        <time>2010-01-27T10:55:28Z</time>
      </trkpt>
      <trkpt lat="45.68323" lon="6.61659">
        <ele>1591</ele>
        <time>2010-01-27T10:55:31Z</time>
      </trkpt>
      <trkpt lat="45.68326" lon="6.61643">
        <ele>1592</ele>
        <time>2010-01-27T10:55:36Z</time>
      </trkpt>
      <trkpt lat="45.68305" lon="6.6161">
        <ele>1594</ele>
        <time>2010-01-27T10:55:49Z</time>
      </trkpt>
      <trkpt lat="45.68303" lon="6.61585">
        <ele>1597</ele>
        <time>2010-01-27T10:55:56Z</time>
      </trkpt>
      <trkpt lat="45.6832" lon="6.61574">
        <ele>1605</ele>
        <time>2010-01-27T10:56:03Z</time>
      </trkpt>
      <trkpt lat="45.68342" lon="6.61571">
        <ele>1610</ele>
        <time>2010-01-27T10:56:12Z</time>
      </trkpt>
      <trkpt lat="45.68369" lon="6.6156">
        <ele>1611</ele>
        <time>2010-01-27T10:56:23Z</time>
      </trkpt>
      <trkpt lat="45.68392" lon="6.61537">
        <ele>1611</ele>
        <time>2010-01-27T10:56:34Z</time>
      </trkpt>
      <trkpt lat="45.684" lon="6.61505">
        <ele>1612</ele>
        <time>2010-01-27T10:56:44Z</time>
      </trkpt>
      <trkpt lat="45.68398" lon="6.61488">
        <ele>1613</ele>
        <time>2010-01-27T10:56:49Z</time>
      </trkpt>
      <trkpt lat="45.6836" lon="6.61409">
        <ele>1620</ele>
        <time>2010-01-27T10:57:16Z</time>
      </trkpt>
      <trkpt lat="45.68331" lon="6.61321">
        <ele>1632</ele>
        <time>2010-01-27T10:57:43Z</time>
      </trkpt>
      <trkpt lat="45.68305" lon="6.61309">
        <ele>1637</ele>
        <time>2010-01-27T10:57:54Z</time>
      </trkpt>
      <trkpt lat="45.68195" lon="6.613">
        <ele>1645</ele>
        <time>2010-01-27T10:58:38Z</time>
      </trkpt>
      <trkpt lat="45.68183" lon="6.61296">
        <ele>1646</ele>
        <time>2010-01-27T10:58:43Z</time>
      </trkpt>
      <trkpt lat="45.6818" lon="6.6129">
        <ele>1647</ele>
        <time>2010-01-27T10:58:45Z</time>
      </trkpt>
      <trkpt lat="45.68187" lon="6.61276">
        <ele>1649</ele>
        <time>2010-01-27T10:58:50Z</time>
      </trkpt>
      <trkpt lat="45.68248" lon="6.61259">
        <ele>1653</ele>
        <time>2010-01-27T10:59:15Z</time>
      </trkpt>
      <trkpt lat="45.68324" lon="6.61207">
        <ele>1666</ele>
        <time>2010-01-27T10:59:48Z</time>
      </trkpt>
      <trkpt lat="45.68387" lon="6.61214">
        <ele>1667</ele>
        <time>2010-01-27T11:00:14Z</time>
      </trkpt>
      <trkpt lat="45.68403" lon="6.61206">
        <ele>1668</ele>
        <time>2010-01-27T11:00:21Z</time>
      </trkpt>
      <trkpt lat="45.68405" lon="6.61195">
        <ele>1670</ele>
        <time>2010-01-27T11:00:24Z</time>
      </trkpt>
      <trkpt lat="45.68348" lon="6.61163">
        <ele>1682</ele>
        <time>2010-01-27T11:00:49Z</time>
      </trkpt>
      <trkpt lat="45.68218" lon="6.61142">
        <ele>1693</ele>
        <time>2010-01-27T11:01:41Z</time>
      </trkpt>
      <trkpt lat="45.68204" lon="6.61132">
        <ele>1695</ele>
        <time>2010-01-27T11:01:47Z</time>
      </trkpt>
      <trkpt lat="45.68278" lon="6.61093">
        <ele>1695</ele>
        <time>2010-01-27T11:02:19Z</time>
      </trkpt>
      <trkpt lat="45.68295" lon="6.61067">
        <ele>1708</ele>
        <time>2010-01-27T11:02:29Z</time>
      </trkpt>
      <trkpt lat="45.68316" lon="6.61046">
        <ele>1708</ele>
        <time>2010-01-27T11:02:39Z</time>
      </trkpt>
      <trkpt lat="45.6834" lon="6.61002">
        <ele>1712</ele>
        <time>2010-01-27T11:02:55Z</time>
      </trkpt>
      <trkpt lat="45.68376" lon="6.61">
        <ele>1706</ele>
        <time>2010-01-27T11:03:09Z</time>
      </trkpt>
      <trkpt lat="45.68408" lon="6.60991">
        <ele>1713</ele>
        <time>2010-01-27T11:03:22Z</time>
      </trkpt>
      <trkpt lat="45.68435" lon="6.60948">
        <ele>1714</ele>
        <time>2010-01-27T11:03:39Z</time>
      </trkpt>
      <trkpt lat="45.68436" lon="6.6087">
        <ele>1727</ele>
        <time>2010-01-27T11:04:00Z</time>
      </trkpt>
      <trkpt lat="45.68449" lon="6.60843">
        <ele>1728</ele>
        <time>2010-01-27T11:04:09Z</time>
      </trkpt>
      <trkpt lat="45.68463" lon="6.6084">
        <ele>1727</ele>
        <time>2010-01-27T11:04:15Z</time>
      </trkpt>
      <trkpt lat="45.68507" lon="6.60851">
        <ele>1723</ele>
        <time>2010-01-27T11:04:33Z</time>
      </trkpt>
      <trkpt lat="45.68546" lon="6.60828">
        <ele>1728</ele>
        <time>2010-01-27T11:04:50Z</time>
      </trkpt>
      <trkpt lat="45.68587" lon="6.60783">
        <ele>1728</ele>
        <time>2010-01-27T11:05:11Z</time>
      </trkpt>
      <trkpt lat="45.68633" lon="6.6072">
        <ele>1731</ele>
        <time>2010-01-27T11:05:36Z</time>
      </trkpt>
      <trkpt lat="45.68653" lon="6.60673">
        <ele>1731</ele>
        <time>2010-01-27T11:05:51Z</time>
      </trkpt>
      <trkpt lat="45.68676" lon="6.6064">
        <ele>1727</ele>
        <time>2010-01-27T11:06:05Z</time>
      </trkpt>
      <trkpt lat="45.68703" lon="6.6058">
        <ele>1735</ele>
        <time>2010-01-27T11:06:24Z</time>
      </trkpt>
      <trkpt lat="45.68711" lon="6.60553">
        <ele>1735</ele>
        <time>2010-01-27T11:06:33Z</time>
      </trkpt>
      <trkpt lat="45.6871" lon="6.60495">
        <ele>1746</ele>
        <time>2010-01-27T11:06:49Z</time>
      </trkpt>
      <trkpt lat="45.68723" lon="6.60446">
        <ele>1746</ele>
        <time>2010-01-27T11:07:04Z</time>
      </trkpt>
      <trkpt lat="45.68743" lon="6.60412">
        <ele>1742</ele>
        <time>2010-01-27T11:07:16Z</time>
      </trkpt>
      <trkpt lat="45.68787" lon="6.60389">
        <ele>1731</ele>
        <time>2010-01-27T11:07:35Z</time>
      </trkpt>
      <trkpt lat="45.68801" lon="6.60348">
        <ele>1732</ele>
        <time>2010-01-27T11:07:48Z</time>
      </trkpt>
      <trkpt lat="45.6881" lon="6.60321">
        <ele>1741</ele>
        <time>2010-01-27T11:07:56Z</time>
      </trkpt>
      <trkpt lat="45.68855" lon="6.60268">
        <ele>1725</ele>
        <time>2010-01-27T11:08:19Z</time>
      </trkpt>
      <trkpt lat="45.6888" lon="6.6012">
        <ele>1738</ele>
        <time>2010-01-27T11:09:02Z</time>
      </trkpt>
      <trkpt lat="45.68895" lon="6.60091">
        <ele>1737</ele>
        <time>2010-01-27T11:09:12Z</time>
      </trkpt>
      <trkpt lat="45.68937" lon="6.60057">
        <ele>1725</ele>
        <time>2010-01-27T11:09:31Z</time>
      </trkpt>
      <trkpt lat="45.68953" lon="6.60032">
        <ele>1723</ele>
        <time>2010-01-27T11:09:41Z</time>
      </trkpt>
      <trkpt lat="45.68994" lon="6.59908">
        <ele>1715</ele>
        <time>2010-01-27T11:10:19Z</time>
      </trkpt>
      <trkpt lat="45.68993" lon="6.59845">
        <ele>1717</ele>
        <time>2010-01-27T11:10:37Z</time>
      </trkpt>
      <trkpt lat="45.69009" lon="6.59819">
        <ele>1709</ele>
        <time>2010-01-27T11:10:47Z</time>
      </trkpt>
      <trkpt lat="45.69029" lon="6.59796">
        <ele>1707</ele>
        <time>2010-01-27T11:10:57Z</time>
      </trkpt>
      <trkpt lat="45.68993" lon="6.59698">
        <ele>1701</ele>
        <time>2010-01-27T11:11:28Z</time>
      </trkpt>
      <trkpt lat="45.68956" lon="6.59635">
        <ele>1694</ele>
        <time>2010-01-27T11:11:51Z</time>
      </trkpt>
      <trkpt lat="45.68934" lon="6.5958">
        <ele>1685</ele>
        <time>2010-01-27T11:12:09Z</time>
      </trkpt>
      <trkpt lat="45.68904" lon="6.59522">
        <ele>1671</ele>
        <time>2010-01-27T11:12:29Z</time>
      </trkpt>
      <trkpt lat="45.68903" lon="6.59497">
        <ele>1666</ele>
        <time>2010-01-27T11:12:36Z</time>
      </trkpt>
      <trkpt lat="45.68916" lon="6.59463">
        <ele>1662</ele>
        <time>2010-01-27T11:12:47Z</time>
      </trkpt>
      <trkpt lat="45.68917" lon="6.59426">
        <ele>1675</ele>
        <time>2010-01-27T11:12:57Z</time>
      </trkpt>
      <trkpt lat="45.68903" lon="6.59315">
        <ele>1654</ele>
        <time>2010-01-27T11:13:29Z</time>
      </trkpt>
      <trkpt lat="45.68901" lon="6.59251">
        <ele>1658</ele>
        <time>2010-01-27T11:13:47Z</time>
      </trkpt>
      <trkpt lat="45.68891" lon="6.592">
        <ele>1646</ele>
        <time>2010-01-27T11:14:02Z</time>
      </trkpt>
      <trkpt lat="45.68889" lon="6.59155">
        <ele>1643</ele>
        <time>2010-01-27T11:14:14Z</time>
      </trkpt>
      <trkpt lat="45.689" lon="6.5908">
        <ele>1642</ele>
        <time>2010-01-27T11:14:36Z</time>
      </trkpt>
      <trkpt lat="45.68905" lon="6.58975">
        <ele>1626</ele>
        <time>2010-01-27T11:15:05Z</time>
      </trkpt>
      <trkpt lat="45.68956" lon="6.58794">
        <ele>1633</ele>
        <time>2010-01-27T11:16:00Z</time>
      </trkpt>
      <trkpt lat="45.68963" lon="6.58751">
        <ele>1633</ele>
        <time>2010-01-27T11:16:12Z</time>
      </trkpt>
      <trkpt lat="45.68963" lon="6.58709">
        <ele>1623</ele>
        <time>2010-01-27T11:16:24Z</time>
      </trkpt>
      <trkpt lat="45.68948" lon="6.58586">
        <ele>1607</ele>
        <time>2010-01-27T11:16:59Z</time>
      </trkpt>
      <trkpt lat="45.68973" lon="6.58482">
        <ele>1601</ele>
        <time>2010-01-27T11:17:30Z</time>
      </trkpt>
      <trkpt lat="45.68979" lon="6.58402">
        <ele>1587</ele>
        <time>2010-01-27T11:17:52Z</time>
      </trkpt>
      <trkpt lat="45.68984" lon="6.58385">
        <ele>1584</ele>
        <time>2010-01-27T11:17:57Z</time>
      </trkpt>
      <trkpt lat="45.69014" lon="6.58335">
        <ele>1601</ele>
        <time>2010-01-27T11:18:16Z</time>
      </trkpt>
      <trkpt lat="45.69039" lon="6.58282">
        <ele>1594</ele>
        <time>2010-01-27T11:18:34Z</time>
      </trkpt>
      <trkpt lat="45.6904" lon="6.58192">
        <ele>1572</ele>
        <time>2010-01-27T11:18:59Z</time>
      </trkpt>
      <trkpt lat="45.69044" lon="6.58158">
        <ele>1559</ele>
        <time>2010-01-27T11:19:08Z</time>
      </trkpt>
      <trkpt lat="45.69056" lon="6.5812">
        <ele>1558</ele>
        <time>2010-01-27T11:19:20Z</time>
      </trkpt>
      <trkpt lat="45.69066" lon="6.58102">
        <ele>1559</ele>
        <time>2010-01-27T11:19:27Z</time>
      </trkpt>
      <trkpt lat="45.69106" lon="6.58065">
        <ele>1568</ele>
        <time>2010-01-27T11:19:46Z</time>
      </trkpt>
      <trkpt lat="45.69113" lon="6.58039">
        <ele>1564</ele>
        <time>2010-01-27T11:19:53Z</time>
      </trkpt>
      <trkpt lat="45.69106" lon="6.58033">
        <ele>1561</ele>
        <time>2010-01-27T11:19:57Z</time>
      </trkpt>
      <trkpt lat="45.69094" lon="6.58036">
        <ele>1560</ele>
        <time>2010-01-27T11:20:02Z</time>
      </trkpt>
      <trkpt lat="45.69005" lon="6.58158">
        <ele>1544</ele>
        <time>2010-01-27T11:20:51Z</time>
      </trkpt>
      <trkpt lat="45.68994" lon="6.58177">
        <ele>1532</ele>
        <time>2010-01-27T11:20:58Z</time>
      </trkpt>
      <trkpt lat="45.68971" lon="6.58261">
        <ele>1547</ele>
        <time>2010-01-27T11:21:23Z</time>
      </trkpt>
      <trkpt lat="45.68964" lon="6.58273">
        <ele>1546</ele>
        <time>2010-01-27T11:21:28Z</time>
      </trkpt>
      <trkpt lat="45.68953" lon="6.58284">
        <ele>1545</ele>
        <time>2010-01-27T11:21:33Z</time>
      </trkpt>
      <trkpt lat="45.68895" lon="6.5832">
        <ele>1516</ele>
        <time>2010-01-27T11:21:58Z</time>
      </trkpt>
      <trkpt lat="45.68866" lon="6.58368">
        <ele>1522</ele>
        <time>2010-01-27T11:22:16Z</time>
      </trkpt>
      <trkpt lat="45.6884" lon="6.58424">
        <ele>1516</ele>
        <time>2010-01-27T11:22:35Z</time>
      </trkpt>
      <trkpt lat="45.68815" lon="6.58493">
        <ele>1492</ele>
        <time>2010-01-27T11:22:57Z</time>
      </trkpt>
      <trkpt lat="45.6881" lon="6.58526">
        <ele>1491</ele>
        <time>2010-01-27T11:23:06Z</time>
      </trkpt>
      <trkpt lat="45.68805" lon="6.58656">
        <ele>1502</ele>
        <time>2010-01-27T11:23:43Z</time>
      </trkpt>
      <trkpt lat="45.68802" lon="6.58666">
        <ele>1501</ele>
        <time>2010-01-27T11:23:46Z</time>
      </trkpt>
      <trkpt lat="45.6879" lon="6.58675">
        <ele>1503</ele>
        <time>2010-01-27T11:23:51Z</time>
      </trkpt>
      <trkpt lat="45.68785" lon="6.58657">
        <ele>1490</ele>
        <time>2010-01-27T11:23:56Z</time>
      </trkpt>
      <trkpt lat="45.68793" lon="6.586">
        <ele>1492</ele>
        <time>2010-01-27T11:24:13Z</time>
      </trkpt>
      <trkpt lat="45.6878" lon="6.58537">
        <ele>1479</ele>
        <time>2010-01-27T11:24:31Z</time>
      </trkpt>
      <trkpt lat="45.68778" lon="6.58354">
        <ele>1460</ele>
        <time>2010-01-27T11:25:22Z</time>
      </trkpt>
      <trkpt lat="45.68787" lon="6.58325">
        <ele>1453</ele>
        <time>2010-01-27T11:25:31Z</time>
      </trkpt>
      <trkpt lat="45.68788" lon="6.5832">
        <ele>1453</ele>
        <time>2010-01-27T11:25:33Z</time>
      </trkpt>
      <trkpt lat="45.68821" lon="6.58262">
        <ele>1458</ele>
        <time>2010-01-27T11:25:54Z</time>
      </trkpt>
      <trkpt lat="45.68861" lon="6.5822">
        <ele>1471</ele>
        <time>2010-01-27T11:26:14Z</time>
      </trkpt>
      <trkpt lat="45.68865" lon="6.58184">
        <ele>1466</ele>
        <time>2010-01-27T11:26:24Z</time>
      </trkpt>
      <trkpt lat="45.6886" lon="6.58148">
        <ele>1451</ele>
        <time>2010-01-27T11:26:34Z</time>
      </trkpt>
      <trkpt lat="45.68847" lon="6.58109">
        <ele>1445</ele>
        <time>2010-01-27T11:26:46Z</time>
      </trkpt>
      <trkpt lat="45.68842" lon="6.57974">
        <ele>1435</ele>
        <time>2010-01-27T11:27:24Z</time>
      </trkpt>
      <trkpt lat="45.68819" lon="6.5792">
        <ele>1413</ele>
        <time>2010-01-27T11:27:42Z</time>
      </trkpt>
      <trkpt lat="45.68804" lon="6.57841">
        <ele>1408</ele>
        <time>2010-01-27T11:28:05Z</time>
      </trkpt>
      <trkpt lat="45.6881" lon="6.57834">
        <ele>1409</ele>
        <time>2010-01-27T11:28:08Z</time>
      </trkpt>
      <trkpt lat="45.68864" lon="6.57819">
        <ele>1417</ele>
        <time>2010-01-27T11:28:30Z</time>
      </trkpt>
      <trkpt lat="45.68867" lon="6.57811">
        <ele>1417</ele>
        <time>2010-01-27T11:28:32Z</time>
      </trkpt>
      <trkpt lat="45.68863" lon="6.57803">
        <ele>1416</ele>
        <time>2010-01-27T11:28:35Z</time>
      </trkpt>
      <trkpt lat="45.68814" lon="6.57804">
        <ele>1405</ele>
        <time>2010-01-27T11:28:55Z</time>
      </trkpt>
      <trkpt lat="45.68794" lon="6.5781">
        <ele>1402</ele>
        <time>2010-01-27T11:29:03Z</time>
      </trkpt>
      <trkpt lat="45.68766" lon="6.57844">
        <ele>1399</ele>
        <time>2010-01-27T11:29:18Z</time>
      </trkpt>
      <trkpt lat="45.68759" lon="6.5786">
        <ele>1399</ele>
        <time>2010-01-27T11:29:23Z</time>
      </trkpt>
      <trkpt lat="45.68761" lon="6.57886">
        <ele>1399</ele>
        <time>2010-01-27T11:29:30Z</time>
      </trkpt>
      <trkpt lat="45.68778" lon="6.57917">
        <ele>1399</ele>
        <time>2010-01-27T11:29:41Z</time>
      </trkpt>
      <trkpt lat="45.68783" lon="6.57951">
        <ele>1401</ele>
        <time>2010-01-27T11:29:51Z</time>
      </trkpt>
      <trkpt lat="45.68765" lon="6.58023">
        <ele>1393</ele>
        <time>2010-01-27T11:30:12Z</time>
      </trkpt>
      <trkpt lat="45.68764" lon="6.58135">
        <ele>1402</ele>
        <time>2010-01-27T11:30:44Z</time>
      </trkpt>
      <trkpt lat="45.68762" lon="6.58146">
        <ele>1401</ele>
        <time>2010-01-27T11:30:47Z</time>
      </trkpt>
      <trkpt lat="45.68745" lon="6.58153">
        <ele>1378</ele>
        <time>2010-01-27T11:30:54Z</time>
      </trkpt>
      <trkpt lat="45.68742" lon="6.58053">
        <ele>1365</ele>
        <time>2010-01-27T11:31:22Z</time>
      </trkpt>
      <trkpt lat="45.6873" lon="6.57998">
        <ele>1369</ele>
        <time>2010-01-27T11:31:38Z</time>
      </trkpt>
      <trkpt lat="45.6871" lon="6.57949">
        <ele>1365</ele>
        <time>2010-01-27T11:31:54Z</time>
      </trkpt>
      <trkpt lat="45.68666" lon="6.57887">
        <ele>1343</ele>
        <time>2010-01-27T11:32:19Z</time>
      </trkpt>
      <trkpt lat="45.68642" lon="6.57823">
        <ele>1341</ele>
        <time>2010-01-27T11:32:39Z</time>
      </trkpt>
      <trkpt lat="45.68644" lon="6.57785">
        <ele>1338</ele>
        <time>2010-01-27T11:32:50Z</time>
      </trkpt>
      <trkpt lat="45.68653" lon="6.57754">
        <ele>1343</ele>
        <time>2010-01-27T11:32:59Z</time>
      </trkpt>
      <trkpt lat="45.68671" lon="6.577">
        <ele>1351</ele>
        <time>2010-01-27T11:33:16Z</time>
      </trkpt>
      <trkpt lat="45.68701" lon="6.57664">
        <ele>1333</ele>
        <time>2010-01-27T11:33:32Z</time>
      </trkpt>
      <trkpt lat="45.68705" lon="6.57645">
        <ele>1331</ele>
        <time>2010-01-27T11:33:37Z</time>
      </trkpt>
      <trkpt lat="45.68701" lon="6.57636">
        <ele>1328</ele>
        <time>2010-01-27T11:33:40Z</time>
      </trkpt>
      <trkpt lat="45.68679" lon="6.57645">
        <ele>1329</ele>
        <time>2010-01-27T11:33:49Z</time>
      </trkpt>
      <trkpt lat="45.68615" lon="6.5773">
        <ele>1320</ele>
        <time>2010-01-27T11:34:24Z</time>
      </trkpt>
      <trkpt lat="45.68604" lon="6.57755">
        <ele>1324</ele>
        <time>2010-01-27T11:34:33Z</time>
      </trkpt>
      <trkpt lat="45.68576" lon="6.5785">
        <ele>1303</ele>
        <time>2010-01-27T11:35:02Z</time>
      </trkpt>
      <trkpt lat="45.68574" lon="6.57876">
        <ele>1298</ele>
        <time>2010-01-27T11:35:09Z</time>
      </trkpt>
      <trkpt lat="45.68602" lon="6.58012">
        <ele>1311</ele>
        <time>2010-01-27T11:35:48Z</time>
      </trkpt>
      <trkpt lat="45.68607" lon="6.58044">
        <ele>1314</ele>
        <time>2010-01-27T11:35:58Z</time>
      </trkpt>
      <trkpt lat="45.68604" lon="6.58059">
        <ele>1312</ele>
        <time>2010-01-27T11:36:02Z</time>
      </trkpt>
      <trkpt lat="45.68597" lon="6.58055">
        <ele>1311</ele>
        <time>2010-01-27T11:36:05Z</time>
      </trkpt>
      <trkpt lat="45.68578" lon="6.57975">
        <ele>1293</ele>
        <time>2010-01-27T11:36:29Z</time>
      </trkpt>
      <trkpt lat="45.68568" lon="6.57955">
        <ele>1292</ele>
        <time>2010-01-27T11:36:36Z</time>
      </trkpt>
      <trkpt lat="45.68535" lon="6.57913">
        <ele>1288</ele>
        <time>2010-01-27T11:36:53Z</time>
      </trkpt>
      <trkpt lat="45.68523" lon="6.57862">
        <ele>1286</ele>
        <time>2010-01-27T11:37:08Z</time>
      </trkpt>
      <trkpt lat="45.68506" lon="6.57827">
        <ele>1276</ele>
        <time>2010-01-27T11:37:20Z</time>
      </trkpt>
      <trkpt lat="45.68501" lon="6.57792">
        <ele>1282</ele>
        <time>2010-01-27T11:37:30Z</time>
      </trkpt>
      <trkpt lat="45.68502" lon="6.57763">
        <ele>1276</ele>
        <time>2010-01-27T11:37:39Z</time>
      </trkpt>
      <trkpt lat="45.68514" lon="6.57714">
        <ele>1273</ele>
        <time>2010-01-27T11:37:53Z</time>
      </trkpt>
      <trkpt lat="45.68545" lon="6.57658">
        <ele>1262</ele>
        <time>2010-01-27T11:38:13Z</time>
      </trkpt>
      <trkpt lat="45.68566" lon="6.57636">
        <ele>1264</ele>
        <time>2010-01-27T11:38:23Z</time>
      </trkpt>
      <trkpt lat="45.68593" lon="6.57595">
        <ele>1278</ele>
        <time>2010-01-27T11:38:39Z</time>
      </trkpt>
      <trkpt lat="45.68598" lon="6.57574">
        <ele>1264</ele>
        <time>2010-01-27T11:38:46Z</time>
      </trkpt>
      <trkpt lat="45.68594" lon="6.57548">
        <ele>1260</ele>
        <time>2010-01-27T11:38:53Z</time>
      </trkpt>
      <trkpt lat="45.68588" lon="6.57547">
        <ele>1259</ele>
        <time>2010-01-27T11:38:55Z</time>
      </trkpt>
      <trkpt lat="45.6858" lon="6.57553">
        <ele>1240</ele>
        <time>2010-01-27T11:38:59Z</time>
      </trkpt>
      <trkpt lat="45.68559" lon="6.57604">
        <ele>1258</ele>
        <time>2010-01-27T11:39:15Z</time>
      </trkpt>
      <trkpt lat="45.68549" lon="6.57615">
        <ele>1257</ele>
        <time>2010-01-27T11:39:21Z</time>
      </trkpt>
      <trkpt lat="45.68486" lon="6.57667">
        <ele>1244</ele>
        <time>2010-01-27T11:39:50Z</time>
      </trkpt>
      <trkpt lat="45.68453" lon="6.57684">
        <ele>1234</ele>
        <time>2010-01-27T11:40:04Z</time>
      </trkpt>
      <trkpt lat="45.68431" lon="6.57701">
        <ele>1231</ele>
        <time>2010-01-27T11:40:14Z</time>
      </trkpt>
      <trkpt lat="45.68419" lon="6.57735">
        <ele>1229</ele>
        <time>2010-01-27T11:40:25Z</time>
      </trkpt>
      <trkpt lat="45.68418" lon="6.5781">
        <ele>1233</ele>
        <time>2010-01-27T11:40:45Z</time>
      </trkpt>
      <trkpt lat="45.68406" lon="6.57797">
        <ele>1211</ele>
        <time>2010-01-27T11:40:52Z</time>
      </trkpt>
      <trkpt lat="45.68399" lon="6.57771">
        <ele>1211</ele>
        <time>2010-01-27T11:40:59Z</time>
      </trkpt>
      <trkpt lat="45.68397" lon="6.57743">
        <ele>1210</ele>
        <time>2010-01-27T11:41:07Z</time>
      </trkpt>
      <trkpt lat="45.68402" lon="6.57726">
        <ele>1208</ele>
        <time>2010-01-27T11:41:12Z</time>
      </trkpt>
      <trkpt lat="45.6843" lon="6.57654">
        <ele>1217</ele>
        <time>2010-01-27T11:41:36Z</time>
      </trkpt>
      <trkpt lat="45.68484" lon="6.57597">
        <ele>1224</ele>
        <time>2010-01-27T11:42:02Z</time>
      </trkpt>
      <trkpt lat="45.68481" lon="6.57574">
        <ele>1212</ele>
        <time>2010-01-27T11:42:09Z</time>
      </trkpt>
      <trkpt lat="45.68472" lon="6.57569">
        <ele>1208</ele>
        <time>2010-01-27T11:42:13Z</time>
      </trkpt>
      <trkpt lat="45.68446" lon="6.5758">
        <ele>1203</ele>
        <time>2010-01-27T11:42:23Z</time>
      </trkpt>
      <trkpt lat="45.68408" lon="6.57621">
        <ele>1194</ele>
        <time>2010-01-27T11:42:42Z</time>
      </trkpt>
      <trkpt lat="45.6838" lon="6.57664">
        <ele>1192</ele>
        <time>2010-01-27T11:42:59Z</time>
      </trkpt>
      <trkpt lat="45.68371" lon="6.57673">
        <ele>1198</ele>
        <time>2010-01-27T11:43:03Z</time>
      </trkpt>
      <trkpt lat="45.68342" lon="6.57688">
        <ele>1192</ele>
        <time>2010-01-27T11:43:16Z</time>
      </trkpt>
      <trkpt lat="45.68331" lon="6.57715">
        <ele>1180</ele>
        <time>2010-01-27T11:43:25Z</time>
      </trkpt>
      <trkpt lat="45.68322" lon="6.57721">
        <ele>1180</ele>
        <time>2010-01-27T11:43:29Z</time>
      </trkpt>
      <trkpt lat="45.68313" lon="6.57717">
        <ele>1179</ele>
        <time>2010-01-27T11:43:33Z</time>
      </trkpt>
      <trkpt lat="45.68312" lon="6.57692">
        <ele>1177</ele>
        <time>2010-01-27T11:43:39Z</time>
      </trkpt>
      <trkpt lat="45.6836" lon="6.57584">
        <ele>1180</ele>
        <time>2010-01-27T11:44:15Z</time>
      </trkpt>
      <trkpt lat="45.68368" lon="6.57541">
        <ele>1173</ele>
        <time>2010-01-27T11:44:28Z</time>
      </trkpt>
      <trkpt lat="45.68368" lon="6.57505">
        <ele>1170</ele>
        <time>2010-01-27T11:44:38Z</time>
      </trkpt>
      <trkpt lat="45.68375" lon="6.57482">
        <ele>1162</ele>
        <time>2010-01-27T11:44:45Z</time>
      </trkpt>
      <trkpt lat="45.68395" lon="6.57469">
        <ele>1164</ele>
        <time>2010-01-27T11:44:54Z</time>
      </trkpt>
      <trkpt lat="45.68441" lon="6.57459">
        <ele>1177</ele>
        <time>2010-01-27T11:45:12Z</time>
      </trkpt>
      <trkpt lat="45.68421" lon="6.57436">
        <ele>1170</ele>
        <time>2010-01-27T11:45:23Z</time>
      </trkpt>
      <trkpt lat="45.68401" lon="6.57431">
        <ele>1160</ele>
        <time>2010-01-27T11:45:31Z</time>
      </trkpt>
      <trkpt lat="45.68367" lon="6.57431">
        <ele>1156</ele>
        <time>2010-01-27T11:45:44Z</time>
      </trkpt>
      <trkpt lat="45.6835" lon="6.57437">
        <ele>1153</ele>
        <time>2010-01-27T11:45:51Z</time>
      </trkpt>
      <trkpt lat="45.68333" lon="6.57455">
        <ele>1143</ele>
        <time>2010-01-27T11:46:00Z</time>
      </trkpt>
      <trkpt lat="45.68312" lon="6.57513">
        <ele>1153</ele>
        <time>2010-01-27T11:46:18Z</time>
      </trkpt>
      <trkpt lat="45.68306" lon="6.57519">
        <ele>1153</ele>
        <time>2010-01-27T11:46:21Z</time>
      </trkpt>
      <trkpt lat="45.68306" lon="6.57552">
        <ele>1154</ele>
        <time>2010-01-27T11:46:30Z</time>
      </trkpt>
      <trkpt lat="45.68294" lon="6.57633">
        <ele>1166</ele>
        <time>2010-01-27T11:46:53Z</time>
      </trkpt>
      <trkpt lat="45.68289" lon="6.57642">
        <ele>1166</ele>
        <time>2010-01-27T11:46:57Z</time>
      </trkpt>
      <trkpt lat="45.68282" lon="6.57648">
        <ele>1166</ele>
        <time>2010-01-27T11:47:00Z</time>
      </trkpt>
      <trkpt lat="45.68272" lon="6.57649">
        <ele>1165</ele>
        <time>2010-01-27T11:47:04Z</time>
      </trkpt>
      <trkpt lat="45.68254" lon="6.57633">
        <ele>1163</ele>
        <time>2010-01-27T11:47:12Z</time>
      </trkpt>
      <trkpt lat="45.68222" lon="6.57591">
        <ele>1162</ele>
        <time>2010-01-27T11:47:30Z</time>
      </trkpt>
      <trkpt lat="45.68212" lon="6.57579">
        <ele>1155</ele>
        <time>2010-01-27T11:47:35Z</time>
      </trkpt>
      <trkpt lat="45.68201" lon="6.5757">
        <ele>1156</ele>
        <time>2010-01-27T11:47:40Z</time>
      </trkpt>
      <trkpt lat="45.68154" lon="6.5756">
        <ele>1165</ele>
        <time>2010-01-27T11:47:59Z</time>
      </trkpt>
      <trkpt lat="45.68106" lon="6.57535">
        <ele>1165</ele>
        <time>2010-01-27T11:48:20Z</time>
      </trkpt>
      <trkpt lat="45.68094" lon="6.57537">
        <ele>1165</ele>
        <time>2010-01-27T11:48:24Z</time>
      </trkpt>
      <trkpt lat="45.68045" lon="6.57567">
        <ele>1174</ele>
        <time>2010-01-27T11:48:46Z</time>
      </trkpt>
      <trkpt lat="45.67984" lon="6.57564">
        <ele>1175</ele>
        <time>2010-01-27T11:49:10Z</time>
      </trkpt>
      <trkpt lat="45.67987" lon="6.57583">
        <ele>1178</ele>
        <time>2010-01-27T11:49:16Z</time>
      </trkpt>
      <trkpt lat="45.6806" lon="6.57636">
        <ele>1189</ele>
        <time>2010-01-27T11:49:49Z</time>
      </trkpt>
      <trkpt lat="45.68074" lon="6.57651">
        <ele>1190</ele>
        <time>2010-01-27T11:49:56Z</time>
      </trkpt>
      <trkpt lat="45.68081" lon="6.57664">
        <ele>1192</ele>
        <time>2010-01-27T11:50:00Z</time>
      </trkpt>
      <trkpt lat="45.68082" lon="6.57681">
        <ele>1197</ele>
        <time>2010-01-27T11:50:05Z</time>
      </trkpt>
      <trkpt lat="45.68075" lon="6.5769">
        <ele>1200</ele>
        <time>2010-01-27T11:50:09Z</time>
      </trkpt>
      <trkpt lat="45.68034" lon="6.57681">
        <ele>1203</ele>
        <time>2010-01-27T11:50:25Z</time>
      </trkpt>
      <trkpt lat="45.67999" lon="6.57681">
        <ele>1206</ele>
        <time>2010-01-27T11:50:39Z</time>
      </trkpt>
      <trkpt lat="45.67978" lon="6.57663">
        <ele>1197</ele>
        <time>2010-01-27T11:50:49Z</time>
      </trkpt>
      <trkpt lat="45.67968" lon="6.5767">
        <ele>1208</ele>
        <time>2010-01-27T11:50:54Z</time>
      </trkpt>
      <trkpt lat="45.67968" lon="6.57685">
        <ele>1209</ele>
        <time>2010-01-27T11:50:58Z</time>
      </trkpt>
      <trkpt lat="45.6798" lon="6.57703">
        <ele>1211</ele>
        <time>2010-01-27T11:51:05Z</time>
      </trkpt>
      <trkpt lat="45.68012" lon="6.57737">
        <ele>1211</ele>
        <time>2010-01-27T11:51:21Z</time>
      </trkpt>
      <trkpt lat="45.68045" lon="6.57804">
        <ele>1225</ele>
        <time>2010-01-27T11:51:44Z</time>
      </trkpt>
      <trkpt lat="45.68059" lon="6.57817">
        <ele>1226</ele>
        <time>2010-01-27T11:51:50Z</time>
      </trkpt>
      <trkpt lat="45.68077" lon="6.57825">
        <ele>1229</ele>
        <time>2010-01-27T11:51:58Z</time>
      </trkpt>
      <trkpt lat="45.68124" lon="6.57827">
        <ele>1216</ele>
        <time>2010-01-27T11:52:17Z</time>
      </trkpt>
      <trkpt lat="45.68129" lon="6.57831">
        <ele>1216</ele>
        <time>2010-01-27T11:52:19Z</time>
      </trkpt>
      <trkpt lat="45.68122" lon="6.57846">
        <ele>1237</ele>
        <time>2010-01-27T11:52:24Z</time>
      </trkpt>
      <trkpt lat="45.68049" lon="6.57841">
        <ele>1246</ele>
        <time>2010-01-27T11:52:53Z</time>
      </trkpt>
      <trkpt lat="45.67923" lon="6.57814">
        <ele>1241</ele>
        <time>2010-01-27T11:53:45Z</time>
      </trkpt>
      <trkpt lat="45.67763" lon="6.57814">
        <ele>1257</ele>
        <time>2010-01-27T11:54:49Z</time>
      </trkpt>
      <trkpt lat="45.67663" lon="6.578">
        <ele>1262</ele>
        <time>2010-01-27T11:55:29Z</time>
      </trkpt>
      <trkpt lat="45.67593" lon="6.57831">
        <ele>1272</ele>
        <time>2010-01-27T11:55:58Z</time>
      </trkpt>
      <trkpt lat="45.67578" lon="6.57837">
        <ele>1281</ele>
        <time>2010-01-27T11:56:05Z</time>
      </trkpt>
      <trkpt lat="45.67561" lon="6.57846">
        <ele>1286</ele>
        <time>2010-01-27T11:56:12Z</time>
      </trkpt>
      <trkpt lat="45.67494" lon="6.57877">
        <ele>1286</ele>
        <time>2010-01-27T11:56:40Z</time>
      </trkpt>
      <trkpt lat="45.67418" lon="6.57923">
        <ele>1299</ele>
        <time>2010-01-27T11:57:13Z</time>
      </trkpt>
      <trkpt lat="45.67389" lon="6.57929">
        <ele>1305</ele>
        <time>2010-01-27T11:57:25Z</time>
      </trkpt>
      <trkpt lat="45.67332" lon="6.57953">
        <ele>1315</ele>
        <time>2010-01-27T11:57:49Z</time>
      </trkpt>
      <trkpt lat="45.67314" lon="6.57961">
        <ele>1318</ele>
        <time>2010-01-27T11:57:56Z</time>
      </trkpt>
      <trkpt lat="45.67285" lon="6.5797">
        <ele>1322</ele>
        <time>2010-01-27T11:58:08Z</time>
      </trkpt>
      <trkpt lat="45.67263" lon="6.57973">
        <ele>1325</ele>
        <time>2010-01-27T11:58:17Z</time>
      </trkpt>
      <trkpt lat="45.67246" lon="6.5797">
        <ele>1344</ele>
        <time>2010-01-27T11:58:24Z</time>
      </trkpt>
      <trkpt lat="45.67228" lon="6.57958">
        <ele>1346</ele>
        <time>2010-01-27T11:58:32Z</time>
      </trkpt>
      <trkpt lat="45.67194" lon="6.57908">
        <ele>1343</ele>
        <time>2010-01-27T11:58:51Z</time>
      </trkpt>
      <trkpt lat="45.67182" lon="6.57889">
        <ele>1343</ele>
        <time>2010-01-27T11:58:58Z</time>
      </trkpt>
      <trkpt lat="45.67147" lon="6.57837">
        <ele>1357</ele>
        <time>2010-01-27T11:59:19Z</time>
      </trkpt>
      <trkpt lat="45.67108" lon="6.57808">
        <ele>1357</ele>
        <time>2010-01-27T11:59:36Z</time>
      </trkpt>
      <trkpt lat="45.67081" lon="6.57801">
        <ele>1369</ele>
        <time>2010-01-27T11:59:47Z</time>
      </trkpt>
      <trkpt lat="45.66995" lon="6.57792">
        <ele>1378</ele>
        <time>2010-01-27T12:00:22Z</time>
      </trkpt>
      <trkpt lat="45.66866" lon="6.57818">
        <ele>1392</ele>
        <time>2010-01-27T12:01:14Z</time>
      </trkpt>
      <trkpt lat="45.66825" lon="6.5781">
        <ele>1393</ele>
        <time>2010-01-27T12:01:31Z</time>
      </trkpt>
      <trkpt lat="45.66783" lon="6.57812">
        <ele>1391</ele>
        <time>2010-01-27T12:01:48Z</time>
      </trkpt>
      <trkpt lat="45.66766" lon="6.57816">
        <ele>1391</ele>
        <time>2010-01-27T12:01:54Z</time>
      </trkpt>
      <trkpt lat="45.66731" lon="6.57839">
        <ele>1403</ele>
        <time>2010-01-27T12:02:10Z</time>
      </trkpt>
      <trkpt lat="45.66713" lon="6.57846">
        <ele>1406</ele>
        <time>2010-01-27T12:02:18Z</time>
      </trkpt>
      <trkpt lat="45.66692" lon="6.57849">
        <ele>1404</ele>
        <time>2010-01-27T12:02:26Z</time>
      </trkpt>
      <trkpt lat="45.66648" lon="6.57867">
        <ele>1404</ele>
        <time>2010-01-27T12:02:44Z</time>
      </trkpt>
      <trkpt lat="45.66612" lon="6.57869">
        <ele>1404</ele>
        <time>2010-01-27T12:02:59Z</time>
      </trkpt>
      <trkpt lat="45.66572" lon="6.57892">
        <ele>1407</ele>
        <time>2010-01-27T12:03:16Z</time>
      </trkpt>
      <trkpt lat="45.66532" lon="6.57906">
        <ele>1406</ele>
        <time>2010-01-27T12:03:32Z</time>
      </trkpt>
      <trkpt lat="45.66456" lon="6.57924">
        <ele>1431</ele>
        <time>2010-01-27T12:04:03Z</time>
      </trkpt>
      <trkpt lat="45.66401" lon="6.57926">
        <ele>1429</ele>
        <time>2010-01-27T12:04:25Z</time>
      </trkpt>
      <trkpt lat="45.66337" lon="6.57918">
        <ele>1430</ele>
        <time>2010-01-27T12:04:51Z</time>
      </trkpt>
      <trkpt lat="45.66317" lon="6.5791">
        <ele>1426</ele>
        <time>2010-01-27T12:05:00Z</time>
      </trkpt>
      <trkpt lat="45.66299" lon="6.57899">
        <ele>1426</ele>
        <time>2010-01-27T12:05:07Z</time>
      </trkpt>
      <trkpt lat="45.66237" lon="6.57853">
        <ele>1428</ele>
        <time>2010-01-27T12:05:35Z</time>
      </trkpt>
      <trkpt lat="45.66212" lon="6.57848">
        <ele>1430</ele>
        <time>2010-01-27T12:05:45Z</time>
      </trkpt>
      <trkpt lat="45.66194" lon="6.5785">
        <ele>1431</ele>
        <time>2010-01-27T12:05:52Z</time>
      </trkpt>
      <trkpt lat="45.6616" lon="6.57876">
        <ele>1441</ele>
        <time>2010-01-27T12:06:08Z</time>
      </trkpt>
      <trkpt lat="45.66113" lon="6.57861">
        <ele>1443</ele>
        <time>2010-01-27T12:06:27Z</time>
      </trkpt>
      <trkpt lat="45.66102" lon="6.57849">
        <ele>1444</ele>
        <time>2010-01-27T12:06:33Z</time>
      </trkpt>
      <trkpt lat="45.66082" lon="6.57805">
        <ele>1445</ele>
        <time>2010-01-27T12:06:48Z</time>
      </trkpt>
      <trkpt lat="45.66067" lon="6.57794">
        <ele>1444</ele>
        <time>2010-01-27T12:06:54Z</time>
      </trkpt>
      <trkpt lat="45.66052" lon="6.57793">
        <ele>1444</ele>
        <time>2010-01-27T12:07:00Z</time>
      </trkpt>
      <trkpt lat="45.66017" lon="6.578">
        <ele>1445</ele>
        <time>2010-01-27T12:07:15Z</time>
      </trkpt>
      <trkpt lat="45.66002" lon="6.57812">
        <ele>1445</ele>
        <time>2010-01-27T12:07:21Z</time>
      </trkpt>
      <trkpt lat="45.65965" lon="6.57885">
        <ele>1451</ele>
        <time>2010-01-27T12:07:47Z</time>
      </trkpt>
      <trkpt lat="45.65937" lon="6.57893">
        <ele>1452</ele>
        <time>2010-01-27T12:07:58Z</time>
      </trkpt>
      <trkpt lat="45.65926" lon="6.57896">
        <ele>1453</ele>
        <time>2010-01-27T12:08:02Z</time>
      </trkpt>
      <trkpt lat="45.65805" lon="6.57903">
        <ele>1464</ele>
        <time>2010-01-27T12:08:51Z</time>
      </trkpt>
      <trkpt lat="45.65789" lon="6.57897">
        <ele>1464</ele>
        <time>2010-01-27T12:08:58Z</time>
      </trkpt>
      <trkpt lat="45.65743" lon="6.57859">
        <ele>1469</ele>
        <time>2010-01-27T12:09:19Z</time>
      </trkpt>
      <trkpt lat="45.65695" lon="6.57855">
        <ele>1473</ele>
        <time>2010-01-27T12:09:38Z</time>
      </trkpt>
      <trkpt lat="45.65652" lon="6.57828">
        <ele>1471</ele>
        <time>2010-01-27T12:09:57Z</time>
      </trkpt>
      <trkpt lat="45.65611" lon="6.57825">
        <ele>1472</ele>
        <time>2010-01-27T12:10:13Z</time>
      </trkpt>
      <trkpt lat="45.65573" lon="6.57837">
        <ele>1482</ele>
        <time>2010-01-27T12:10:29Z</time>
      </trkpt>
      <trkpt lat="45.65542" lon="6.57841">
        <ele>1489</ele>
        <time>2010-01-27T12:10:42Z</time>
      </trkpt>
      <trkpt lat="45.65398" lon="6.57835">
        <ele>1499</ele>
        <time>2010-01-27T12:11:39Z</time>
      </trkpt>
      <trkpt lat="45.65342" lon="6.57839">
        <ele>1494</ele>
        <time>2010-01-27T12:12:02Z</time>
      </trkpt>
      <trkpt lat="45.65271" lon="6.57853">
        <ele>1500</ele>
        <time>2010-01-27T12:12:31Z</time>
      </trkpt>
      <trkpt lat="45.65234" lon="6.57865">
        <ele>1503</ele>
        <time>2010-01-27T12:12:46Z</time>
      </trkpt>
      <trkpt lat="45.65189" lon="6.57906">
        <ele>1507</ele>
        <time>2010-01-27T12:13:07Z</time>
      </trkpt>
      <trkpt lat="45.65202" lon="6.5791">
        <ele>1508</ele>
        <time>2010-01-27T12:13:12Z</time>
      </trkpt>
      <trkpt lat="45.65272" lon="6.57898">
        <ele>1509</ele>
        <time>2010-01-27T12:13:41Z</time>
      </trkpt>
      <trkpt lat="45.6533" lon="6.57897">
        <ele>1513</ele>
        <time>2010-01-27T12:14:04Z</time>
      </trkpt>
      <trkpt lat="45.65386" lon="6.57912">
        <ele>1515</ele>
        <time>2010-01-27T12:14:27Z</time>
      </trkpt>
      <trkpt lat="45.65425" lon="6.57936">
        <ele>1532</ele>
        <time>2010-01-27T12:14:44Z</time>
      </trkpt>
      <trkpt lat="45.65467" lon="6.57949">
        <ele>1533</ele>
        <time>2010-01-27T12:15:01Z</time>
      </trkpt>
      <trkpt lat="45.65551" lon="6.57997">
        <ele>1523</ele>
        <time>2010-01-27T12:15:37Z</time>
      </trkpt>
      <trkpt lat="45.65583" lon="6.58023">
        <ele>1540</ele>
        <time>2010-01-27T12:15:52Z</time>
      </trkpt>
      <trkpt lat="45.65587" lon="6.58034">
        <ele>1537</ele>
        <time>2010-01-27T12:15:55Z</time>
      </trkpt>
      <trkpt lat="45.65588" lon="6.58046">
        <ele>1540</ele>
        <time>2010-01-27T12:15:59Z</time>
      </trkpt>
      <trkpt lat="45.65578" lon="6.58052">
        <ele>1549</ele>
        <time>2010-01-27T12:16:03Z</time>
      </trkpt>
      <trkpt lat="45.65562" lon="6.58043">
        <ele>1547</ele>
        <time>2010-01-27T12:16:10Z</time>
      </trkpt>
      <trkpt lat="45.65544" lon="6.58029">
        <ele>1546</ele>
        <time>2010-01-27T12:16:18Z</time>
      </trkpt>
      <trkpt lat="45.65533" lon="6.58026">
        <ele>1546</ele>
        <time>2010-01-27T12:16:23Z</time>
      </trkpt>
      <trkpt lat="45.6543" lon="6.58016">
        <ele>1571</ele>
        <time>2010-01-27T12:17:04Z</time>
      </trkpt>
      <trkpt lat="45.65376" lon="6.57988">
        <ele>1557</ele>
        <time>2010-01-27T12:17:27Z</time>
      </trkpt>
      <trkpt lat="45.65309" lon="6.57987">
        <ele>1558</ele>
        <time>2010-01-27T12:17:54Z</time>
      </trkpt>
      <trkpt lat="45.6525" lon="6.5801">
        <ele>1575</ele>
        <time>2010-01-27T12:18:19Z</time>
      </trkpt>
      <trkpt lat="45.65155" lon="6.5808">
        <ele>1577</ele>
        <time>2010-01-27T12:19:02Z</time>
      </trkpt>
      <trkpt lat="45.65106" lon="6.58096">
        <ele>1575</ele>
        <time>2010-01-27T12:19:22Z</time>
      </trkpt>
      <trkpt lat="45.65126" lon="6.58133">
        <ele>1583</ele>
        <time>2010-01-27T12:19:35Z</time>
      </trkpt>
      <trkpt lat="45.6513" lon="6.58195">
        <ele>1589</ele>
        <time>2010-01-27T12:19:52Z</time>
      </trkpt>
      <trkpt lat="45.65147" lon="6.5823">
        <ele>1592</ele>
        <time>2010-01-27T12:20:04Z</time>
      </trkpt>
      <trkpt lat="45.65165" lon="6.58342">
        <ele>1597</ele>
        <time>2010-01-27T12:20:36Z</time>
      </trkpt>
      <trkpt lat="45.65163" lon="6.58377">
        <ele>1596</ele>
        <time>2010-01-27T12:20:46Z</time>
      </trkpt>
      <trkpt lat="45.65153" lon="6.58414">
        <ele>1601</ele>
        <time>2010-01-27T12:20:57Z</time>
      </trkpt>
      <trkpt lat="45.65154" lon="6.58441">
        <ele>1608</ele>
        <time>2010-01-27T12:21:05Z</time>
      </trkpt>
      <trkpt lat="45.65096" lon="6.58529">
        <ele>1621</ele>
        <time>2010-01-27T12:21:39Z</time>
      </trkpt>
      <trkpt lat="45.65092" lon="6.58543">
        <ele>1624</ele>
        <time>2010-01-27T12:21:43Z</time>
      </trkpt>
      <trkpt lat="45.65094" lon="6.58586">
        <ele>1637</ele>
        <time>2010-01-27T12:21:55Z</time>
      </trkpt>
      <trkpt lat="45.65088" lon="6.58608">
        <ele>1643</ele>
        <time>2010-01-27T12:22:02Z</time>
      </trkpt>
      <trkpt lat="45.65075" lon="6.58615">
        <ele>1638</ele>
        <time>2010-01-27T12:22:07Z</time>
      </trkpt>
      <trkpt lat="45.65065" lon="6.58613">
        <ele>1638</ele>
        <time>2010-01-27T12:22:11Z</time>
      </trkpt>
      <trkpt lat="45.65017" lon="6.58587">
        <ele>1633</ele>
        <time>2010-01-27T12:22:32Z</time>
      </trkpt>
      <trkpt lat="45.64997" lon="6.58593">
        <ele>1626</ele>
        <time>2010-01-27T12:22:40Z</time>
      </trkpt>
      <trkpt lat="45.64987" lon="6.58621">
        <ele>1626</ele>
        <time>2010-01-27T12:22:49Z</time>
      </trkpt>
      <trkpt lat="45.64985" lon="6.58657">
        <ele>1634</ele>
        <time>2010-01-27T12:22:59Z</time>
      </trkpt>
      <trkpt lat="45.6496" lon="6.58686">
        <ele>1649</ele>
        <time>2010-01-27T12:23:12Z</time>
      </trkpt>
      <trkpt lat="45.64942" lon="6.58721">
        <ele>1657</ele>
        <time>2010-01-27T12:23:24Z</time>
      </trkpt>
      <trkpt lat="45.64918" lon="6.58727">
        <ele>1661</ele>
        <time>2010-01-27T12:23:34Z</time>
      </trkpt>
      <trkpt lat="45.64892" lon="6.5873">
        <ele>1666</ele>
        <time>2010-01-27T12:23:44Z</time>
      </trkpt>
      <trkpt lat="45.64864" lon="6.58724">
        <ele>1670</ele>
        <time>2010-01-27T12:23:56Z</time>
      </trkpt>
      <trkpt lat="45.64775" lon="6.58674">
        <ele>1691</ele>
        <time>2010-01-27T12:24:34Z</time>
      </trkpt>
      <trkpt lat="45.64744" lon="6.58643">
        <ele>1680</ele>
        <time>2010-01-27T12:24:49Z</time>
      </trkpt>
      <trkpt lat="45.64695" lon="6.58627">
        <ele>1677</ele>
        <time>2010-01-27T12:25:09Z</time>
      </trkpt>
      <trkpt lat="45.64659" lon="6.58589">
        <ele>1680</ele>
        <time>2010-01-27T12:25:27Z</time>
      </trkpt>
      <trkpt lat="45.64643" lon="6.58565">
        <ele>1669</ele>
        <time>2010-01-27T12:25:36Z</time>
      </trkpt>
      <trkpt lat="45.6464" lon="6.58562">
        <ele>1669</ele>
        <time>2010-01-27T12:25:38Z</time>
      </trkpt>
      <trkpt lat="45.64609" lon="6.58534">
        <ele>1669</ele>
        <time>2010-01-27T12:25:53Z</time>
      </trkpt>
      <trkpt lat="45.64592" lon="6.58524">
        <ele>1669</ele>
        <time>2010-01-27T12:26:00Z</time>
      </trkpt>
      <trkpt lat="45.64556" lon="6.58508">
        <ele>1681</ele>
        <time>2010-01-27T12:26:15Z</time>
      </trkpt>
      <trkpt lat="45.64516" lon="6.5847">
        <ele>1662</ele>
        <time>2010-01-27T12:26:34Z</time>
      </trkpt>
      <trkpt lat="45.64472" lon="6.5846">
        <ele>1664</ele>
        <time>2010-01-27T12:26:52Z</time>
      </trkpt>
      <trkpt lat="45.64441" lon="6.58462">
        <ele>1663</ele>
        <time>2010-01-27T12:27:05Z</time>
      </trkpt>
      <trkpt lat="45.64417" lon="6.58472">
        <ele>1665</ele>
        <time>2010-01-27T12:27:14Z</time>
      </trkpt>
      <trkpt lat="45.64377" lon="6.58507">
        <ele>1673</ele>
        <time>2010-01-27T12:27:33Z</time>
      </trkpt>
      <trkpt lat="45.64325" lon="6.58525">
        <ele>1658</ele>
        <time>2010-01-27T12:27:55Z</time>
      </trkpt>
      <trkpt lat="45.64279" lon="6.58581">
        <ele>1660</ele>
        <time>2010-01-27T12:28:19Z</time>
      </trkpt>
      <trkpt lat="45.64264" lon="6.58597">
        <ele>1671</ele>
        <time>2010-01-27T12:28:26Z</time>
      </trkpt>
      <trkpt lat="45.6421" lon="6.5862">
        <ele>1657</ele>
        <time>2010-01-27T12:28:49Z</time>
      </trkpt>
      <trkpt lat="45.6419" lon="6.58649">
        <ele>1658</ele>
        <time>2010-01-27T12:29:01Z</time>
      </trkpt>
      <trkpt lat="45.64157" lon="6.58658">
        <ele>1647</ele>
        <time>2010-01-27T12:29:14Z</time>
      </trkpt>
      <trkpt lat="45.64104" lon="6.58695">
        <ele>1659</ele>
        <time>2010-01-27T12:29:38Z</time>
      </trkpt>
      <trkpt lat="45.64082" lon="6.58704">
        <ele>1649</ele>
        <time>2010-01-27T12:29:47Z</time>
      </trkpt>
      <trkpt lat="45.63996" lon="6.58711">
        <ele>1638</ele>
        <time>2010-01-27T12:30:21Z</time>
      </trkpt>
      <trkpt lat="45.63926" lon="6.58744">
        <ele>1641</ele>
        <time>2010-01-27T12:30:51Z</time>
      </trkpt>
      <trkpt lat="45.63879" lon="6.5874">
        <ele>1633</ele>
        <time>2010-01-27T12:31:10Z</time>
      </trkpt>
      <trkpt lat="45.63841" lon="6.58758">
        <ele>1644</ele>
        <time>2010-01-27T12:31:26Z</time>
      </trkpt>
      <trkpt lat="45.63799" lon="6.58768">
        <ele>1645</ele>
        <time>2010-01-27T12:31:43Z</time>
      </trkpt>
      <trkpt lat="45.63785" lon="6.58783">
        <ele>1647</ele>
        <time>2010-01-27T12:31:50Z</time>
      </trkpt>
      <trkpt lat="45.6378" lon="6.58799">
        <ele>1649</ele>
        <time>2010-01-27T12:31:55Z</time>
      </trkpt>
      <trkpt lat="45.63766" lon="6.58814">
        <ele>1651</ele>
        <time>2010-01-27T12:32:02Z</time>
      </trkpt>
      <trkpt lat="45.6375" lon="6.58815">
        <ele>1651</ele>
        <time>2010-01-27T12:32:08Z</time>
      </trkpt>
      <trkpt lat="45.63693" lon="6.58796">
        <ele>1654</ele>
        <time>2010-01-27T12:32:32Z</time>
      </trkpt>
      <trkpt lat="45.63673" lon="6.58799">
        <ele>1656</ele>
        <time>2010-01-27T12:32:40Z</time>
      </trkpt>
      <trkpt lat="45.63629" lon="6.58825">
        <ele>1656</ele>
        <time>2010-01-27T12:32:59Z</time>
      </trkpt>
      <trkpt lat="45.63591" lon="6.5884">
        <ele>1664</ele>
        <time>2010-01-27T12:33:14Z</time>
      </trkpt>
      <trkpt lat="45.63577" lon="6.58852">
        <ele>1663</ele>
        <time>2010-01-27T12:33:21Z</time>
      </trkpt>
      <trkpt lat="45.63566" lon="6.58867">
        <ele>1666</ele>
        <time>2010-01-27T12:33:27Z</time>
      </trkpt>
      <trkpt lat="45.63568" lon="6.58883">
        <ele>1668</ele>
        <time>2010-01-27T12:33:32Z</time>
      </trkpt>
      <trkpt lat="45.63634" lon="6.58878">
        <ele>1676</ele>
        <time>2010-01-27T12:33:58Z</time>
      </trkpt>
      <trkpt lat="45.63696" lon="6.58902">
        <ele>1678</ele>
        <time>2010-01-27T12:34:24Z</time>
      </trkpt>
      <trkpt lat="45.63695" lon="6.5892">
        <ele>1692</ele>
        <time>2010-01-27T12:34:29Z</time>
      </trkpt>
      <trkpt lat="45.63652" lon="6.58932">
        <ele>1693</ele>
        <time>2010-01-27T12:34:47Z</time>
      </trkpt>
      <trkpt lat="45.63643" lon="6.58939">
        <ele>1694</ele>
        <time>2010-01-27T12:34:51Z</time>
      </trkpt>
      <trkpt lat="45.63626" lon="6.58946">
        <ele>1694</ele>
        <time>2010-01-27T12:34:58Z</time>
      </trkpt>
      <trkpt lat="45.636" lon="6.58951">
        <ele>1693</ele>
        <time>2010-01-27T12:35:08Z</time>
      </trkpt>
      <trkpt lat="45.63577" lon="6.59002">
        <ele>1703</ele>
        <time>2010-01-27T12:35:25Z</time>
      </trkpt>
      <trkpt lat="45.63539" lon="6.5904">
        <ele>1709</ele>
        <time>2010-01-27T12:35:44Z</time>
      </trkpt>
      <trkpt lat="45.63501" lon="6.59065">
        <ele>1712</ele>
        <time>2010-01-27T12:36:01Z</time>
      </trkpt>
      <trkpt lat="45.63479" lon="6.59095">
        <ele>1721</ele>
        <time>2010-01-27T12:36:13Z</time>
      </trkpt>
      <trkpt lat="45.63433" lon="6.59103">
        <ele>1719</ele>
        <time>2010-01-27T12:36:31Z</time>
      </trkpt>
      <trkpt lat="45.63416" lon="6.5911">
        <ele>1716</ele>
        <time>2010-01-27T12:36:39Z</time>
      </trkpt>
      <trkpt lat="45.63373" lon="6.5914">
        <ele>1720</ele>
        <time>2010-01-27T12:36:58Z</time>
      </trkpt>
      <trkpt lat="45.63353" lon="6.5916">
        <ele>1721</ele>
        <time>2010-01-27T12:37:07Z</time>
      </trkpt>
      <trkpt lat="45.63333" lon="6.59164">
        <ele>1723</ele>
        <time>2010-01-27T12:37:16Z</time>
      </trkpt>
      <trkpt lat="45.63297" lon="6.59182">
        <ele>1726</ele>
        <time>2010-01-27T12:37:31Z</time>
      </trkpt>
      <trkpt lat="45.63289" lon="6.59188">
        <ele>1726</ele>
        <time>2010-01-27T12:37:34Z</time>
      </trkpt>
      <trkpt lat="45.63287" lon="6.592">
        <ele>1727</ele>
        <time>2010-01-27T12:37:38Z</time>
      </trkpt>
      <trkpt lat="45.6329" lon="6.59208">
        <ele>1728</ele>
        <time>2010-01-27T12:37:40Z</time>
      </trkpt>
      <trkpt lat="45.63334" lon="6.59222">
        <ele>1742</ele>
        <time>2010-01-27T12:37:58Z</time>
      </trkpt>
      <trkpt lat="45.63411" lon="6.5921">
        <ele>1742</ele>
        <time>2010-01-27T12:38:29Z</time>
      </trkpt>
      <trkpt lat="45.63453" lon="6.5922">
        <ele>1749</ele>
        <time>2010-01-27T12:38:47Z</time>
      </trkpt>
      <trkpt lat="45.63483" lon="6.59207">
        <ele>1749</ele>
        <time>2010-01-27T12:38:59Z</time>
      </trkpt>
      <trkpt lat="45.63508" lon="6.59218">
        <ele>1755</ele>
        <time>2010-01-27T12:39:10Z</time>
      </trkpt>
      <trkpt lat="45.63557" lon="6.5923">
        <ele>1757</ele>
        <time>2010-01-27T12:39:30Z</time>
      </trkpt>
      <trkpt lat="45.63565" lon="6.59239">
        <ele>1760</ele>
        <time>2010-01-27T12:39:34Z</time>
      </trkpt>
      <trkpt lat="45.63572" lon="6.5926">
        <ele>1775</ele>
        <time>2010-01-27T12:39:40Z</time>
      </trkpt>
      <trkpt lat="45.6357" lon="6.59266">
        <ele>1777</ele>
        <time>2010-01-27T12:39:42Z</time>
      </trkpt>
      <trkpt lat="45.63563" lon="6.59268">
        <ele>1778</ele>
        <time>2010-01-27T12:39:45Z</time>
      </trkpt>
      <trkpt lat="45.63514" lon="6.59265">
        <ele>1776</ele>
        <time>2010-01-27T12:40:04Z</time>
      </trkpt>
      <trkpt lat="45.63491" lon="6.59285">
        <ele>1778</ele>
        <time>2010-01-27T12:40:15Z</time>
      </trkpt>
      <trkpt lat="45.63446" lon="6.59295">
        <ele>1779</ele>
        <time>2010-01-27T12:40:34Z</time>
      </trkpt>
      <trkpt lat="45.6343" lon="6.59303">
        <ele>1781</ele>
        <time>2010-01-27T12:40:40Z</time>
      </trkpt>
      <trkpt lat="45.63376" lon="6.59307">
        <ele>1773</ele>
        <time>2010-01-27T12:41:02Z</time>
      </trkpt>
      <trkpt lat="45.63335" lon="6.5932">
        <ele>1777</ele>
        <time>2010-01-27T12:41:19Z</time>
      </trkpt>
      <trkpt lat="45.63323" lon="6.59329">
        <ele>1773</ele>
        <time>2010-01-27T12:41:24Z</time>
      </trkpt>
      <trkpt lat="45.63308" lon="6.5935">
        <ele>1783</ele>
        <time>2010-01-27T12:41:33Z</time>
      </trkpt>
      <trkpt lat="45.63307" lon="6.5935">
        <ele>1783</ele>
        <time>2010-01-27T12:41:33Z</time>
      </trkpt>
      <trkpt lat="45.63271" lon="6.59418">
        <ele>1796</ele>
        <time>2010-01-27T12:41:57Z</time>
      </trkpt>
      <trkpt lat="45.63257" lon="6.59457">
        <ele>1800</ele>
        <time>2010-01-27T12:42:09Z</time>
      </trkpt>
      <trkpt lat="45.63259" lon="6.59474">
        <ele>1802</ele>
        <time>2010-01-27T12:42:14Z</time>
      </trkpt>
      <trkpt lat="45.6327" lon="6.59471">
        <ele>1803</ele>
        <time>2010-01-27T12:42:19Z</time>
      </trkpt>
      <trkpt lat="45.63294" lon="6.59438">
        <ele>1803</ele>
        <time>2010-01-27T12:42:32Z</time>
      </trkpt>
      <trkpt lat="45.63301" lon="6.5944">
        <ele>1804</ele>
        <time>2010-01-27T12:42:35Z</time>
      </trkpt>
      <trkpt lat="45.633" lon="6.59452">
        <ele>1805</ele>
        <time>2010-01-27T12:42:38Z</time>
      </trkpt>
      <trkpt lat="45.63279" lon="6.59493">
        <ele>1805</ele>
        <time>2010-01-27T12:42:53Z</time>
      </trkpt>
      <trkpt lat="45.63271" lon="6.5952">
        <ele>1817</ele>
        <time>2010-01-27T12:43:01Z</time>
      </trkpt>
      <trkpt lat="45.63232" lon="6.59571">
        <ele>1811</ele>
        <time>2010-01-27T12:43:22Z</time>
      </trkpt>
      <trkpt lat="45.63222" lon="6.59614">
        <ele>1821</ele>
        <time>2010-01-27T12:43:35Z</time>
      </trkpt>
      <trkpt lat="45.63203" lon="6.59624">
        <ele>1819</ele>
        <time>2010-01-27T12:43:43Z</time>
      </trkpt>
      <trkpt lat="45.63198" lon="6.59632">
        <ele>1819</ele>
        <time>2010-01-27T12:43:46Z</time>
      </trkpt>
      <trkpt lat="45.63194" lon="6.59662">
        <ele>1820</ele>
        <time>2010-01-27T12:43:54Z</time>
      </trkpt>
      <trkpt lat="45.63196" lon="6.59675">
        <ele>1832</ele>
        <time>2010-01-27T12:43:58Z</time>
      </trkpt>
      <trkpt lat="45.63192" lon="6.5969">
        <ele>1833</ele>
        <time>2010-01-27T12:44:02Z</time>
      </trkpt>
      <trkpt lat="45.63149" lon="6.59705">
        <ele>1824</ele>
        <time>2010-01-27T12:44:20Z</time>
      </trkpt>
      <trkpt lat="45.63121" lon="6.59744">
        <ele>1826</ele>
        <time>2010-01-27T12:44:36Z</time>
      </trkpt>
      <trkpt lat="45.63092" lon="6.59768">
        <ele>1836</ele>
        <time>2010-01-27T12:44:49Z</time>
      </trkpt>
      <trkpt lat="45.63069" lon="6.59819">
        <ele>1839</ele>
        <time>2010-01-27T12:45:06Z</time>
      </trkpt>
      <trkpt lat="45.63008" lon="6.59847">
        <ele>1846</ele>
        <time>2010-01-27T12:45:32Z</time>
      </trkpt>
      <trkpt lat="45.62992" lon="6.5986">
        <ele>1847</ele>
        <time>2010-01-27T12:45:39Z</time>
      </trkpt>
      <trkpt lat="45.62948" lon="6.59912">
        <ele>1853</ele>
        <time>2010-01-27T12:46:02Z</time>
      </trkpt>
      <trkpt lat="45.62907" lon="6.59925">
        <ele>1861</ele>
        <time>2010-01-27T12:46:19Z</time>
      </trkpt>
      <trkpt lat="45.62903" lon="6.59927">
        <ele>1862</ele>
        <time>2010-01-27T12:46:21Z</time>
      </trkpt>
      <trkpt lat="45.62902" lon="6.59938">
        <ele>1865</ele>
        <time>2010-01-27T12:46:24Z</time>
      </trkpt>
      <trkpt lat="45.62907" lon="6.59941">
        <ele>1865</ele>
        <time>2010-01-27T12:46:26Z</time>
      </trkpt>
      <trkpt lat="45.62925" lon="6.59939">
        <ele>1870</ele>
        <time>2010-01-27T12:46:33Z</time>
      </trkpt>
      <trkpt lat="45.6299" lon="6.5992">
        <ele>1870</ele>
        <time>2010-01-27T12:47:00Z</time>
      </trkpt>
      <trkpt lat="45.63002" lon="6.59921">
        <ele>1869</ele>
        <time>2010-01-27T12:47:05Z</time>
      </trkpt>
      <trkpt lat="45.63006" lon="6.5993">
        <ele>1876</ele>
        <time>2010-01-27T12:47:08Z</time>
      </trkpt>
      <trkpt lat="45.62988" lon="6.59953">
        <ele>1879</ele>
        <time>2010-01-27T12:47:18Z</time>
      </trkpt>
      <trkpt lat="45.62972" lon="6.59965">
        <ele>1881</ele>
        <time>2010-01-27T12:47:25Z</time>
      </trkpt>
      <trkpt lat="45.62943" lon="6.59973">
        <ele>1881</ele>
        <time>2010-01-27T12:47:37Z</time>
      </trkpt>
      <trkpt lat="45.62904" lon="6.60008">
        <ele>1892</ele>
        <time>2010-01-27T12:47:55Z</time>
      </trkpt>
      <trkpt lat="45.62875" lon="6.60023">
        <ele>1893</ele>
        <time>2010-01-27T12:48:07Z</time>
      </trkpt>
      <trkpt lat="45.62857" lon="6.60065">
        <ele>1899</ele>
        <time>2010-01-27T12:48:21Z</time>
      </trkpt>
      <trkpt lat="45.62847" lon="6.6007">
        <ele>1899</ele>
        <time>2010-01-27T12:48:25Z</time>
      </trkpt>
      <trkpt lat="45.6279" lon="6.60075">
        <ele>1894</ele>
        <time>2010-01-27T12:48:48Z</time>
      </trkpt>
      <trkpt lat="45.62754" lon="6.6006">
        <ele>1894</ele>
        <time>2010-01-27T12:49:03Z</time>
      </trkpt>
      <trkpt lat="45.62692" lon="6.60047">
        <ele>1895</ele>
        <time>2010-01-27T12:49:29Z</time>
      </trkpt>
      <trkpt lat="45.62655" lon="6.60031">
        <ele>1899</ele>
        <time>2010-01-27T12:49:44Z</time>
      </trkpt>
      <trkpt lat="45.62613" lon="6.60041">
        <ele>1902</ele>
        <time>2010-01-27T12:50:01Z</time>
      </trkpt>
      <trkpt lat="45.62599" lon="6.60051">
        <ele>1903</ele>
        <time>2010-01-27T12:50:07Z</time>
      </trkpt>
      <trkpt lat="45.62586" lon="6.60093">
        <ele>1908</ele>
        <time>2010-01-27T12:50:20Z</time>
      </trkpt>
      <trkpt lat="45.6256" lon="6.60128">
        <ele>1918</ele>
        <time>2010-01-27T12:50:34Z</time>
      </trkpt>
      <trkpt lat="45.62556" lon="6.60151">
        <ele>1919</ele>
        <time>2010-01-27T12:50:41Z</time>
      </trkpt>
      <trkpt lat="45.62588" lon="6.60256">
        <ele>1929</ele>
        <time>2010-01-27T12:51:13Z</time>
      </trkpt>
      <trkpt lat="45.62576" lon="6.60261">
        <ele>1936</ele>
        <time>2010-01-27T12:51:18Z</time>
      </trkpt>
      <trkpt lat="45.62559" lon="6.60235">
        <ele>1931</ele>
        <time>2010-01-27T12:51:28Z</time>
      </trkpt>
      <trkpt lat="45.62535" lon="6.60227">
        <ele>1934</ele>
        <time>2010-01-27T12:51:38Z</time>
      </trkpt>
      <trkpt lat="45.6252" lon="6.60209">
        <ele>1934</ele>
        <time>2010-01-27T12:51:46Z</time>
      </trkpt>
      <trkpt lat="45.62509" lon="6.60215">
        <ele>1936</ele>
        <time>2010-01-27T12:51:50Z</time>
      </trkpt>
      <trkpt lat="45.62509" lon="6.60236">
        <ele>1942</ele>
        <time>2010-01-27T12:51:57Z</time>
      </trkpt>
      <trkpt lat="45.62549" lon="6.60273">
        <ele>1945</ele>
        <time>2010-01-27T12:52:16Z</time>
      </trkpt>
      <trkpt lat="45.62596" lon="6.60331">
        <ele>1943</ele>
        <time>2010-01-27T12:52:40Z</time>
      </trkpt>
      <trkpt lat="45.62628" lon="6.60393">
        <ele>1957</ele>
        <time>2010-01-27T12:53:02Z</time>
      </trkpt>
      <trkpt lat="45.62639" lon="6.60397">
        <ele>1958</ele>
        <time>2010-01-27T12:53:07Z</time>
      </trkpt>
      <trkpt lat="45.62672" lon="6.60378">
        <ele>1955</ele>
        <time>2010-01-27T12:53:21Z</time>
      </trkpt>
      <trkpt lat="45.62695" lon="6.60376">
        <ele>1955</ele>
        <time>2010-01-27T12:53:30Z</time>
      </trkpt>
      <trkpt lat="45.62702" lon="6.60379">
        <ele>1956</ele>
        <time>2010-01-27T12:53:33Z</time>
      </trkpt>
      <trkpt lat="45.62709" lon="6.60404">
        <ele>1959</ele>
        <time>2010-01-27T12:53:41Z</time>
      </trkpt>
      <trkpt lat="45.62705" lon="6.60412">
        <ele>1960</ele>
        <time>2010-01-27T12:53:43Z</time>
      </trkpt>
      <trkpt lat="45.62687" lon="6.60404">
        <ele>1960</ele>
        <time>2010-01-27T12:53:51Z</time>
      </trkpt>
      <trkpt lat="45.62669" lon="6.60413">
        <ele>1964</ele>
        <time>2010-01-27T12:53:59Z</time>
      </trkpt>
      <trkpt lat="45.6264" lon="6.60442">
        <ele>1974</ele>
        <time>2010-01-27T12:54:13Z</time>
      </trkpt>
      <trkpt lat="45.62606" lon="6.60486">
        <ele>1981</ele>
        <time>2010-01-27T12:54:31Z</time>
      </trkpt>
      <trkpt lat="45.62545" lon="6.60486">
        <ele>1980</ele>
        <time>2010-01-27T12:54:55Z</time>
      </trkpt>
      <trkpt lat="45.62511" lon="6.60504">
        <ele>1994</ele>
        <time>2010-01-27T12:55:10Z</time>
      </trkpt>
      <trkpt lat="45.62449" lon="6.60501">
        <ele>2007</ele>
        <time>2010-01-27T12:55:35Z</time>
      </trkpt>
      <trkpt lat="45.62405" lon="6.60487">
        <ele>2009</ele>
        <time>2010-01-27T12:55:53Z</time>
      </trkpt>
      <trkpt lat="45.62387" lon="6.60473">
        <ele>2013</ele>
        <time>2010-01-27T12:56:01Z</time>
      </trkpt>
      <trkpt lat="45.62347" lon="6.60362">
        <ele>2004</ele>
        <time>2010-01-27T12:56:36Z</time>
      </trkpt>
      <trkpt lat="45.62293" lon="6.603">
        <ele>2023</ele>
        <time>2010-01-27T12:57:04Z</time>
      </trkpt>
      <trkpt lat="45.62283" lon="6.60218">
        <ele>2009</ele>
        <time>2010-01-27T12:57:27Z</time>
      </trkpt>
      <trkpt lat="45.62273" lon="6.60191">
        <ele>2008</ele>
        <time>2010-01-27T12:57:36Z</time>
      </trkpt>
      <trkpt lat="45.62262" lon="6.60177">
        <ele>2009</ele>
        <time>2010-01-27T12:57:42Z</time>
      </trkpt>
      <trkpt lat="45.62241" lon="6.60172">
        <ele>2017</ele>
        <time>2010-01-27T12:57:50Z</time>
      </trkpt>
      <trkpt lat="45.6223" lon="6.60179">
        <ele>2021</ele>
        <time>2010-01-27T12:57:55Z</time>
      </trkpt>
      <trkpt lat="45.62182" lon="6.60241">
        <ele>2035</ele>
        <time>2010-01-27T12:58:21Z</time>
      </trkpt>
      <trkpt lat="45.62162" lon="6.6025">
        <ele>2045</ele>
        <time>2010-01-27T12:58:29Z</time>
      </trkpt>
      <trkpt lat="45.62091" lon="6.60225">
        <ele>2051</ele>
        <time>2010-01-27T12:58:59Z</time>
      </trkpt>
      <trkpt lat="45.62027" lon="6.60133">
        <ele>2051</ele>
        <time>2010-01-27T12:59:35Z</time>
      </trkpt>
      <trkpt lat="45.62017" lon="6.60119">
        <ele>2051</ele>
        <time>2010-01-27T12:59:41Z</time>
      </trkpt>
      <trkpt lat="45.6201" lon="6.60113">
        <ele>2051</ele>
        <time>2010-01-27T12:59:44Z</time>
      </trkpt>
      <trkpt lat="45.61972" lon="6.60105">
        <ele>2080</ele>
        <time>2010-01-27T12:59:59Z</time>
      </trkpt>
      <trkpt lat="45.61959" lon="6.60089">
        <ele>2083</ele>
        <time>2010-01-27T13:00:06Z</time>
      </trkpt>
      <trkpt lat="45.61953" lon="6.60065">
        <ele>2070</ele>
        <time>2010-01-27T13:00:13Z</time>
      </trkpt>
      <trkpt lat="45.61955" lon="6.60037">
        <ele>2066</ele>
        <time>2010-01-27T13:00:21Z</time>
      </trkpt>
      <trkpt lat="45.61972" lon="6.59976">
        <ele>2047</ele>
        <time>2010-01-27T13:00:40Z</time>
      </trkpt>
      <trkpt lat="45.61967" lon="6.59968">
        <ele>2048</ele>
        <time>2010-01-27T13:00:43Z</time>
      </trkpt>
      <trkpt lat="45.61955" lon="6.59968">
        <ele>2050</ele>
        <time>2010-01-27T13:00:48Z</time>
      </trkpt>
      <trkpt lat="45.6193" lon="6.5998">
        <ele>2057</ele>
        <time>2010-01-27T13:00:58Z</time>
      </trkpt>
      <trkpt lat="45.6191" lon="6.59999">
        <ele>2069</ele>
        <time>2010-01-27T13:01:08Z</time>
      </trkpt>
      <trkpt lat="45.61841" lon="6.60036">
        <ele>2080</ele>
        <time>2010-01-27T13:01:37Z</time>
      </trkpt>
      <trkpt lat="45.61811" lon="6.60081">
        <ele>2084</ele>
        <time>2010-01-27T13:01:55Z</time>
      </trkpt>
      <trkpt lat="45.61764" lon="6.60188">
        <ele>2101</ele>
        <time>2010-01-27T13:02:30Z</time>
      </trkpt>
      <trkpt lat="45.61711" lon="6.6026">
        <ele>2102</ele>
        <time>2010-01-27T13:02:59Z</time>
      </trkpt>
      <trkpt lat="45.61706" lon="6.60277">
        <ele>2103</ele>
        <time>2010-01-27T13:03:05Z</time>
      </trkpt>
      <trkpt lat="45.61732" lon="6.60325">
        <ele>2105</ele>
        <time>2010-01-27T13:03:22Z</time>
      </trkpt>
      <trkpt lat="45.61736" lon="6.60385">
        <ele>2104</ele>
        <time>2010-01-27T13:03:39Z</time>
      </trkpt>
      <trkpt lat="45.61762" lon="6.60424">
        <ele>2103</ele>
        <time>2010-01-27T13:03:54Z</time>
      </trkpt>
      <trkpt lat="45.61768" lon="6.60501">
        <ele>2101</ele>
        <time>2010-01-27T13:04:15Z</time>
      </trkpt>
      <trkpt lat="45.61778" lon="6.60521">
        <ele>2101</ele>
        <time>2010-01-27T13:04:22Z</time>
      </trkpt>
      <trkpt lat="45.61818" lon="6.60553">
        <ele>2101</ele>
        <time>2010-01-27T13:04:40Z</time>
      </trkpt>
      <trkpt lat="45.61831" lon="6.60578">
        <ele>2100</ele>
        <time>2010-01-27T13:04:49Z</time>
      </trkpt>
      <trkpt lat="45.61872" lon="6.60694">
        <ele>2094</ele>
        <time>2010-01-27T13:05:26Z</time>
      </trkpt>
      <trkpt lat="45.61877" lon="6.6073">
        <ele>2092</ele>
        <time>2010-01-27T13:05:36Z</time>
      </trkpt>
      <trkpt lat="45.61871" lon="6.60738">
        <ele>2091</ele>
        <time>2010-01-27T13:05:39Z</time>
      </trkpt>
      <trkpt lat="45.6184" lon="6.60699">
        <ele>2091</ele>
        <time>2010-01-27T13:05:56Z</time>
      </trkpt>
      <trkpt lat="45.61827" lon="6.60694">
        <ele>2087</ele>
        <time>2010-01-27T13:06:01Z</time>
      </trkpt>
      <trkpt lat="45.61808" lon="6.60697">
        <ele>2087</ele>
        <time>2010-01-27T13:06:09Z</time>
      </trkpt>
      <trkpt lat="45.61786" lon="6.60714">
        <ele>2086</ele>
        <time>2010-01-27T13:06:19Z</time>
      </trkpt>
      <trkpt lat="45.61773" lon="6.60748">
        <ele>2084</ele>
        <time>2010-01-27T13:06:30Z</time>
      </trkpt>
      <trkpt lat="45.61752" lon="6.6078">
        <ele>2074</ele>
        <time>2010-01-27T13:06:42Z</time>
      </trkpt>
      <trkpt lat="45.61749" lon="6.60794">
        <ele>2077</ele>
        <time>2010-01-27T13:06:46Z</time>
      </trkpt>
      <trkpt lat="45.61785" lon="6.60811">
        <ele>2070</ele>
        <time>2010-01-27T13:07:02Z</time>
      </trkpt>
      <trkpt lat="45.61827" lon="6.60813">
        <ele>2067</ele>
        <time>2010-01-27T13:07:18Z</time>
      </trkpt>
      <trkpt lat="45.61841" lon="6.6082">
        <ele>2069</ele>
        <time>2010-01-27T13:07:24Z</time>
      </trkpt>
      <trkpt lat="45.61851" lon="6.60832">
        <ele>2070</ele>
        <time>2010-01-27T13:07:29Z</time>
      </trkpt>
      <trkpt lat="45.61863" lon="6.60868">
        <ele>2064</ele>
        <time>2010-01-27T13:07:40Z</time>
      </trkpt>
      <trkpt lat="45.61864" lon="6.60922">
        <ele>2051</ele>
        <time>2010-01-27T13:07:56Z</time>
      </trkpt>
      <trkpt lat="45.61871" lon="6.60962">
        <ele>2048</ele>
        <time>2010-01-27T13:08:07Z</time>
      </trkpt>
      <trkpt lat="45.61895" lon="6.61003">
        <ele>2039</ele>
        <time>2010-01-27T13:08:22Z</time>
      </trkpt>
      <trkpt lat="45.6192" lon="6.61033">
        <ele>2051</ele>
        <time>2010-01-27T13:08:36Z</time>
      </trkpt>
      <trkpt lat="45.61935" lon="6.61062">
        <ele>2047</ele>
        <time>2010-01-27T13:08:46Z</time>
      </trkpt>
      <trkpt lat="45.61956" lon="6.6115">
        <ele>2031</ele>
        <time>2010-01-27T13:09:12Z</time>
      </trkpt>
      <trkpt lat="45.61999" lon="6.61238">
        <ele>2018</ele>
        <time>2010-01-27T13:09:42Z</time>
      </trkpt>
      <trkpt lat="45.62012" lon="6.61294">
        <ele>2022</ele>
        <time>2010-01-27T13:09:58Z</time>
      </trkpt>
      <trkpt lat="45.62031" lon="6.61326">
        <ele>2022</ele>
        <time>2010-01-27T13:10:10Z</time>
      </trkpt>
      <trkpt lat="45.62045" lon="6.61428">
        <ele>2005</ele>
        <time>2010-01-27T13:10:39Z</time>
      </trkpt>
      <trkpt lat="45.62071" lon="6.61486">
        <ele>2007</ele>
        <time>2010-01-27T13:10:58Z</time>
      </trkpt>
      <trkpt lat="45.62071" lon="6.61512">
        <ele>2005</ele>
        <time>2010-01-27T13:11:06Z</time>
      </trkpt>
      <trkpt lat="45.62036" lon="6.61589">
        <ele>2001</ele>
        <time>2010-01-27T13:11:32Z</time>
      </trkpt>
      <trkpt lat="45.62025" lon="6.61654">
        <ele>2000</ele>
        <time>2010-01-27T13:11:50Z</time>
      </trkpt>
      <trkpt lat="45.62003" lon="6.6169">
        <ele>2003</ele>
        <time>2010-01-27T13:12:04Z</time>
      </trkpt>
      <trkpt lat="45.61986" lon="6.61705">
        <ele>1984</ele>
        <time>2010-01-27T13:12:12Z</time>
      </trkpt>
      <trkpt lat="45.61948" lon="6.61724">
        <ele>1981</ele>
        <time>2010-01-27T13:12:28Z</time>
      </trkpt>
      <trkpt lat="45.6192" lon="6.61758">
        <ele>1980</ele>
        <time>2010-01-27T13:12:42Z</time>
      </trkpt>
      <trkpt lat="45.61879" lon="6.61785">
        <ele>1972</ele>
        <time>2010-01-27T13:13:00Z</time>
      </trkpt>
      <trkpt lat="45.61854" lon="6.61814">
        <ele>1970</ele>
        <time>2010-01-27T13:13:13Z</time>
      </trkpt>
      <trkpt lat="45.61828" lon="6.6183">
        <ele>1964</ele>
        <time>2010-01-27T13:13:25Z</time>
      </trkpt>
      <trkpt lat="45.61792" lon="6.61865">
        <ele>1961</ele>
        <time>2010-01-27T13:13:42Z</time>
      </trkpt>
      <trkpt lat="45.61783" lon="6.61855">
        <ele>1960</ele>
        <time>2010-01-27T13:13:47Z</time>
      </trkpt>
      <trkpt lat="45.61771" lon="6.61782">
        <ele>1955</ele>
        <time>2010-01-27T13:14:08Z</time>
      </trkpt>
      <trkpt lat="45.61765" lon="6.61769">
        <ele>1954</ele>
        <time>2010-01-27T13:14:12Z</time>
      </trkpt>
      <trkpt lat="45.61733" lon="6.61792">
        <ele>1949</ele>
        <time>2010-01-27T13:14:27Z</time>
      </trkpt>
      <trkpt lat="45.61685" lon="6.61838">
        <ele>1946</ele>
        <time>2010-01-27T13:14:50Z</time>
      </trkpt>
      <trkpt lat="45.61671" lon="6.61854">
        <ele>1945</ele>
        <time>2010-01-27T13:14:57Z</time>
      </trkpt>
      <trkpt lat="45.61628" lon="6.61957">
        <ele>1942</ele>
        <time>2010-01-27T13:15:31Z</time>
      </trkpt>
      <trkpt lat="45.6162" lon="6.61977">
        <ele>1942</ele>
        <time>2010-01-27T13:15:37Z</time>
      </trkpt>
      <trkpt lat="45.61609" lon="6.61996">
        <ele>1941</ele>
        <time>2010-01-27T13:15:44Z</time>
      </trkpt>
      <trkpt lat="45.61533" lon="6.62086">
        <ele>1940</ele>
        <time>2010-01-27T13:16:24Z</time>
      </trkpt>
      <trkpt lat="45.6152" lon="6.62132">
        <ele>1941</ele>
        <time>2010-01-27T13:16:37Z</time>
      </trkpt>
      <trkpt lat="45.61506" lon="6.62151">
        <ele>1939</ele>
        <time>2010-01-27T13:16:45Z</time>
      </trkpt>
      <trkpt lat="45.61491" lon="6.62151">
        <ele>1926</ele>
        <time>2010-01-27T13:16:51Z</time>
      </trkpt>
      <trkpt lat="45.61485" lon="6.62145">
        <ele>1923</ele>
        <time>2010-01-27T13:16:54Z</time>
      </trkpt>
      <trkpt lat="45.61458" lon="6.6207">
        <ele>1911</ele>
        <time>2010-01-27T13:17:18Z</time>
      </trkpt>
      <trkpt lat="45.61449" lon="6.62065">
        <ele>1908</ele>
        <time>2010-01-27T13:17:21Z</time>
      </trkpt>
      <trkpt lat="45.61442" lon="6.62067">
        <ele>1907</ele>
        <time>2010-01-27T13:17:24Z</time>
      </trkpt>
      <trkpt lat="45.61428" lon="6.62106">
        <ele>1908</ele>
        <time>2010-01-27T13:17:37Z</time>
      </trkpt>
      <trkpt lat="45.61445" lon="6.62152">
        <ele>1914</ele>
        <time>2010-01-27T13:17:51Z</time>
      </trkpt>
      <trkpt lat="45.61442" lon="6.62184">
        <ele>1920</ele>
        <time>2010-01-27T13:18:00Z</time>
      </trkpt>
      <trkpt lat="45.61435" lon="6.62197">
        <ele>1921</ele>
        <time>2010-01-27T13:18:05Z</time>
      </trkpt>
      <trkpt lat="45.61426" lon="6.62206">
        <ele>1921</ele>
        <time>2010-01-27T13:18:09Z</time>
      </trkpt>
      <trkpt lat="45.61344" lon="6.62251">
        <ele>1898</ele>
        <time>2010-01-27T13:18:45Z</time>
      </trkpt>
      <trkpt lat="45.6134" lon="6.62259">
        <ele>1898</ele>
        <time>2010-01-27T13:18:47Z</time>
      </trkpt>
      <trkpt lat="45.61336" lon="6.62313">
        <ele>1908</ele>
        <time>2010-01-27T13:19:03Z</time>
      </trkpt>
      <trkpt lat="45.61311" lon="6.62351">
        <ele>1890</ele>
        <time>2010-01-27T13:19:17Z</time>
      </trkpt>
      <trkpt lat="45.6129" lon="6.62414">
        <ele>1887</ele>
        <time>2010-01-27T13:19:37Z</time>
      </trkpt>
      <trkpt lat="45.61273" lon="6.62434">
        <ele>1890</ele>
        <time>2010-01-27T13:19:45Z</time>
      </trkpt>
      <trkpt lat="45.6123" lon="6.62447">
        <ele>1868</ele>
        <time>2010-01-27T13:20:03Z</time>
      </trkpt>
      <trkpt lat="45.61178" lon="6.62521">
        <ele>1877</ele>
        <time>2010-01-27T13:20:33Z</time>
      </trkpt>
      <trkpt lat="45.61139" lon="6.62564">
        <ele>1866</ele>
        <time>2010-01-27T13:20:52Z</time>
      </trkpt>
      <trkpt lat="45.61121" lon="6.62568">
        <ele>1862</ele>
        <time>2010-01-27T13:21:00Z</time>
      </trkpt>
      <trkpt lat="45.61116" lon="6.62556">
        <ele>1860</ele>
        <time>2010-01-27T13:21:04Z</time>
      </trkpt>
      <trkpt lat="45.61172" lon="6.6248">
        <ele>1862</ele>
        <time>2010-01-27T13:21:35Z</time>
      </trkpt>
      <trkpt lat="45.61183" lon="6.62445">
        <ele>1860</ele>
        <time>2010-01-27T13:21:45Z</time>
      </trkpt>
      <trkpt lat="45.61207" lon="6.62404">
        <ele>1851</ele>
        <time>2010-01-27T13:22:00Z</time>
      </trkpt>
      <trkpt lat="45.6121" lon="6.62393">
        <ele>1851</ele>
        <time>2010-01-27T13:22:03Z</time>
      </trkpt>
      <trkpt lat="45.61203" lon="6.6238">
        <ele>1849</ele>
        <time>2010-01-27T13:22:08Z</time>
      </trkpt>
      <trkpt lat="45.61184" lon="6.62383">
        <ele>1846</ele>
        <time>2010-01-27T13:22:16Z</time>
      </trkpt>
      <trkpt lat="45.61176" lon="6.62393">
        <ele>1846</ele>
        <time>2010-01-27T13:22:20Z</time>
      </trkpt>
      <trkpt lat="45.61159" lon="6.62454">
        <ele>1840</ele>
        <time>2010-01-27T13:22:38Z</time>
      </trkpt>
      <trkpt lat="45.61099" lon="6.62519">
        <ele>1850</ele>
        <time>2010-01-27T13:23:09Z</time>
      </trkpt>
      <trkpt lat="45.61079" lon="6.62536">
        <ele>1837</ele>
        <time>2010-01-27T13:23:18Z</time>
      </trkpt>
      <trkpt lat="45.6104" lon="6.62552">
        <ele>1835</ele>
        <time>2010-01-27T13:23:34Z</time>
      </trkpt>
      <trkpt lat="45.61012" lon="6.62572">
        <ele>1833</ele>
        <time>2010-01-27T13:23:47Z</time>
      </trkpt>
      <trkpt lat="45.60983" lon="6.62616">
        <ele>1822</ele>
        <time>2010-01-27T13:24:04Z</time>
      </trkpt>
      <trkpt lat="45.60965" lon="6.62635">
        <ele>1820</ele>
        <time>2010-01-27T13:24:13Z</time>
      </trkpt>
      <trkpt lat="45.60958" lon="6.6263">
        <ele>1817</ele>
        <time>2010-01-27T13:24:16Z</time>
      </trkpt>
      <trkpt lat="45.60958" lon="6.62603">
        <ele>1815</ele>
        <time>2010-01-27T13:24:23Z</time>
      </trkpt>
      <trkpt lat="45.60984" lon="6.62537">
        <ele>1805</ele>
        <time>2010-01-27T13:24:45Z</time>
      </trkpt>
      <trkpt lat="45.61039" lon="6.62459">
        <ele>1810</ele>
        <time>2010-01-27T13:25:16Z</time>
      </trkpt>
      <trkpt lat="45.61063" lon="6.62434">
        <ele>1810</ele>
        <time>2010-01-27T13:25:27Z</time>
      </trkpt>
      <trkpt lat="45.61069" lon="6.62417">
        <ele>1809</ele>
        <time>2010-01-27T13:25:33Z</time>
      </trkpt>
      <trkpt lat="45.61063" lon="6.62408">
        <ele>1800</ele>
        <time>2010-01-27T13:25:36Z</time>
      </trkpt>
      <trkpt lat="45.61051" lon="6.62415">
        <ele>1798</ele>
        <time>2010-01-27T13:25:42Z</time>
      </trkpt>
      <trkpt lat="45.60986" lon="6.62473">
        <ele>1793</ele>
        <time>2010-01-27T13:26:12Z</time>
      </trkpt>
      <trkpt lat="45.60963" lon="6.62483">
        <ele>1788</ele>
        <time>2010-01-27T13:26:22Z</time>
      </trkpt>
      <trkpt lat="45.60957" lon="6.62479">
        <ele>1787</ele>
        <time>2010-01-27T13:26:24Z</time>
      </trkpt>
      <trkpt lat="45.60959" lon="6.62462">
        <ele>1786</ele>
        <time>2010-01-27T13:26:29Z</time>
      </trkpt>
      <trkpt lat="45.61" lon="6.62423">
        <ele>1789</ele>
        <time>2010-01-27T13:26:49Z</time>
      </trkpt>
      <trkpt lat="45.61011" lon="6.62407">
        <ele>1792</ele>
        <time>2010-01-27T13:26:55Z</time>
      </trkpt>
      <trkpt lat="45.61016" lon="6.62389">
        <ele>1793</ele>
        <time>2010-01-27T13:27:01Z</time>
      </trkpt>
      <trkpt lat="45.61011" lon="6.62358">
        <ele>1792</ele>
        <time>2010-01-27T13:27:10Z</time>
      </trkpt>
      <trkpt lat="45.61003" lon="6.62343">
        <ele>1789</ele>
        <time>2010-01-27T13:27:15Z</time>
      </trkpt>
      <trkpt lat="45.60979" lon="6.62337">
        <ele>1786</ele>
        <time>2010-01-27T13:27:25Z</time>
      </trkpt>
      <trkpt lat="45.60965" lon="6.6234">
        <ele>1786</ele>
        <time>2010-01-27T13:27:31Z</time>
      </trkpt>
      <trkpt lat="45.60912" lon="6.62371">
        <ele>1783</ele>
        <time>2010-01-27T13:27:53Z</time>
      </trkpt>
      <trkpt lat="45.60876" lon="6.62431">
        <ele>1771</ele>
        <time>2010-01-27T13:28:16Z</time>
      </trkpt>
      <trkpt lat="45.60822" lon="6.62484">
        <ele>1766</ele>
        <time>2010-01-27T13:28:42Z</time>
      </trkpt>
      <trkpt lat="45.60801" lon="6.62519">
        <ele>1760</ele>
        <time>2010-01-27T13:28:55Z</time>
      </trkpt>
      <trkpt lat="45.60752" lon="6.62581">
        <ele>1756</ele>
        <time>2010-01-27T13:29:21Z</time>
      </trkpt>
      <trkpt lat="45.60734" lon="6.62616">
        <ele>1751</ele>
        <time>2010-01-27T13:29:33Z</time>
      </trkpt>
      <trkpt lat="45.60712" lon="6.6264">
        <ele>1749</ele>
        <time>2010-01-27T13:29:44Z</time>
      </trkpt>
      <trkpt lat="45.60661" lon="6.6268">
        <ele>1743</ele>
        <time>2010-01-27T13:30:08Z</time>
      </trkpt>
      <trkpt lat="45.60644" lon="6.62703">
        <ele>1741</ele>
        <time>2010-01-27T13:30:17Z</time>
      </trkpt>
      <trkpt lat="45.60626" lon="6.62747">
        <ele>1738</ele>
        <time>2010-01-27T13:30:31Z</time>
      </trkpt>
      <trkpt lat="45.60574" lon="6.62794">
        <ele>1738</ele>
        <time>2010-01-27T13:30:56Z</time>
      </trkpt>
      <trkpt lat="45.60559" lon="6.62814">
        <ele>1736</ele>
        <time>2010-01-27T13:31:04Z</time>
      </trkpt>
      <trkpt lat="45.60557" lon="6.62822">
        <ele>1735</ele>
        <time>2010-01-27T13:31:07Z</time>
      </trkpt>
      <trkpt lat="45.60566" lon="6.62837">
        <ele>1719</ele>
        <time>2010-01-27T13:31:12Z</time>
      </trkpt>
      <trkpt lat="45.6059" lon="6.62825">
        <ele>1719</ele>
        <time>2010-01-27T13:31:22Z</time>
      </trkpt>
      <trkpt lat="45.60614" lon="6.62826">
        <ele>1720</ele>
        <time>2010-01-27T13:31:32Z</time>
      </trkpt>
      <trkpt lat="45.60619" lon="6.62832">
        <ele>1720</ele>
        <time>2010-01-27T13:31:34Z</time>
      </trkpt>
      <trkpt lat="45.60621" lon="6.62853">
        <ele>1713</ele>
        <time>2010-01-27T13:31:40Z</time>
      </trkpt>
      <trkpt lat="45.60617" lon="6.62859">
        <ele>1713</ele>
        <time>2010-01-27T13:31:43Z</time>
      </trkpt>
      <trkpt lat="45.60594" lon="6.62861">
        <ele>1713</ele>
        <time>2010-01-27T13:31:52Z</time>
      </trkpt>
      <trkpt lat="45.60587" lon="6.62866">
        <ele>1713</ele>
        <time>2010-01-27T13:31:55Z</time>
      </trkpt>
      <trkpt lat="45.60573" lon="6.6288">
        <ele>1715</ele>
        <time>2010-01-27T13:32:02Z</time>
      </trkpt>
      <trkpt lat="45.60547" lon="6.62921">
        <ele>1705</ele>
        <time>2010-01-27T13:32:18Z</time>
      </trkpt>
      <trkpt lat="45.60507" lon="6.62953">
        <ele>1704</ele>
        <time>2010-01-27T13:32:36Z</time>
      </trkpt>
      <trkpt lat="45.6046" lon="6.6302">
        <ele>1697</ele>
        <time>2010-01-27T13:33:03Z</time>
      </trkpt>
      <trkpt lat="45.60434" lon="6.63075">
        <ele>1691</ele>
        <time>2010-01-27T13:33:21Z</time>
      </trkpt>
      <trkpt lat="45.6032" lon="6.63206">
        <ele>1685</ele>
        <time>2010-01-27T13:34:20Z</time>
      </trkpt>
      <trkpt lat="45.60306" lon="6.63245">
        <ele>1681</ele>
        <time>2010-01-27T13:34:32Z</time>
      </trkpt>
      <trkpt lat="45.60307" lon="6.63285">
        <ele>1667</ele>
        <time>2010-01-27T13:34:43Z</time>
      </trkpt>
      <trkpt lat="45.60308" lon="6.63301">
        <ele>1666</ele>
        <time>2010-01-27T13:34:48Z</time>
      </trkpt>
      <trkpt lat="45.60257" lon="6.63398">
        <ele>1658</ele>
        <time>2010-01-27T13:35:22Z</time>
      </trkpt>
      <trkpt lat="45.60225" lon="6.6348">
        <ele>1654</ele>
        <time>2010-01-27T13:35:48Z</time>
      </trkpt>
      <trkpt lat="45.60212" lon="6.63502">
        <ele>1645</ele>
        <time>2010-01-27T13:35:56Z</time>
      </trkpt>
      <trkpt lat="45.60179" lon="6.63534">
        <ele>1645</ele>
        <time>2010-01-27T13:36:12Z</time>
      </trkpt>
      <trkpt lat="45.60132" lon="6.63556">
        <ele>1660</ele>
        <time>2010-01-27T13:36:32Z</time>
      </trkpt>
      <trkpt lat="45.60111" lon="6.6359">
        <ele>1650</ele>
        <time>2010-01-27T13:36:45Z</time>
      </trkpt>
      <trkpt lat="45.60101" lon="6.6363">
        <ele>1645</ele>
        <time>2010-01-27T13:36:57Z</time>
      </trkpt>
      <trkpt lat="45.60083" lon="6.63658">
        <ele>1653</ele>
        <time>2010-01-27T13:37:07Z</time>
      </trkpt>
      <trkpt lat="45.60028" lon="6.63706">
        <ele>1647</ele>
        <time>2010-01-27T13:37:33Z</time>
      </trkpt>
      <trkpt lat="45.59981" lon="6.63762">
        <ele>1640</ele>
        <time>2010-01-27T13:37:58Z</time>
      </trkpt>
      <trkpt lat="45.59936" lon="6.63794">
        <ele>1642</ele>
        <time>2010-01-27T13:38:18Z</time>
      </trkpt>
      <trkpt lat="45.59901" lon="6.63849">
        <ele>1638</ele>
        <time>2010-01-27T13:38:38Z</time>
      </trkpt>
      <trkpt lat="45.59872" lon="6.63907">
        <ele>1635</ele>
        <time>2010-01-27T13:38:59Z</time>
      </trkpt>
      <trkpt lat="45.59796" lon="6.63989">
        <ele>1639</ele>
        <time>2010-01-27T13:39:37Z</time>
      </trkpt>
      <trkpt lat="45.5978" lon="6.64023">
        <ele>1619</ele>
        <time>2010-01-27T13:39:48Z</time>
      </trkpt>
      <trkpt lat="45.5976" lon="6.6405">
        <ele>1615</ele>
        <time>2010-01-27T13:39:59Z</time>
      </trkpt>
      <trkpt lat="45.59645" lon="6.64119">
        <ele>1629</ele>
        <time>2010-01-27T13:40:49Z</time>
      </trkpt>
      <trkpt lat="45.59593" lon="6.64156">
        <ele>1624</ele>
        <time>2010-01-27T13:41:12Z</time>
      </trkpt>
      <trkpt lat="45.59573" lon="6.64182">
        <ele>1616</ele>
        <time>2010-01-27T13:41:23Z</time>
      </trkpt>
      <trkpt lat="45.59562" lon="6.64212">
        <ele>1610</ele>
        <time>2010-01-27T13:41:33Z</time>
      </trkpt>
      <trkpt lat="45.59534" lon="6.64248">
        <ele>1608</ele>
        <time>2010-01-27T13:41:48Z</time>
      </trkpt>
      <trkpt lat="45.59427" lon="6.64303">
        <ele>1598</ele>
        <time>2010-01-27T13:42:33Z</time>
      </trkpt>
      <trkpt lat="45.59354" lon="6.64324">
        <ele>1615</ele>
        <time>2010-01-27T13:43:03Z</time>
      </trkpt>
      <trkpt lat="45.59311" lon="6.64346">
        <ele>1618</ele>
        <time>2010-01-27T13:43:22Z</time>
      </trkpt>
      <trkpt lat="45.59276" lon="6.64393">
        <ele>1620</ele>
        <time>2010-01-27T13:43:41Z</time>
      </trkpt>
      <trkpt lat="45.59238" lon="6.64458">
        <ele>1619</ele>
        <time>2010-01-27T13:44:05Z</time>
      </trkpt>
      <trkpt lat="45.59203" lon="6.64492">
        <ele>1620</ele>
        <time>2010-01-27T13:44:21Z</time>
      </trkpt>
      <trkpt lat="45.59109" lon="6.64562">
        <ele>1618</ele>
        <time>2010-01-27T13:45:04Z</time>
      </trkpt>
      <trkpt lat="45.59075" lon="6.64618">
        <ele>1611</ele>
        <time>2010-01-27T13:45:25Z</time>
      </trkpt>
      <trkpt lat="45.59024" lon="6.64647">
        <ele>1611</ele>
        <time>2010-01-27T13:45:47Z</time>
      </trkpt>
      <trkpt lat="45.58991" lon="6.64702">
        <ele>1597</ele>
        <time>2010-01-27T13:46:07Z</time>
      </trkpt>
      <trkpt lat="45.58962" lon="6.64717">
        <ele>1596</ele>
        <time>2010-01-27T13:46:20Z</time>
      </trkpt>
      <trkpt lat="45.58918" lon="6.64724">
        <ele>1596</ele>
        <time>2010-01-27T13:46:37Z</time>
      </trkpt>
      <trkpt lat="45.58889" lon="6.64765">
        <ele>1578</ele>
        <time>2010-01-27T13:46:54Z</time>
      </trkpt>
      <trkpt lat="45.5888" lon="6.64771">
        <ele>1577</ele>
        <time>2010-01-27T13:46:58Z</time>
      </trkpt>
      <trkpt lat="45.58853" lon="6.64773">
        <ele>1576</ele>
        <time>2010-01-27T13:47:09Z</time>
      </trkpt>
      <trkpt lat="45.58838" lon="6.64761">
        <ele>1580</ele>
        <time>2010-01-27T13:47:15Z</time>
      </trkpt>
      <trkpt lat="45.58814" lon="6.64754">
        <ele>1582</ele>
        <time>2010-01-27T13:47:25Z</time>
      </trkpt>
      <trkpt lat="45.58806" lon="6.64761">
        <ele>1582</ele>
        <time>2010-01-27T13:47:29Z</time>
      </trkpt>
      <trkpt lat="45.58786" lon="6.64801">
        <ele>1578</ele>
        <time>2010-01-27T13:47:43Z</time>
      </trkpt>
      <trkpt lat="45.5874" lon="6.6486">
        <ele>1569</ele>
        <time>2010-01-27T13:48:08Z</time>
      </trkpt>
      <trkpt lat="45.58709" lon="6.6494">
        <ele>1546</ele>
        <time>2010-01-27T13:48:33Z</time>
      </trkpt>
      <trkpt lat="45.58697" lon="6.64963">
        <ele>1544</ele>
        <time>2010-01-27T13:48:41Z</time>
      </trkpt>
      <trkpt lat="45.58679" lon="6.64978">
        <ele>1542</ele>
        <time>2010-01-27T13:48:50Z</time>
      </trkpt>
      <trkpt lat="45.58666" lon="6.64996">
        <ele>1540</ele>
        <time>2010-01-27T13:48:57Z</time>
      </trkpt>
      <trkpt lat="45.58651" lon="6.65029">
        <ele>1532</ele>
        <time>2010-01-27T13:49:08Z</time>
      </trkpt>
      <trkpt lat="45.58527" lon="6.65133">
        <ele>1506</ele>
        <time>2010-01-27T13:50:06Z</time>
      </trkpt>
      <trkpt lat="45.58495" lon="6.65156">
        <ele>1497</ele>
        <time>2010-01-27T13:50:20Z</time>
      </trkpt>
      <trkpt lat="45.5845" lon="6.65169">
        <ele>1483</ele>
        <time>2010-01-27T13:50:38Z</time>
      </trkpt>
      <trkpt lat="45.58419" lon="6.65168">
        <ele>1486</ele>
        <time>2010-01-27T13:50:51Z</time>
      </trkpt>
      <trkpt lat="45.58327" lon="6.65146">
        <ele>1469</ele>
        <time>2010-01-27T13:51:28Z</time>
      </trkpt>
      <trkpt lat="45.58193" lon="6.65147">
        <ele>1450</ele>
        <time>2010-01-27T13:52:22Z</time>
      </trkpt>
      <trkpt lat="45.58133" lon="6.65167">
        <ele>1427</ele>
        <time>2010-01-27T13:52:47Z</time>
      </trkpt>
      <trkpt lat="45.58106" lon="6.65193">
        <ele>1425</ele>
        <time>2010-01-27T13:53:00Z</time>
      </trkpt>
      <trkpt lat="45.58102" lon="6.65208">
        <ele>1422</ele>
        <time>2010-01-27T13:53:04Z</time>
      </trkpt>
      <trkpt lat="45.58075" lon="6.65231">
        <ele>1415</ele>
        <time>2010-01-27T13:53:16Z</time>
      </trkpt>
      <trkpt lat="45.58018" lon="6.65259">
        <ele>1400</ele>
        <time>2010-01-27T13:53:41Z</time>
      </trkpt>
      <trkpt lat="45.57961" lon="6.65257">
        <ele>1393</ele>
        <time>2010-01-27T13:54:04Z</time>
      </trkpt>
      <trkpt lat="45.57949" lon="6.65256">
        <ele>1392</ele>
        <time>2010-01-27T13:54:08Z</time>
      </trkpt>
      <trkpt lat="45.57878" lon="6.65244">
        <ele>1398</ele>
        <time>2010-01-27T13:54:37Z</time>
      </trkpt>
      <trkpt lat="45.57832" lon="6.65223">
        <ele>1389</ele>
        <time>2010-01-27T13:54:57Z</time>
      </trkpt>
      <trkpt lat="45.57803" lon="6.65216">
        <ele>1388</ele>
        <time>2010-01-27T13:55:08Z</time>
      </trkpt>
      <trkpt lat="45.57787" lon="6.65209">
        <ele>1387</ele>
        <time>2010-01-27T13:55:15Z</time>
      </trkpt>
      <trkpt lat="45.57752" lon="6.65177">
        <ele>1388</ele>
        <time>2010-01-27T13:55:31Z</time>
      </trkpt>
      <trkpt lat="45.57728" lon="6.65166">
        <ele>1390</ele>
        <time>2010-01-27T13:55:42Z</time>
      </trkpt>
      <trkpt lat="45.57705" lon="6.65162">
        <ele>1388</ele>
        <time>2010-01-27T13:55:51Z</time>
      </trkpt>
      <trkpt lat="45.57645" lon="6.65162">
        <ele>1373</ele>
        <time>2010-01-27T13:56:15Z</time>
      </trkpt>
      <trkpt lat="45.57611" lon="6.65148">
        <ele>1369</ele>
        <time>2010-01-27T13:56:29Z</time>
      </trkpt>
      <trkpt lat="45.57575" lon="6.65086">
        <ele>1361</ele>
        <time>2010-01-27T13:56:52Z</time>
      </trkpt>
      <trkpt lat="45.57527" lon="6.65035">
        <ele>1355</ele>
        <time>2010-01-27T13:57:16Z</time>
      </trkpt>
      <trkpt lat="45.57514" lon="6.65011">
        <ele>1352</ele>
        <time>2010-01-27T13:57:24Z</time>
      </trkpt>
      <trkpt lat="45.575" lon="6.64965">
        <ele>1362</ele>
        <time>2010-01-27T13:57:39Z</time>
      </trkpt>
      <trkpt lat="45.57487" lon="6.64884">
        <ele>1348</ele>
        <time>2010-01-27T13:58:02Z</time>
      </trkpt>
      <trkpt lat="45.57443" lon="6.6482">
        <ele>1349</ele>
        <time>2010-01-27T13:58:27Z</time>
      </trkpt>
      <trkpt lat="45.57402" lon="6.64736">
        <ele>1340</ele>
        <time>2010-01-27T13:58:56Z</time>
      </trkpt>
      <trkpt lat="45.57356" lon="6.64685">
        <ele>1336</ele>
        <time>2010-01-27T13:59:19Z</time>
      </trkpt>
      <trkpt lat="45.57317" lon="6.64668">
        <ele>1320</ele>
        <time>2010-01-27T13:59:35Z</time>
      </trkpt>
      <trkpt lat="45.57291" lon="6.64631">
        <ele>1327</ele>
        <time>2010-01-27T13:59:50Z</time>
      </trkpt>
      <trkpt lat="45.57231" lon="6.64591">
        <ele>1311</ele>
        <time>2010-01-27T14:00:17Z</time>
      </trkpt>
      <trkpt lat="45.57193" lon="6.64542">
        <ele>1318</ele>
        <time>2010-01-27T14:00:37Z</time>
      </trkpt>
      <trkpt lat="45.57134" lon="6.64487">
        <ele>1307</ele>
        <time>2010-01-27T14:01:05Z</time>
      </trkpt>
      <trkpt lat="45.57142" lon="6.64512">
        <ele>1299</ele>
        <time>2010-01-27T14:01:13Z</time>
      </trkpt>
      <trkpt lat="45.57173" lon="6.64571">
        <ele>1307</ele>
        <time>2010-01-27T14:01:34Z</time>
      </trkpt>
      <trkpt lat="45.57182" lon="6.64608">
        <ele>1298</ele>
        <time>2010-01-27T14:01:45Z</time>
      </trkpt>
      <trkpt lat="45.57223" lon="6.64651">
        <ele>1299</ele>
        <time>2010-01-27T14:02:05Z</time>
      </trkpt>
      <trkpt lat="45.57237" lon="6.64698">
        <ele>1286</ele>
        <time>2010-01-27T14:02:19Z</time>
      </trkpt>
      <trkpt lat="45.57265" lon="6.64746">
        <ele>1295</ele>
        <time>2010-01-27T14:02:37Z</time>
      </trkpt>
      <trkpt lat="45.57271" lon="6.6476">
        <ele>1290</ele>
        <time>2010-01-27T14:02:42Z</time>
      </trkpt>
      <trkpt lat="45.57277" lon="6.64817">
        <ele>1287</ele>
        <time>2010-01-27T14:02:57Z</time>
      </trkpt>
      <trkpt lat="45.57302" lon="6.64862">
        <ele>1281</ele>
        <time>2010-01-27T14:03:14Z</time>
      </trkpt>
      <trkpt lat="45.57305" lon="6.64937">
        <ele>1271</ele>
        <time>2010-01-27T14:03:35Z</time>
      </trkpt>
      <trkpt lat="45.57311" lon="6.64966">
        <ele>1270</ele>
        <time>2010-01-27T14:03:43Z</time>
      </trkpt>
      <trkpt lat="45.57294" lon="6.6499">
        <ele>1267</ele>
        <time>2010-01-27T14:03:53Z</time>
      </trkpt>
      <trkpt lat="45.57264" lon="6.65018">
        <ele>1258</ele>
        <time>2010-01-27T14:04:07Z</time>
      </trkpt>
      <trkpt lat="45.57239" lon="6.65037">
        <ele>1243</ele>
        <time>2010-01-27T14:04:18Z</time>
      </trkpt>
      <trkpt lat="45.57216" lon="6.64996">
        <ele>1246</ele>
        <time>2010-01-27T14:04:33Z</time>
      </trkpt>
      <trkpt lat="45.57183" lon="6.64929">
        <ele>1243</ele>
        <time>2010-01-27T14:04:56Z</time>
      </trkpt>
      <trkpt lat="45.57163" lon="6.64908">
        <ele>1237</ele>
        <time>2010-01-27T14:05:06Z</time>
      </trkpt>
      <trkpt lat="45.57168" lon="6.65016">
        <ele>1233</ele>
        <time>2010-01-27T14:05:37Z</time>
      </trkpt>
      <trkpt lat="45.57205" lon="6.6518">
        <ele>1218</ele>
        <time>2010-01-27T14:06:25Z</time>
      </trkpt>
      <trkpt lat="45.57227" lon="6.65256">
        <ele>1210</ele>
        <time>2010-01-27T14:06:48Z</time>
      </trkpt>
      <trkpt lat="45.5728" lon="6.65365">
        <ele>1212</ele>
        <time>2010-01-27T14:07:25Z</time>
      </trkpt>
      <trkpt lat="45.57297" lon="6.6546">
        <ele>1197</ele>
        <time>2010-01-27T14:07:53Z</time>
      </trkpt>
      <trkpt lat="45.57316" lon="6.65525">
        <ele>1186</ele>
        <time>2010-01-27T14:08:12Z</time>
      </trkpt>
      <trkpt lat="45.57337" lon="6.65584">
        <ele>1188</ele>
        <time>2010-01-27T14:08:31Z</time>
      </trkpt>
      <trkpt lat="45.57364" lon="6.65643">
        <ele>1189</ele>
        <time>2010-01-27T14:08:51Z</time>
      </trkpt>
      <trkpt lat="45.57371" lon="6.65677">
        <ele>1178</ele>
        <time>2010-01-27T14:09:01Z</time>
      </trkpt>
      <trkpt lat="45.57404" lon="6.65763">
        <ele>1169</ele>
        <time>2010-01-27T14:09:28Z</time>
      </trkpt>
      <trkpt lat="45.575" lon="6.6589">
        <ele>1172</ele>
        <time>2010-01-27T14:10:21Z</time>
      </trkpt>
      <trkpt lat="45.57512" lon="6.65913">
        <ele>1168</ele>
        <time>2010-01-27T14:10:29Z</time>
      </trkpt>
      <trkpt lat="45.5751" lon="6.65924">
        <ele>1156</ele>
        <time>2010-01-27T14:10:32Z</time>
      </trkpt>
      <trkpt lat="45.57504" lon="6.65924">
        <ele>1158</ele>
        <time>2010-01-27T14:10:34Z</time>
      </trkpt>
      <trkpt lat="45.57471" lon="6.65893">
        <ele>1161</ele>
        <time>2010-01-27T14:10:50Z</time>
      </trkpt>
      <trkpt lat="45.57426" lon="6.65873">
        <ele>1158</ele>
        <time>2010-01-27T14:11:09Z</time>
      </trkpt>
      <trkpt lat="45.57406" lon="6.65853">
        <ele>1146</ele>
        <time>2010-01-27T14:11:19Z</time>
      </trkpt>
      <trkpt lat="45.57371" lon="6.65792">
        <ele>1157</ele>
        <time>2010-01-27T14:11:41Z</time>
      </trkpt>
      <trkpt lat="45.5732" lon="6.65762">
        <ele>1142</ele>
        <time>2010-01-27T14:12:03Z</time>
      </trkpt>
      <trkpt lat="45.57285" lon="6.65728">
        <ele>1144</ele>
        <time>2010-01-27T14:12:20Z</time>
      </trkpt>
      <trkpt lat="45.57229" lon="6.65647">
        <ele>1132</ele>
        <time>2010-01-27T14:12:52Z</time>
      </trkpt>
      <trkpt lat="45.57167" lon="6.65582">
        <ele>1121</ele>
        <time>2010-01-27T14:13:23Z</time>
      </trkpt>
      <trkpt lat="45.57141" lon="6.65517">
        <ele>1119</ele>
        <time>2010-01-27T14:13:44Z</time>
      </trkpt>
      <trkpt lat="45.57105" lon="6.65496">
        <ele>1121</ele>
        <time>2010-01-27T14:14:00Z</time>
      </trkpt>
      <trkpt lat="45.57057" lon="6.65454">
        <ele>1102</ele>
        <time>2010-01-27T14:14:22Z</time>
      </trkpt>
      <trkpt lat="45.57032" lon="6.65402">
        <ele>1105</ele>
        <time>2010-01-27T14:14:40Z</time>
      </trkpt>
      <trkpt lat="45.5701" lon="6.65311">
        <ele>1117</ele>
        <time>2010-01-27T14:15:07Z</time>
      </trkpt>
      <trkpt lat="45.56997" lon="6.65305">
        <ele>1100</ele>
        <time>2010-01-27T14:15:12Z</time>
      </trkpt>
      <trkpt lat="45.56992" lon="6.65323">
        <ele>1099</ele>
        <time>2010-01-27T14:15:18Z</time>
      </trkpt>
      <trkpt lat="45.57012" lon="6.65419">
        <ele>1090</ele>
        <time>2010-01-27T14:15:46Z</time>
      </trkpt>
      <trkpt lat="45.57011" lon="6.65534">
        <ele>1080</ele>
        <time>2010-01-27T14:16:18Z</time>
      </trkpt>
      <trkpt lat="45.57021" lon="6.65552">
        <ele>1078</ele>
        <time>2010-01-27T14:16:25Z</time>
      </trkpt>
      <trkpt lat="45.57052" lon="6.65582">
        <ele>1083</ele>
        <time>2010-01-27T14:16:39Z</time>
      </trkpt>
      <trkpt lat="45.57069" lon="6.65614">
        <ele>1072</ele>
        <time>2010-01-27T14:16:51Z</time>
      </trkpt>
      <trkpt lat="45.57067" lon="6.65721">
        <ele>1058</ele>
        <time>2010-01-27T14:17:21Z</time>
      </trkpt>
      <trkpt lat="45.5709" lon="6.6581">
        <ele>1070</ele>
        <time>2010-01-27T14:17:47Z</time>
      </trkpt>
      <trkpt lat="45.57094" lon="6.65867">
        <ele>1064</ele>
        <time>2010-01-27T14:18:04Z</time>
      </trkpt>
      <trkpt lat="45.57095" lon="6.65892">
        <ele>1062</ele>
        <time>2010-01-27T14:18:10Z</time>
      </trkpt>
      <trkpt lat="45.57102" lon="6.65974">
        <ele>1051</ele>
        <time>2010-01-27T14:18:34Z</time>
      </trkpt>
      <trkpt lat="45.57113" lon="6.66008">
        <ele>1039</ele>
        <time>2010-01-27T14:18:44Z</time>
      </trkpt>
      <trkpt lat="45.57107" lon="6.66016">
        <ele>1038</ele>
        <time>2010-01-27T14:18:48Z</time>
      </trkpt>
      <trkpt lat="45.57098" lon="6.6601">
        <ele>1038</ele>
        <time>2010-01-27T14:18:51Z</time>
      </trkpt>
      <trkpt lat="45.5709" lon="6.65997">
        <ele>1044</ele>
        <time>2010-01-27T14:18:57Z</time>
      </trkpt>
      <trkpt lat="45.57061" lon="6.65934">
        <ele>1039</ele>
        <time>2010-01-27T14:19:17Z</time>
      </trkpt>
      <trkpt lat="45.57018" lon="6.65916">
        <ele>1035</ele>
        <time>2010-01-27T14:19:35Z</time>
      </trkpt>
      <trkpt lat="45.56996" lon="6.65894">
        <ele>1017</ele>
        <time>2010-01-27T14:19:46Z</time>
      </trkpt>
      <trkpt lat="45.56983" lon="6.65807">
        <ele>1016</ele>
        <time>2010-01-27T14:20:11Z</time>
      </trkpt>
      <trkpt lat="45.56973" lon="6.65789">
        <ele>1013</ele>
        <time>2010-01-27T14:20:18Z</time>
      </trkpt>
      <trkpt lat="45.56965" lon="6.65793">
        <ele>1012</ele>
        <time>2010-01-27T14:20:21Z</time>
      </trkpt>
      <trkpt lat="45.56972" lon="6.65831">
        <ele>1015</ele>
        <time>2010-01-27T14:20:32Z</time>
      </trkpt>
      <trkpt lat="45.56968" lon="6.65901">
        <ele>1012</ele>
        <time>2010-01-27T14:20:52Z</time>
      </trkpt>
      <trkpt lat="45.56976" lon="6.65942">
        <ele>1006</ele>
        <time>2010-01-27T14:21:04Z</time>
      </trkpt>
      <trkpt lat="45.56997" lon="6.65994">
        <ele>1008</ele>
        <time>2010-01-27T14:21:21Z</time>
      </trkpt>
      <trkpt lat="45.57033" lon="6.66037">
        <ele>1010</ele>
        <time>2010-01-27T14:21:39Z</time>
      </trkpt>
      <trkpt lat="45.57036" lon="6.66056">
        <ele>1007</ele>
        <time>2010-01-27T14:21:45Z</time>
      </trkpt>
      <trkpt lat="45.57029" lon="6.6606">
        <ele>1005</ele>
        <time>2010-01-27T14:21:48Z</time>
      </trkpt>
      <trkpt lat="45.57023" lon="6.66057">
        <ele>1004</ele>
        <time>2010-01-27T14:21:50Z</time>
      </trkpt>
      <trkpt lat="45.56984" lon="6.65999">
        <ele>1005</ele>
        <time>2010-01-27T14:22:13Z</time>
      </trkpt>
      <trkpt lat="45.56918" lon="6.65938">
        <ele>994</ele>
        <time>2010-01-27T14:22:44Z</time>
      </trkpt>
      <trkpt lat="45.56906" lon="6.6592">
        <ele>981</ele>
        <time>2010-01-27T14:22:52Z</time>
      </trkpt>
      <trkpt lat="45.56897" lon="6.6581">
        <ele>977</ele>
        <time>2010-01-27T14:23:23Z</time>
      </trkpt>
      <trkpt lat="45.56909" lon="6.65742">
        <ele>981</ele>
        <time>2010-01-27T14:23:42Z</time>
      </trkpt>
      <trkpt lat="45.56911" lon="6.65698">
        <ele>978</ele>
        <time>2010-01-27T14:23:55Z</time>
      </trkpt>
      <trkpt lat="45.56908" lon="6.65686">
        <ele>980</ele>
        <time>2010-01-27T14:23:58Z</time>
      </trkpt>
      <trkpt lat="45.56899" lon="6.65676">
        <ele>979</ele>
        <time>2010-01-27T14:24:03Z</time>
      </trkpt>
      <trkpt lat="45.56895" lon="6.65677">
        <ele>978</ele>
        <time>2010-01-27T14:24:04Z</time>
      </trkpt>
      <trkpt lat="45.56889" lon="6.65721">
        <ele>973</ele>
        <time>2010-01-27T14:24:17Z</time>
      </trkpt>
      <trkpt lat="45.56841" lon="6.65813">
        <ele>963</ele>
        <time>2010-01-27T14:24:49Z</time>
      </trkpt>
      <trkpt lat="45.5683" lon="6.65859">
        <ele>944</ele>
        <time>2010-01-27T14:25:03Z</time>
      </trkpt>
      <trkpt lat="45.56824" lon="6.65867">
        <ele>942</ele>
        <time>2010-01-27T14:25:06Z</time>
      </trkpt>
      <trkpt lat="45.56816" lon="6.65861">
        <ele>941</ele>
        <time>2010-01-27T14:25:09Z</time>
      </trkpt>
      <trkpt lat="45.56814" lon="6.65843">
        <ele>943</ele>
        <time>2010-01-27T14:25:15Z</time>
      </trkpt>
      <trkpt lat="45.56842" lon="6.65687">
        <ele>962</ele>
        <time>2010-01-27T14:26:00Z</time>
      </trkpt>
      <trkpt lat="45.56836" lon="6.65678">
        <ele>959</ele>
        <time>2010-01-27T14:26:03Z</time>
      </trkpt>
      <trkpt lat="45.56821" lon="6.65681">
        <ele>941</ele>
        <time>2010-01-27T14:26:10Z</time>
      </trkpt>
      <trkpt lat="45.56813" lon="6.6574">
        <ele>936</ele>
        <time>2010-01-27T14:26:27Z</time>
      </trkpt>
      <trkpt lat="45.56802" lon="6.65761">
        <ele>933</ele>
        <time>2010-01-27T14:26:34Z</time>
      </trkpt>
      <trkpt lat="45.56788" lon="6.6577">
        <ele>929</ele>
        <time>2010-01-27T14:26:40Z</time>
      </trkpt>
      <trkpt lat="45.56757" lon="6.65799">
        <ele>924</ele>
        <time>2010-01-27T14:26:55Z</time>
      </trkpt>
      <trkpt lat="45.5675" lon="6.65814">
        <ele>921</ele>
        <time>2010-01-27T14:27:00Z</time>
      </trkpt>
      <trkpt lat="45.56744" lon="6.65968">
        <ele>903</ele>
        <time>2010-01-27T14:27:43Z</time>
      </trkpt>
      <trkpt lat="45.56754" lon="6.65977">
        <ele>923</ele>
        <time>2010-01-27T14:27:48Z</time>
      </trkpt>
      <trkpt lat="45.5677" lon="6.66016">
        <ele>916</ele>
        <time>2010-01-27T14:28:00Z</time>
      </trkpt>
      <trkpt lat="45.56791" lon="6.66047">
        <ele>917</ele>
        <time>2010-01-27T14:28:13Z</time>
      </trkpt>
      <trkpt lat="45.56818" lon="6.66077">
        <ele>919</ele>
        <time>2010-01-27T14:28:26Z</time>
      </trkpt>
      <trkpt lat="45.56884" lon="6.66128">
        <ele>920</ele>
        <time>2010-01-27T14:28:56Z</time>
      </trkpt>
      <trkpt lat="45.56924" lon="6.66199">
        <ele>917</ele>
        <time>2010-01-27T14:29:22Z</time>
      </trkpt>
      <trkpt lat="45.56925" lon="6.66214">
        <ele>914</ele>
        <time>2010-01-27T14:29:26Z</time>
      </trkpt>
      <trkpt lat="45.56917" lon="6.66217">
        <ele>912</ele>
        <time>2010-01-27T14:29:29Z</time>
      </trkpt>
      <trkpt lat="45.56896" lon="6.66181">
        <ele>901</ele>
        <time>2010-01-27T14:29:43Z</time>
      </trkpt>
      <trkpt lat="45.5686" lon="6.66157">
        <ele>910</ele>
        <time>2010-01-27T14:29:59Z</time>
      </trkpt>
      <trkpt lat="45.56768" lon="6.66145">
        <ele>886</ele>
        <time>2010-01-27T14:30:36Z</time>
      </trkpt>
      <trkpt lat="45.56747" lon="6.66136">
        <ele>874</ele>
        <time>2010-01-27T14:30:44Z</time>
      </trkpt>
      <trkpt lat="45.56716" lon="6.66113">
        <ele>875</ele>
        <time>2010-01-27T14:30:58Z</time>
      </trkpt>
      <trkpt lat="45.56676" lon="6.66099">
        <ele>873</ele>
        <time>2010-01-27T14:31:15Z</time>
      </trkpt>
      <trkpt lat="45.56642" lon="6.66078">
        <ele>865</ele>
        <time>2010-01-27T14:31:30Z</time>
      </trkpt>
      <trkpt lat="45.56624" lon="6.66052">
        <ele>861</ele>
        <time>2010-01-27T14:31:40Z</time>
      </trkpt>
      <trkpt lat="45.56627" lon="6.65968">
        <ele>860</ele>
        <time>2010-01-27T14:32:03Z</time>
      </trkpt>
      <trkpt lat="45.56623" lon="6.65906">
        <ele>851</ele>
        <time>2010-01-27T14:32:21Z</time>
      </trkpt>
      <trkpt lat="45.56638" lon="6.65845">
        <ele>854</ele>
        <time>2010-01-27T14:32:39Z</time>
      </trkpt>
      <trkpt lat="45.56639" lon="6.65821">
        <ele>853</ele>
        <time>2010-01-27T14:32:46Z</time>
      </trkpt>
      <trkpt lat="45.56632" lon="6.658">
        <ele>851</ele>
        <time>2010-01-27T14:32:52Z</time>
      </trkpt>
      <trkpt lat="45.56611" lon="6.65766">
        <ele>846</ele>
        <time>2010-01-27T14:33:05Z</time>
      </trkpt>
      <trkpt lat="45.56602" lon="6.65718">
        <ele>852</ele>
        <time>2010-01-27T14:33:19Z</time>
      </trkpt>
      <trkpt lat="45.5659" lon="6.65704">
        <ele>852</ele>
        <time>2010-01-27T14:33:25Z</time>
      </trkpt>
      <trkpt lat="45.56553" lon="6.65676">
        <ele>832</ele>
        <time>2010-01-27T14:33:42Z</time>
      </trkpt>
      <trkpt lat="45.56504" lon="6.6565">
        <ele>832</ele>
        <time>2010-01-27T14:34:03Z</time>
      </trkpt>
      <trkpt lat="45.56481" lon="6.65615">
        <ele>821</ele>
        <time>2010-01-27T14:34:17Z</time>
      </trkpt>
      <trkpt lat="45.56476" lon="6.65615">
        <ele>820</ele>
        <time>2010-01-27T14:34:18Z</time>
      </trkpt>
      <trkpt lat="45.56474" lon="6.65622">
        <ele>818</ele>
        <time>2010-01-27T14:34:21Z</time>
      </trkpt>
      <trkpt lat="45.56481" lon="6.65645">
        <ele>817</ele>
        <time>2010-01-27T14:34:28Z</time>
      </trkpt>
      <trkpt lat="45.56477" lon="6.6565">
        <ele>816</ele>
        <time>2010-01-27T14:34:30Z</time>
      </trkpt>
      <trkpt lat="45.56468" lon="6.65647">
        <ele>815</ele>
        <time>2010-01-27T14:34:34Z</time>
      </trkpt>
      <trkpt lat="45.5643" lon="6.65577">
        <ele>822</ele>
        <time>2010-01-27T14:34:58Z</time>
      </trkpt>
      <trkpt lat="45.56393" lon="6.65568">
        <ele>806</ele>
        <time>2010-01-27T14:35:14Z</time>
      </trkpt>
      <trkpt lat="45.56384" lon="6.65562">
        <ele>805</ele>
        <time>2010-01-27T14:35:18Z</time>
      </trkpt>
      <trkpt lat="45.56354" lon="6.65519">
        <ele>802</ele>
        <time>2010-01-27T14:35:34Z</time>
      </trkpt>
      <trkpt lat="45.56336" lon="6.6548">
        <ele>811</ele>
        <time>2010-01-27T14:35:47Z</time>
      </trkpt>
      <trkpt lat="45.56309" lon="6.65467">
        <ele>794</ele>
        <time>2010-01-27T14:35:59Z</time>
      </trkpt>
      <trkpt lat="45.56265" lon="6.654">
        <ele>800</ele>
        <time>2010-01-27T14:36:25Z</time>
      </trkpt>
      <trkpt lat="45.56245" lon="6.65384">
        <ele>782</ele>
        <time>2010-01-27T14:36:34Z</time>
      </trkpt>
      <trkpt lat="45.56223" lon="6.65341">
        <ele>785</ele>
        <time>2010-01-27T14:36:49Z</time>
      </trkpt>
      <trkpt lat="45.56214" lon="6.65332">
        <ele>795</ele>
        <time>2010-01-27T14:36:53Z</time>
      </trkpt>
      <trkpt lat="45.56205" lon="6.65332">
        <ele>792</ele>
        <time>2010-01-27T14:36:57Z</time>
      </trkpt>
      <trkpt lat="45.56198" lon="6.65337">
        <ele>778</ele>
        <time>2010-01-27T14:37:00Z</time>
      </trkpt>
      <trkpt lat="45.56198" lon="6.65352">
        <ele>777</ele>
        <time>2010-01-27T14:37:04Z</time>
      </trkpt>
      <trkpt lat="45.56238" lon="6.65427">
        <ele>775</ele>
        <time>2010-01-27T14:37:31Z</time>
      </trkpt>
      <trkpt lat="45.56262" lon="6.65512">
        <ele>776</ele>
        <time>2010-01-27T14:37:56Z</time>
      </trkpt>
      <trkpt lat="45.56266" lon="6.65552">
        <ele>776</ele>
        <time>2010-01-27T14:38:08Z</time>
      </trkpt>
      <trkpt lat="45.56262" lon="6.65559">
        <ele>775</ele>
        <time>2010-01-27T14:38:10Z</time>
      </trkpt>
      <trkpt lat="45.56256" lon="6.65557">
        <ele>774</ele>
        <time>2010-01-27T14:38:13Z</time>
      </trkpt>
      <trkpt lat="45.56245" lon="6.65524">
        <ele>766</ele>
        <time>2010-01-27T14:38:23Z</time>
      </trkpt>
      <trkpt lat="45.56221" lon="6.65504">
        <ele>765</ele>
        <time>2010-01-27T14:38:34Z</time>
      </trkpt>
      <trkpt lat="45.56168" lon="6.65425">
        <ele>760</ele>
        <time>2010-01-27T14:39:05Z</time>
      </trkpt>
      <trkpt lat="45.56158" lon="6.65404">
        <ele>753</ele>
        <time>2010-01-27T14:39:12Z</time>
      </trkpt>
      <trkpt lat="45.56149" lon="6.65384">
        <ele>751</ele>
        <time>2010-01-27T14:39:19Z</time>
      </trkpt>
      <trkpt lat="45.56127" lon="6.65363">
        <ele>748</ele>
        <time>2010-01-27T14:39:29Z</time>
      </trkpt>
      <trkpt lat="45.56113" lon="6.65318">
        <ele>751</ele>
        <time>2010-01-27T14:39:43Z</time>
      </trkpt>
      <trkpt lat="45.56078" lon="6.65253">
        <ele>738</ele>
        <time>2010-01-27T14:40:06Z</time>
      </trkpt>
      <trkpt lat="45.56053" lon="6.6522">
        <ele>736</ele>
        <time>2010-01-27T14:40:20Z</time>
      </trkpt>
      <trkpt lat="45.56017" lon="6.65197">
        <ele>731</ele>
        <time>2010-01-27T14:40:35Z</time>
      </trkpt>
      <trkpt lat="45.56005" lon="6.65184">
        <ele>730</ele>
        <time>2010-01-27T14:40:42Z</time>
      </trkpt>
      <trkpt lat="45.55998" lon="6.65167">
        <ele>724</ele>
        <time>2010-01-27T14:40:47Z</time>
      </trkpt>
      <trkpt lat="45.55991" lon="6.6513">
        <ele>728</ele>
        <time>2010-01-27T14:40:58Z</time>
      </trkpt>
      <trkpt lat="45.55979" lon="6.65108">
        <ele>731</ele>
        <time>2010-01-27T14:41:06Z</time>
      </trkpt>
      <trkpt lat="45.55921" lon="6.65083">
        <ele>726</ele>
        <time>2010-01-27T14:41:30Z</time>
      </trkpt>
      <trkpt lat="45.55897" lon="6.65084">
        <ele>716</ele>
        <time>2010-01-27T14:41:39Z</time>
      </trkpt>
      <trkpt lat="45.55924" lon="6.65115">
        <ele>723</ele>
        <time>2010-01-27T14:41:54Z</time>
      </trkpt>
      <trkpt lat="45.55931" lon="6.65129">
        <ele>722</ele>
        <time>2010-01-27T14:41:58Z</time>
      </trkpt>
      <trkpt lat="45.55939" lon="6.65165">
        <ele>718</ele>
        <time>2010-01-27T14:42:09Z</time>
      </trkpt>
      <trkpt lat="45.55944" lon="6.65182">
        <ele>712</ele>
        <time>2010-01-27T14:42:14Z</time>
      </trkpt>
      <trkpt lat="45.5596" lon="6.65207">
        <ele>712</ele>
        <time>2010-01-27T14:42:23Z</time>
      </trkpt>
      <trkpt lat="45.55933" lon="6.65189">
        <ele>711</ele>
        <time>2010-01-27T14:42:36Z</time>
      </trkpt>
      <trkpt lat="45.55915" lon="6.65238">
        <ele>702</ele>
        <time>2010-01-27T14:42:51Z</time>
      </trkpt>
      <trkpt lat="45.55864" lon="6.65229">
        <ele>699</ele>
        <time>2010-01-27T14:43:12Z</time>
      </trkpt>
      <trkpt lat="45.55857" lon="6.65275">
        <ele>698</ele>
        <time>2010-01-27T14:43:25Z</time>
      </trkpt>
      <trkpt lat="45.55847" lon="6.6529">
        <ele>698</ele>
        <time>2010-01-27T14:43:31Z</time>
      </trkpt>
      <trkpt lat="45.55817" lon="6.65316">
        <ele>692</ele>
        <time>2010-01-27T14:43:45Z</time>
      </trkpt>
      <trkpt lat="45.55809" lon="6.65342">
        <ele>690</ele>
        <time>2010-01-27T14:43:53Z</time>
      </trkpt>
      <trkpt lat="45.55806" lon="6.6537">
        <ele>689</ele>
        <time>2010-01-27T14:44:01Z</time>
      </trkpt>
      <trkpt lat="45.55799" lon="6.65382">
        <ele>689</ele>
        <time>2010-01-27T14:44:05Z</time>
      </trkpt>
      <trkpt lat="45.55788" lon="6.65393">
        <ele>688</ele>
        <time>2010-01-27T14:44:10Z</time>
      </trkpt>
      <trkpt lat="45.55753" lon="6.65428">
        <ele>684</ele>
        <time>2010-01-27T14:44:28Z</time>
      </trkpt>
      <trkpt lat="45.55737" lon="6.65439">
        <ele>679</ele>
        <time>2010-01-27T14:44:35Z</time>
      </trkpt>
      <trkpt lat="45.55739" lon="6.655">
        <ele>680</ele>
        <time>2010-01-27T14:44:52Z</time>
      </trkpt>
      <trkpt lat="45.55724" lon="6.65631">
        <ele>681</ele>
        <time>2010-01-27T14:45:29Z</time>
      </trkpt>
      <trkpt lat="45.55688" lon="6.65637">
        <ele>678</ele>
        <time>2010-01-27T14:45:44Z</time>
      </trkpt>
      <trkpt lat="45.55678" lon="6.65656">
        <ele>676</ele>
        <time>2010-01-27T14:45:50Z</time>
      </trkpt>
      <trkpt lat="45.55658" lon="6.6574">
        <ele>675</ele>
        <time>2010-01-27T14:46:15Z</time>
      </trkpt>
      <trkpt lat="45.5565" lon="6.65869">
        <ele>671</ele>
        <time>2010-01-27T14:46:52Z</time>
      </trkpt>
      <trkpt lat="45.55626" lon="6.6587">
        <ele>669</ele>
        <time>2010-01-27T14:47:01Z</time>
      </trkpt>
      <trkpt lat="45.55615" lon="6.6586">
        <ele>667</ele>
        <time>2010-01-27T14:47:06Z</time>
      </trkpt>
      <trkpt lat="45.55574" lon="6.65744">
        <ele>660</ele>
        <time>2010-01-27T14:47:43Z</time>
      </trkpt>
      <trkpt lat="45.55541" lon="6.65671">
        <ele>659</ele>
        <time>2010-01-27T14:48:07Z</time>
      </trkpt>
      <trkpt lat="45.55538" lon="6.65653">
        <ele>659</ele>
        <time>2010-01-27T14:48:12Z</time>
      </trkpt>
      <trkpt lat="45.55544" lon="6.65652">
        <ele>659</ele>
        <time>2010-01-27T14:48:15Z</time>
      </trkpt>
      <trkpt lat="45.55552" lon="6.65659">
        <ele>659</ele>
        <time>2010-01-27T14:48:18Z</time>
      </trkpt>
      <trkpt lat="45.55583" lon="6.65697">
        <ele>659</ele>
        <time>2010-01-27T14:48:35Z</time>
      </trkpt>
      <trkpt lat="45.55626" lon="6.65824">
        <ele>670</ele>
        <time>2010-01-27T14:49:15Z</time>
      </trkpt>
      <trkpt lat="45.5565" lon="6.65908">
        <ele>672</ele>
        <time>2010-01-27T14:49:40Z</time>
      </trkpt>
      <trkpt lat="45.55673" lon="6.65989">
        <ele>685</ele>
        <time>2010-01-27T14:50:05Z</time>
      </trkpt>
      <trkpt lat="45.55674" lon="6.65994">
        <ele>682</ele>
        <time>2010-01-27T14:50:06Z</time>
      </trkpt>
      <trkpt lat="45.55679" lon="6.66016">
        <ele>688</ele>
        <time>2010-01-27T14:50:12Z</time>
      </trkpt>
      <trkpt lat="45.55708" lon="6.66141">
        <ele>690</ele>
        <time>2010-01-27T14:50:49Z</time>
      </trkpt>
      <trkpt lat="45.55765" lon="6.66284">
        <ele>694</ele>
        <time>2010-01-27T14:51:36Z</time>
      </trkpt>
      <trkpt lat="45.5584" lon="6.66416">
        <ele>687</ele>
        <time>2010-01-27T14:52:23Z</time>
      </trkpt>
      <trkpt lat="45.559" lon="6.66492">
        <ele>691</ele>
        <time>2010-01-27T14:52:56Z</time>
      </trkpt>
      <trkpt lat="45.55944" lon="6.66598">
        <ele>695</ele>
        <time>2010-01-27T14:53:30Z</time>
      </trkpt>
      <trkpt lat="45.56033" lon="6.66873">
        <ele>705</ele>
        <time>2010-01-27T14:54:55Z</time>
      </trkpt>
      <trkpt lat="45.56117" lon="6.67115">
        <ele>714</ele>
        <time>2010-01-27T14:56:11Z</time>
      </trkpt>
      <trkpt lat="45.56149" lon="6.67246">
        <ele>718</ele>
        <time>2010-01-27T14:56:50Z</time>
      </trkpt>
      <trkpt lat="45.56224" lon="6.67456">
        <ele>713</ele>
        <time>2010-01-27T14:57:56Z</time>
      </trkpt>
      <trkpt lat="45.56258" lon="6.6753">
        <ele>727</ele>
        <time>2010-01-27T14:58:21Z</time>
      </trkpt>
      <trkpt lat="45.56304" lon="6.67628">
        <ele>721</ele>
        <time>2010-01-27T14:58:54Z</time>
      </trkpt>
      <trkpt lat="45.56383" lon="6.67755">
        <ele>734</ele>
        <time>2010-01-27T14:59:42Z</time>
      </trkpt>
      <trkpt lat="45.56412" lon="6.67818">
        <ele>737</ele>
        <time>2010-01-27T15:00:03Z</time>
      </trkpt>
      <trkpt lat="45.5649" lon="6.68103">
        <ele>743</ele>
        <time>2010-01-27T15:01:29Z</time>
      </trkpt>
      <trkpt lat="45.565" lon="6.68191">
        <ele>738</ele>
        <time>2010-01-27T15:01:53Z</time>
      </trkpt>
      <trkpt lat="45.56504" lon="6.68328">
        <ele>748</ele>
        <time>2010-01-27T15:02:32Z</time>
      </trkpt>
      <trkpt lat="45.56501" lon="6.68383">
        <ele>753</ele>
        <time>2010-01-27T15:02:47Z</time>
      </trkpt>
      <trkpt lat="45.56495" lon="6.68401">
        <ele>734</ele>
        <time>2010-01-27T15:02:53Z</time>
      </trkpt>
      <trkpt lat="45.56478" lon="6.68448">
        <ele>734</ele>
        <time>2010-01-27T15:03:08Z</time>
      </trkpt>
      <trkpt lat="45.56469" lon="6.6847">
        <ele>734</ele>
        <time>2010-01-27T15:03:15Z</time>
      </trkpt>
      <trkpt lat="45.56449" lon="6.68555">
        <ele>739</ele>
        <time>2010-01-27T15:03:40Z</time>
      </trkpt>
      <trkpt lat="45.56448" lon="6.68582">
        <ele>739</ele>
        <time>2010-01-27T15:03:48Z</time>
      </trkpt>
      <trkpt lat="45.5646" lon="6.68697">
        <ele>742</ele>
        <time>2010-01-27T15:04:20Z</time>
      </trkpt>
      <trkpt lat="45.56479" lon="6.68773">
        <ele>742</ele>
        <time>2010-01-27T15:04:43Z</time>
      </trkpt>
      <trkpt lat="45.56483" lon="6.68815">
        <ele>743</ele>
        <time>2010-01-27T15:04:55Z</time>
      </trkpt>
      <trkpt lat="45.56485" lon="6.69008">
        <ele>747</ele>
        <time>2010-01-27T15:05:49Z</time>
      </trkpt>
      <trkpt lat="45.56499" lon="6.6908">
        <ele>747</ele>
        <time>2010-01-27T15:06:10Z</time>
      </trkpt>
      <trkpt lat="45.56515" lon="6.69133">
        <ele>755</ele>
        <time>2010-01-27T15:06:26Z</time>
      </trkpt>
      <trkpt lat="45.5656" lon="6.69263">
        <ele>749</ele>
        <time>2010-01-27T15:07:07Z</time>
      </trkpt>
      <trkpt lat="45.56577" lon="6.69342">
        <ele>750</ele>
        <time>2010-01-27T15:07:30Z</time>
      </trkpt>
      <trkpt lat="45.56629" lon="6.69581">
        <ele>754</ele>
        <time>2010-01-27T15:08:41Z</time>
      </trkpt>
      <trkpt lat="45.56663" lon="6.69691">
        <ele>743</ele>
        <time>2010-01-27T15:09:14Z</time>
      </trkpt>
      <trkpt lat="45.5668" lon="6.69747">
        <ele>756</ele>
        <time>2010-01-27T15:09:31Z</time>
      </trkpt>
      <trkpt lat="45.56718" lon="6.6985">
        <ele>763</ele>
        <time>2010-01-27T15:10:04Z</time>
      </trkpt>
      <trkpt lat="45.5672" lon="6.6988">
        <ele>763</ele>
        <time>2010-01-27T15:10:12Z</time>
      </trkpt>
      <trkpt lat="45.56702" lon="6.69945">
        <ele>758</ele>
        <time>2010-01-27T15:10:32Z</time>
      </trkpt>
      <trkpt lat="45.56699" lon="6.70005">
        <ele>753</ele>
        <time>2010-01-27T15:10:49Z</time>
      </trkpt>
      <trkpt lat="45.56704" lon="6.70041">
        <ele>754</ele>
        <time>2010-01-27T15:10:59Z</time>
      </trkpt>
      <trkpt lat="45.56741" lon="6.70154">
        <ele>754</ele>
        <time>2010-01-27T15:11:34Z</time>
      </trkpt>
      <trkpt lat="45.56759" lon="6.702">
        <ele>765</ele>
        <time>2010-01-27T15:11:49Z</time>
      </trkpt>
      <trkpt lat="45.56785" lon="6.70295">
        <ele>760</ele>
        <time>2010-01-27T15:12:18Z</time>
      </trkpt>
      <trkpt lat="45.56803" lon="6.70541">
        <ele>752</ele>
        <time>2010-01-27T15:13:27Z</time>
      </trkpt>
      <trkpt lat="45.56784" lon="6.70862">
        <ele>766</ele>
        <time>2010-01-27T15:14:57Z</time>
      </trkpt>
      <trkpt lat="45.56788" lon="6.70927">
        <ele>770</ele>
        <time>2010-01-27T15:15:16Z</time>
      </trkpt>
      <trkpt lat="45.56793" lon="6.71114">
        <ele>767</ele>
        <time>2010-01-27T15:16:08Z</time>
      </trkpt>
      <trkpt lat="45.56814" lon="6.71255">
        <ele>760</ele>
        <time>2010-01-27T15:16:49Z</time>
      </trkpt>
      <trkpt lat="45.56819" lon="6.71294">
        <ele>758</ele>
        <time>2010-01-27T15:17:00Z</time>
      </trkpt>
      <trkpt lat="45.56846" lon="6.71475">
        <ele>760</ele>
        <time>2010-01-27T15:17:52Z</time>
      </trkpt>
      <trkpt lat="45.56886" lon="6.71538">
        <ele>759</ele>
        <time>2010-01-27T15:18:15Z</time>
      </trkpt>
      <trkpt lat="45.56899" lon="6.71559">
        <ele>759</ele>
        <time>2010-01-27T15:18:23Z</time>
      </trkpt>
      <trkpt lat="45.57036" lon="6.71719">
        <ele>774</ele>
        <time>2010-01-27T15:19:34Z</time>
      </trkpt>
      <trkpt lat="45.57527" lon="6.72835">
        <ele>779</ele>
        <time>2010-01-27T15:25:44Z</time>
      </trkpt>
      <trkpt lat="45.57481" lon="6.7275">
        <ele>779</ele>
        <time>2010-01-27T15:26:14Z</time>
      </trkpt>
      <trkpt lat="45.57468" lon="6.72775">
        <ele>766</ele>
        <time>2010-01-27T15:26:23Z</time>
      </trkpt>
      <trkpt lat="45.57472" lon="6.72788">
        <ele>765</ele>
        <time>2010-01-27T15:26:27Z</time>
      </trkpt>
      <trkpt lat="45.57528" lon="6.72878">
        <ele>775</ele>
        <time>2010-01-27T15:27:01Z</time>
      </trkpt>
      <trkpt lat="45.57549" lon="6.7293">
        <ele>764</ele>
        <time>2010-01-27T15:27:18Z</time>
      </trkpt>
      <trkpt lat="45.57562" lon="6.72964">
        <ele>762</ele>
        <time>2010-01-27T15:27:29Z</time>
      </trkpt>
      <trkpt lat="45.5761" lon="6.73166">
        <ele>756</ele>
        <time>2010-01-27T15:28:29Z</time>
      </trkpt>
      <trkpt lat="45.57674" lon="6.73316">
        <ele>757</ele>
        <time>2010-01-27T15:29:18Z</time>
      </trkpt>
      <trkpt lat="45.57678" lon="6.73337">
        <ele>748</ele>
        <time>2010-01-27T15:29:24Z</time>
      </trkpt>
      <trkpt lat="45.57661" lon="6.73376">
        <ele>738</ele>
        <time>2010-01-27T15:29:37Z</time>
      </trkpt>
      <trkpt lat="45.57652" lon="6.73385">
        <ele>738</ele>
        <time>2010-01-27T15:29:41Z</time>
      </trkpt>
      <trkpt lat="45.57571" lon="6.73535">
        <ele>741</ele>
        <time>2010-01-27T15:30:35Z</time>
      </trkpt>
      <trkpt lat="45.57554" lon="6.73561">
        <ele>741</ele>
        <time>2010-01-27T15:30:44Z</time>
      </trkpt>
      <trkpt lat="45.57524" lon="6.73582">
        <ele>743</ele>
        <time>2010-01-27T15:30:58Z</time>
      </trkpt>
      <trkpt lat="45.57511" lon="6.73586">
        <ele>744</ele>
        <time>2010-01-27T15:31:03Z</time>
      </trkpt>
      <trkpt lat="45.57352" lon="6.73672">
        <ele>755</ele>
        <time>2010-01-27T15:32:11Z</time>
      </trkpt>
      <trkpt lat="45.57232" lon="6.73754">
        <ele>767</ele>
        <time>2010-01-27T15:33:05Z</time>
      </trkpt>
      <trkpt lat="45.57198" lon="6.73775">
        <ele>769</ele>
        <time>2010-01-27T15:33:19Z</time>
      </trkpt>
      <trkpt lat="45.57137" lon="6.73822">
        <ele>775</ele>
        <time>2010-01-27T15:33:47Z</time>
      </trkpt>
      <trkpt lat="45.57107" lon="6.73861">
        <ele>778</ele>
        <time>2010-01-27T15:34:03Z</time>
      </trkpt>
      <trkpt lat="45.5703" lon="6.73651">
        <ele>773</ele>
        <time>2010-01-27T15:35:10Z</time>
      </trkpt>
      <trkpt lat="45.5703" lon="6.73638">
        <ele>773</ele>
        <time>2010-01-27T15:35:14Z</time>
      </trkpt>
      <trkpt lat="45.57009" lon="6.73582">
        <ele>770</ele>
        <time>2010-01-27T15:35:31Z</time>
      </trkpt>
      <trkpt lat="45.56944" lon="6.73398">
        <ele>763</ele>
        <time>2010-01-27T15:36:29Z</time>
      </trkpt>
      <trkpt lat="45.5691" lon="6.73252">
        <ele>762</ele>
        <time>2010-01-27T15:37:12Z</time>
      </trkpt>
      <trkpt lat="45.56876" lon="6.73213">
        <ele>768</ele>
        <time>2010-01-27T15:37:30Z</time>
      </trkpt>
      <trkpt lat="45.56854" lon="6.73179">
        <ele>771</ele>
        <time>2010-01-27T15:37:43Z</time>
      </trkpt>
      <trkpt lat="45.56777" lon="6.72964">
        <ele>780</ele>
        <time>2010-01-27T15:38:51Z</time>
      </trkpt>
      <trkpt lat="45.56717" lon="6.72771">
        <ele>802</ele>
        <time>2010-01-27T15:39:50Z</time>
      </trkpt>
      <trkpt lat="45.56614" lon="6.72428">
        <ele>818</ele>
        <time>2010-01-27T15:41:34Z</time>
      </trkpt>
      <trkpt lat="45.56601" lon="6.72363">
        <ele>813</ele>
        <time>2010-01-27T15:41:54Z</time>
      </trkpt>
      <trkpt lat="45.56541" lon="6.7223">
        <ele>825</ele>
        <time>2010-01-27T15:42:38Z</time>
      </trkpt>
      <trkpt lat="45.56477" lon="6.7211">
        <ele>845</ele>
        <time>2010-01-27T15:43:20Z</time>
      </trkpt>
      <trkpt lat="45.56434" lon="6.71848">
        <ele>847</ele>
        <time>2010-01-27T15:44:36Z</time>
      </trkpt>
      <trkpt lat="45.56425" lon="6.71797">
        <ele>842</ele>
        <time>2010-01-27T15:44:51Z</time>
      </trkpt>
      <trkpt lat="45.56417" lon="6.71767">
        <ele>854</ele>
        <time>2010-01-27T15:45:00Z</time>
      </trkpt>
      <trkpt lat="45.56386" lon="6.71732">
        <ele>848</ele>
        <time>2010-01-27T15:45:15Z</time>
      </trkpt>
      <trkpt lat="45.56258" lon="6.71694">
        <ele>867</ele>
        <time>2010-01-27T15:46:08Z</time>
      </trkpt>
      <trkpt lat="45.56219" lon="6.71655">
        <ele>876</ele>
        <time>2010-01-27T15:46:27Z</time>
      </trkpt>
      <trkpt lat="45.56206" lon="6.71655">
        <ele>879</ele>
        <time>2010-01-27T15:46:32Z</time>
      </trkpt>
      <trkpt lat="45.56206" lon="6.71672">
        <ele>885</ele>
        <time>2010-01-27T15:46:37Z</time>
      </trkpt>
      <trkpt lat="45.56219" lon="6.7169">
        <ele>884</ele>
        <time>2010-01-27T15:46:44Z</time>
      </trkpt>
      <trkpt lat="45.56301" lon="6.71758">
        <ele>878</ele>
        <time>2010-01-27T15:47:22Z</time>
      </trkpt>
      <trkpt lat="45.56309" lon="6.71784">
        <ele>879</ele>
        <time>2010-01-27T15:47:30Z</time>
      </trkpt>
      <trkpt lat="45.56322" lon="6.7181">
        <ele>880</ele>
        <time>2010-01-27T15:47:38Z</time>
      </trkpt>
      <trkpt lat="45.56322" lon="6.71844">
        <ele>886</ele>
        <time>2010-01-27T15:47:48Z</time>
      </trkpt>
      <trkpt lat="45.56309" lon="6.7193">
        <ele>897</ele>
        <time>2010-01-27T15:48:13Z</time>
      </trkpt>
      <trkpt lat="45.56301" lon="6.71977">
        <ele>902</ele>
        <time>2010-01-27T15:48:27Z</time>
      </trkpt>
      <trkpt lat="45.56301" lon="6.7202">
        <ele>909</ele>
        <time>2010-01-27T15:48:39Z</time>
      </trkpt>
      <trkpt lat="45.56352" lon="6.72256">
        <ele>914</ele>
        <time>2010-01-27T15:49:48Z</time>
      </trkpt>
      <trkpt lat="45.56361" lon="6.72346">
        <ele>924</ele>
        <time>2010-01-27T15:50:14Z</time>
      </trkpt>
      <trkpt lat="45.56395" lon="6.72462">
        <ele>937</ele>
        <time>2010-01-27T15:50:49Z</time>
      </trkpt>
      <trkpt lat="45.56438" lon="6.72518">
        <ele>928</ele>
        <time>2010-01-27T15:51:12Z</time>
      </trkpt>
      <trkpt lat="45.56464" lon="6.72565">
        <ele>927</ele>
        <time>2010-01-27T15:51:29Z</time>
      </trkpt>
      <trkpt lat="45.56477" lon="6.72604">
        <ele>937</ele>
        <time>2010-01-27T15:51:41Z</time>
      </trkpt>
      <trkpt lat="45.56494" lon="6.7275">
        <ele>945</ele>
        <time>2010-01-27T15:52:22Z</time>
      </trkpt>
      <trkpt lat="45.56489" lon="6.72818">
        <ele>957</ele>
        <time>2010-01-27T15:52:42Z</time>
      </trkpt>
      <trkpt lat="45.56494" lon="6.72925">
        <ele>963</ele>
        <time>2010-01-27T15:53:12Z</time>
      </trkpt>
      <trkpt lat="45.56494" lon="6.72956">
        <ele>969</ele>
        <time>2010-01-27T15:53:20Z</time>
      </trkpt>
      <trkpt lat="45.56477" lon="6.73059">
        <ele>971</ele>
        <time>2010-01-27T15:53:50Z</time>
      </trkpt>
      <trkpt lat="45.56481" lon="6.73209">
        <ele>970</ele>
        <time>2010-01-27T15:54:32Z</time>
      </trkpt>
      <trkpt lat="45.56472" lon="6.73243">
        <ele>971</ele>
        <time>2010-01-27T15:54:42Z</time>
      </trkpt>
      <trkpt lat="45.56468" lon="6.73243">
        <ele>972</ele>
        <time>2010-01-27T15:54:44Z</time>
      </trkpt>
      <trkpt lat="45.56455" lon="6.732">
        <ele>974</ele>
        <time>2010-01-27T15:54:57Z</time>
      </trkpt>
      <trkpt lat="45.56451" lon="6.73041">
        <ele>976</ele>
        <time>2010-01-27T15:55:42Z</time>
      </trkpt>
      <trkpt lat="45.56399" lon="6.72818">
        <ele>1000</ele>
        <time>2010-01-27T15:56:48Z</time>
      </trkpt>
      <trkpt lat="45.56331" lon="6.72604">
        <ele>1006</ele>
        <time>2010-01-27T15:57:54Z</time>
      </trkpt>
      <trkpt lat="45.56309" lon="6.72578">
        <ele>999</ele>
        <time>2010-01-27T15:58:05Z</time>
      </trkpt>
      <trkpt lat="45.56305" lon="6.72574">
        <ele>1000</ele>
        <time>2010-01-27T15:58:07Z</time>
      </trkpt>
      <trkpt lat="45.56292" lon="6.72582">
        <ele>1004</ele>
        <time>2010-01-27T15:58:13Z</time>
      </trkpt>
      <trkpt lat="45.56335" lon="6.72724">
        <ele>1006</ele>
        <time>2010-01-27T15:58:56Z</time>
      </trkpt>
      <trkpt lat="45.56344" lon="6.72818">
        <ele>1018</ele>
        <time>2010-01-27T15:59:23Z</time>
      </trkpt>
      <trkpt lat="45.56348" lon="6.72891">
        <ele>1017</ele>
        <time>2010-01-27T15:59:43Z</time>
      </trkpt>
      <trkpt lat="45.56339" lon="6.72994">
        <ele>1027</ele>
        <time>2010-01-27T16:00:13Z</time>
      </trkpt>
      <trkpt lat="45.56318" lon="6.73063">
        <ele>1040</ele>
        <time>2010-01-27T16:00:34Z</time>
      </trkpt>
      <trkpt lat="45.56305" lon="6.73123">
        <ele>1042</ele>
        <time>2010-01-27T16:00:51Z</time>
      </trkpt>
      <trkpt lat="45.56305" lon="6.7317">
        <ele>1044</ele>
        <time>2010-01-27T16:01:04Z</time>
      </trkpt>
      <trkpt lat="45.56296" lon="6.73187">
        <ele>1048</ele>
        <time>2010-01-27T16:01:11Z</time>
      </trkpt>
      <trkpt lat="45.56288" lon="6.73183">
        <ele>1050</ele>
        <time>2010-01-27T16:01:14Z</time>
      </trkpt>
      <trkpt lat="45.56283" lon="6.73089">
        <ele>1047</ele>
        <time>2010-01-27T16:01:41Z</time>
      </trkpt>
      <trkpt lat="45.56288" lon="6.72925">
        <ele>1048</ele>
        <time>2010-01-27T16:02:27Z</time>
      </trkpt>
      <trkpt lat="45.56279" lon="6.72887">
        <ele>1049</ele>
        <time>2010-01-27T16:02:38Z</time>
      </trkpt>
      <trkpt lat="45.56172" lon="6.72689">
        <ele>1066</ele>
        <time>2010-01-27T16:03:48Z</time>
      </trkpt>
      <trkpt lat="45.56133" lon="6.72638">
        <ele>1077</ele>
        <time>2010-01-27T16:04:09Z</time>
      </trkpt>
      <trkpt lat="45.55992" lon="6.72376">
        <ele>1110</ele>
        <time>2010-01-27T16:05:42Z</time>
      </trkpt>
      <trkpt lat="45.5594" lon="6.7226">
        <ele>1105</ele>
        <time>2010-01-27T16:06:21Z</time>
      </trkpt>
      <trkpt lat="45.55867" lon="6.72153">
        <ele>1111</ele>
        <time>2010-01-27T16:07:02Z</time>
      </trkpt>
      <trkpt lat="45.55829" lon="6.72059">
        <ele>1123</ele>
        <time>2010-01-27T16:07:33Z</time>
      </trkpt>
      <trkpt lat="45.5582" lon="6.72059">
        <ele>1124</ele>
        <time>2010-01-27T16:07:36Z</time>
      </trkpt>
      <trkpt lat="45.55816" lon="6.72063">
        <ele>1124</ele>
        <time>2010-01-27T16:07:39Z</time>
      </trkpt>
      <trkpt lat="45.55816" lon="6.72076">
        <ele>1123</ele>
        <time>2010-01-27T16:07:42Z</time>
      </trkpt>
      <trkpt lat="45.55863" lon="6.72247">
        <ele>1126</ele>
        <time>2010-01-27T16:08:34Z</time>
      </trkpt>
      <trkpt lat="45.55923" lon="6.72505">
        <ele>1143</ele>
        <time>2010-01-27T16:09:50Z</time>
      </trkpt>
      <trkpt lat="45.55957" lon="6.72655">
        <ele>1150</ele>
        <time>2010-01-27T16:10:35Z</time>
      </trkpt>
      <trkpt lat="45.55992" lon="6.73076">
        <ele>1179</ele>
        <time>2010-01-27T16:12:33Z</time>
      </trkpt>
      <trkpt lat="45.56022" lon="6.73277">
        <ele>1185</ele>
        <time>2010-01-27T16:13:31Z</time>
      </trkpt>
      <trkpt lat="45.56043" lon="6.73355">
        <ele>1190</ele>
        <time>2010-01-27T16:13:54Z</time>
      </trkpt>
      <trkpt lat="45.56043" lon="6.73368">
        <ele>1190</ele>
        <time>2010-01-27T16:13:58Z</time>
      </trkpt>
      <trkpt lat="45.56035" lon="6.7338">
        <ele>1192</ele>
        <time>2010-01-27T16:14:03Z</time>
      </trkpt>
      <trkpt lat="45.56022" lon="6.73376">
        <ele>1194</ele>
        <time>2010-01-27T16:14:09Z</time>
      </trkpt>
      <trkpt lat="45.55983" lon="6.73234">
        <ele>1200</ele>
        <time>2010-01-27T16:14:51Z</time>
      </trkpt>
      <trkpt lat="45.55974" lon="6.73196">
        <ele>1200</ele>
        <time>2010-01-27T16:15:03Z</time>
      </trkpt>
      <trkpt lat="45.55962" lon="6.73162">
        <ele>1197</ele>
        <time>2010-01-27T16:15:13Z</time>
      </trkpt>
      <trkpt lat="45.5594" lon="6.73127">
        <ele>1200</ele>
        <time>2010-01-27T16:15:26Z</time>
      </trkpt>
      <trkpt lat="45.5591" lon="6.73059">
        <ele>1225</ele>
        <time>2010-01-27T16:15:49Z</time>
      </trkpt>
      <trkpt lat="45.55863" lon="6.72883">
        <ele>1228</ele>
        <time>2010-01-27T16:16:42Z</time>
      </trkpt>
      <trkpt lat="45.55743" lon="6.72625">
        <ele>1258</ele>
        <time>2010-01-27T16:18:09Z</time>
      </trkpt>
      <trkpt lat="45.55717" lon="6.72544">
        <ele>1253</ele>
        <time>2010-01-27T16:18:34Z</time>
      </trkpt>
      <trkpt lat="45.55708" lon="6.72539">
        <ele>1256</ele>
        <time>2010-01-27T16:18:37Z</time>
      </trkpt>
      <trkpt lat="45.55704" lon="6.72539">
        <ele>1257</ele>
        <time>2010-01-27T16:18:39Z</time>
      </trkpt>
      <trkpt lat="45.55696" lon="6.72552">
        <ele>1261</ele>
        <time>2010-01-27T16:18:44Z</time>
      </trkpt>
      <trkpt lat="45.557" lon="6.72565">
        <ele>1261</ele>
        <time>2010-01-27T16:18:48Z</time>
      </trkpt>
      <trkpt lat="45.55734" lon="6.72689">
        <ele>1269</ele>
        <time>2010-01-27T16:19:26Z</time>
      </trkpt>
      <trkpt lat="45.5579" lon="6.72943">
        <ele>1279</ele>
        <time>2010-01-27T16:20:40Z</time>
      </trkpt>
      <trkpt lat="45.55794" lon="6.73089">
        <ele>1282</ele>
        <time>2010-01-27T16:21:21Z</time>
      </trkpt>
      <trkpt lat="45.5579" lon="6.73179">
        <ele>1284</ele>
        <time>2010-01-27T16:21:46Z</time>
      </trkpt>
      <trkpt lat="45.55768" lon="6.73269">
        <ele>1290</ele>
        <time>2010-01-27T16:22:13Z</time>
      </trkpt>
      <trkpt lat="45.55777" lon="6.73368">
        <ele>1286</ele>
        <time>2010-01-27T16:22:41Z</time>
      </trkpt>
      <trkpt lat="45.55768" lon="6.7338">
        <ele>1288</ele>
        <time>2010-01-27T16:22:46Z</time>
      </trkpt>
      <trkpt lat="45.55756" lon="6.73376">
        <ele>1290</ele>
        <time>2010-01-27T16:22:51Z</time>
      </trkpt>
      <trkpt lat="45.55751" lon="6.73359">
        <ele>1292</ele>
        <time>2010-01-27T16:22:56Z</time>
      </trkpt>
      <trkpt lat="45.55734" lon="6.73213">
        <ele>1316</ele>
        <time>2010-01-27T16:23:38Z</time>
      </trkpt>
      <trkpt lat="45.55734" lon="6.7308">
        <ele>1312</ele>
        <time>2010-01-27T16:24:15Z</time>
      </trkpt>
      <trkpt lat="45.55726" lon="6.73037">
        <ele>1315</ele>
        <time>2010-01-27T16:24:28Z</time>
      </trkpt>
      <trkpt lat="45.55696" lon="6.72943">
        <ele>1314</ele>
        <time>2010-01-27T16:24:57Z</time>
      </trkpt>
      <trkpt lat="45.55687" lon="6.72934">
        <ele>1316</ele>
        <time>2010-01-27T16:25:01Z</time>
      </trkpt>
      <trkpt lat="45.55674" lon="6.7293">
        <ele>1319</ele>
        <time>2010-01-27T16:25:07Z</time>
      </trkpt>
      <trkpt lat="45.55665" lon="6.72943">
        <ele>1335</ele>
        <time>2010-01-27T16:25:11Z</time>
      </trkpt>
      <trkpt lat="45.55687" lon="6.73076">
        <ele>1325</ele>
        <time>2010-01-27T16:25:50Z</time>
      </trkpt>
      <trkpt lat="45.55687" lon="6.73106">
        <ele>1326</ele>
        <time>2010-01-27T16:25:58Z</time>
      </trkpt>
      <trkpt lat="45.55678" lon="6.73123">
        <ele>1326</ele>
        <time>2010-01-27T16:26:04Z</time>
      </trkpt>
      <trkpt lat="45.5567" lon="6.73123">
        <ele>1327</ele>
        <time>2010-01-27T16:26:07Z</time>
      </trkpt>
      <trkpt lat="45.55661" lon="6.73114">
        <ele>1347</ele>
        <time>2010-01-27T16:26:12Z</time>
      </trkpt>
      <trkpt lat="45.55644" lon="6.72994">
        <ele>1338</ele>
        <time>2010-01-27T16:26:46Z</time>
      </trkpt>
      <trkpt lat="45.55623" lon="6.7293">
        <ele>1343</ele>
        <time>2010-01-27T16:27:06Z</time>
      </trkpt>
      <trkpt lat="45.55571" lon="6.72853">
        <ele>1354</ele>
        <time>2010-01-27T16:27:36Z</time>
      </trkpt>
      <trkpt lat="45.55541" lon="6.72775">
        <ele>1355</ele>
        <time>2010-01-27T16:28:01Z</time>
      </trkpt>
      <trkpt lat="45.55528" lon="6.72724">
        <ele>1354</ele>
        <time>2010-01-27T16:28:16Z</time>
      </trkpt>
      <trkpt lat="45.55515" lon="6.72638">
        <ele>1352</ele>
        <time>2010-01-27T16:28:41Z</time>
      </trkpt>
      <trkpt lat="45.55511" lon="6.72574">
        <ele>1355</ele>
        <time>2010-01-27T16:28:59Z</time>
      </trkpt>
      <trkpt lat="45.55507" lon="6.72565">
        <ele>1354</ele>
        <time>2010-01-27T16:29:02Z</time>
      </trkpt>
      <trkpt lat="45.55498" lon="6.72565">
        <ele>1371</ele>
        <time>2010-01-27T16:29:05Z</time>
      </trkpt>
      <trkpt lat="45.5549" lon="6.72578">
        <ele>1369</ele>
        <time>2010-01-27T16:29:10Z</time>
      </trkpt>
      <trkpt lat="45.55477" lon="6.72664">
        <ele>1373</ele>
        <time>2010-01-27T16:29:35Z</time>
      </trkpt>
      <trkpt lat="45.55472" lon="6.72698">
        <ele>1375</ele>
        <time>2010-01-27T16:29:45Z</time>
      </trkpt>
      <trkpt lat="45.5546" lon="6.72728">
        <ele>1377</ele>
        <time>2010-01-27T16:29:55Z</time>
      </trkpt>
      <trkpt lat="45.55468" lon="6.72792">
        <ele>1374</ele>
        <time>2010-01-27T16:30:13Z</time>
      </trkpt>
      <trkpt lat="45.55464" lon="6.7281">
        <ele>1374</ele>
        <time>2010-01-27T16:30:18Z</time>
      </trkpt>
      <trkpt lat="45.55451" lon="6.72917">
        <ele>1381</ele>
        <time>2010-01-27T16:30:49Z</time>
      </trkpt>
      <trkpt lat="45.55455" lon="6.72951">
        <ele>1381</ele>
        <time>2010-01-27T16:30:59Z</time>
      </trkpt>
      <trkpt lat="45.55468" lon="6.72973">
        <ele>1380</ele>
        <time>2010-01-27T16:31:06Z</time>
      </trkpt>
      <trkpt lat="45.55477" lon="6.72994">
        <ele>1379</ele>
        <time>2010-01-27T16:31:13Z</time>
      </trkpt>
      <trkpt lat="45.55481" lon="6.7302">
        <ele>1384</ele>
        <time>2010-01-27T16:31:21Z</time>
      </trkpt>
      <trkpt lat="45.55498" lon="6.73046">
        <ele>1385</ele>
        <time>2010-01-27T16:31:31Z</time>
      </trkpt>
    </trkseg>
  </trk>
</gpx>